[[{"header":{"parameterUnit":"m.s-1","parameterCategory":1,"la1":30.6,"la2":29.2853,"lo1":-89.7004,"lo2":-87.6739,"dy":0.0162,"dx":0.0183,"nx":112,"ny":82,"refTime":"2026-03-04T12:00:00:Z","depth":0,"parameterNumber":2,"parameterNumberName":"U-component_of_WINDS"},"data":[0.0,0.0,0.0,0.0,0.0,0.0,0.0,0.0,0.0,0.0,0.0,0.0,0.0,0.0,0.0,0.0,0.0,0.0,0.0,0.0,0.0,0.0,0.0,0.0,0.0,0.0,0.0,0.0,0.0,0.0,0.0,0.0,0.0,0.0,0.0,0.0,0.0,0.0,0.0,0.0,0.0,0.0,0.0,0.0,0.0,0.0,0.0,0.0,0.0,0.0,0.0,0.0,0.0,0.0,0.0,0.0,0.0,0.0,0.0,0.0,0.0,0.0,0.0,0.0,0.0,0.0,0.0,0.0,0.0,0.0,0.0,0.0,0.0,0.0,0.0,0.0,0.0,0.0,0.0,0.0,0.0,0.0,0.0,0.0,0.0,0.0,0.0,0.0,0.0,0.0,0.0,-2.1563,-2.3492,-2.4609,-2.4508,-2.3932,-2.2564,-2.0137,0.0,0.0,0.0,0.0,0.0,0.0,0.0,0.0,0.0,0.0,0.0,0.0,0.0,0.0,0.0,0.0,0.0,0.0,0.0,0.0,0.0,0.0,0.0,0.0,0.0,0.0,0.0,0.0,0.0,0.0,0.0,0.0,0.0,0.0,0.0,0.0,0.0,0.0,0.0,0.0,0.0,0.0,0.0,0.0,0.0,0.0,0.0,0.0,0.0,0.0,0.0,0.0,0.0,0.0,0.0,0.0,0.0,0.0,0.0,0.0,0.0,0.0,0.0,0.0,0.0,0.0,0.0,0.0,0.0,0.0,0.0,0.0,0.0,0.0,0.0,0.0,0.0,0.0,0.0,0.0,0.0,0.0,0.0,0.0,0.0,0.0,0.0,0.0,0.0,0.0,0.0,0.0,0.0,0.0,0.0,0.0,0.0,0.0,0.0,0.0,0.0,0.0,0.0,0.0,-1.9655,-2.356,-2.4864,-2.5169,-2.4541,-2.4406,-2.3071,-2.017,0.0,0.0,0.0,0.0,0.0,0.0,0.0,0.0,0.0,0.0,0.0,0.0,0.0,0.0,0.0,0.0,0.0,0.0,0.0,0.0,0.0,0.0,0.0,0.0,0.0,0.0,0.0,0.0,0.0,0.0,0.0,0.0,0.0,0.0,0.0,0.0,0.0,0.0,0.0,0.0,0.0,0.0,0.0,0.0,0.0,0.0,0.0,0.0,0.0,0.0,0.0,0.0,0.0,0.0,0.0,0.0,0.0,0.0,0.0,0.0,0.0,0.0,0.0,0.0,0.0,0.0,0.0,0.0,0.0,0.0,0.0,0.0,0.0,0.0,0.0,0.0,0.0,0.0,0.0,0.0,0.0,0.0,0.0,0.0,0.0,0.0,0.0,0.0,0.0,0.0,0.0,0.0,0.0,0.0,0.0,0.0,0.0,0.0,0.0,0.0,0.0,0.0,0.0,-1.9858,-2.1786,-2.4237,-2.5169,-2.5304,-2.4541,-2.4135,-2.2801,-2.017,-1.8628,0.0,0.0,0.0,0.0,0.0,0.0,0.0,0.0,0.0,0.0,0.0,0.0,0.0,0.0,0.0,0.0,0.0,0.0,0.0,0.0,0.0,0.0,0.0,0.0,0.0,0.0,0.0,0.0,0.0,0.0,0.0,0.0,0.0,0.0,0.0,0.0,0.0,0.0,0.0,0.0,0.0,0.0,0.0,0.0,0.0,0.0,0.0,0.0,0.0,0.0,0.0,0.0,0.0,0.0,0.0,0.0,0.0,0.0,0.0,0.0,0.0,0.0,0.0,0.0,0.0,0.0,0.0,0.0,0.0,0.0,0.0,0.0,0.0,0.0,0.0,0.0,0.0,0.0,0.0,0.0,0.0,0.0,0.0,0.0,0.0,0.0,0.0,0.0,0.0,0.0,0.0,0.0,0.0,0.0,0.0,0.0,0.0,0.0,0.0,0.0,0.0,0.0,-2.2023,-2.3898,-2.444,-2.5169,-2.5304,-2.4541,-2.3587,-2.2155,-2.0137,-1.8389,0.0,0.0,0.0,0.0,0.0,0.0,0.0,0.0,0.0,0.0,0.0,0.0,0.0,0.0,0.0,0.0,0.0,0.0,0.0,0.0,0.0,0.0,0.0,0.0,0.0,0.0,0.0,0.0,0.0,0.0,0.0,0.0,0.0,0.0,0.0,0.0,0.0,0.0,0.0,0.0,0.0,0.0,0.0,0.0,0.0,0.0,0.0,0.0,0.0,0.0,0.0,0.0,0.0,0.0,0.0,0.0,0.0,0.0,0.0,0.0,0.0,0.0,0.0,0.0,0.0,0.0,0.0,0.0,0.0,0.0,0.0,0.0,0.0,0.0,0.0,0.0,0.0,0.0,0.0,0.0,0.0,0.0,0.0,0.0,0.0,0.0,0.0,0.0,0.0,0.0,0.0,0.0,0.0,0.0,0.0,0.0,0.0,0.0,0.0,0.0,0.0,0.0,-2.2172,-2.444,-2.4474,-2.5169,-2.5304,-2.4541,-2.2921,-2.1378,-2.009,-1.7686,0.0,0.0,0.0,0.0,0.0,0.0,0.0,0.0,0.0,0.0,0.0,0.0,0.0,0.0,0.0,0.0,0.0,0.0,0.0,0.0,0.0,0.0,0.0,0.0,0.0,0.0,0.0,0.0,0.0,0.0,0.0,0.0,0.0,0.0,0.0,0.0,0.0,0.0,0.0,0.0,0.0,0.0,0.0,0.0,0.0,0.0,0.0,0.0,0.0,0.0,0.0,0.0,0.0,0.0,0.0,0.0,0.0,0.0,0.0,0.0,0.0,0.0,0.0,0.0,0.0,0.0,0.0,0.0,0.0,0.0,0.0,0.0,0.0,0.0,0.0,0.0,0.0,0.0,0.0,0.0,0.0,0.0,0.0,0.0,0.0,0.0,0.0,0.0,0.0,0.0,0.0,0.0,0.0,0.0,0.0,0.0,0.0,0.0,0.0,0.0,0.0,0.0,-2.138,-2.3308,0.0,-2.4052,-2.412,-2.3831,-2.2512,-2.1192,-2.0077,0.0,0.0,0.0,0.0,0.0,0.0,0.0,0.0,0.0,0.0,0.0,0.0,0.0,0.0,0.0,0.0,0.0,0.0,0.0,0.0,0.0,0.0,0.0,0.0,0.0,0.0,0.0,0.0,0.0,0.0,0.0,0.0,0.0,0.0,0.0,0.0,0.0,0.0,0.0,0.0,0.0,0.0,0.0,0.0,0.0,0.0,0.0,0.0,0.0,0.0,0.0,0.0,0.0,0.0,0.0,0.0,0.0,0.0,0.0,0.0,0.0,0.0,0.0,0.0,0.0,0.0,0.0,0.0,0.0,0.0,0.0,0.0,0.0,0.0,0.0,0.0,0.0,0.0,0.0,0.0,0.0,0.0,0.0,0.0,0.0,0.0,0.0,0.0,0.0,0.0,0.0,0.0,0.0,0.0,0.0,0.0,0.0,0.0,0.0,0.0,0.0,0.0,-1.9046,-2.1245,-2.2767,0.0,-2.3038,-2.297,-2.2714,-2.1183,-1.9969,-1.9347,0.0,0.0,0.0,0.0,0.0,0.0,0.0,0.0,0.0,0.0,0.0,0.0,0.0,0.0,0.0,0.0,0.0,0.0,0.0,0.0,0.0,0.0,0.0,0.0,0.0,0.0,0.0,0.0,0.0,0.0,0.0,0.0,0.0,0.0,0.0,0.0,0.0,0.0,0.0,0.0,0.0,0.0,0.0,0.0,0.0,0.0,0.0,0.0,0.0,0.0,0.0,0.0,0.0,0.0,0.0,0.0,0.0,0.0,0.0,0.0,0.0,0.0,0.0,0.0,0.0,0.0,0.0,0.0,0.0,0.0,0.0,0.0,0.0,0.0,0.0,0.0,0.0,0.0,0.0,0.0,0.0,0.0,0.0,0.0,0.0,0.0,0.0,0.0,0.0,0.0,0.0,0.0,0.0,0.0,0.0,0.0,0.0,0.0,0.0,0.0,0.0,0.0,-1.9799,-2.1941,-2.3071,-2.2347,-2.2279,-2.1989,-2.1258,-1.881,-1.7439,0.0,0.0,0.0,0.0,0.0,0.0,0.0,0.0,0.0,0.0,0.0,0.0,0.0,0.0,0.0,0.0,0.0,0.0,0.0,0.0,0.0,0.0,0.0,0.0,0.0,0.0,0.0,0.0,0.0,0.0,0.0,0.0,0.0,0.0,0.0,0.0,0.0,0.0,0.0,0.0,0.0,0.0,0.0,0.0,0.0,0.0,0.0,0.0,0.0,0.0,0.0,0.0,0.0,0.0,0.0,0.0,0.0,0.0,0.0,0.0,0.0,0.0,0.0,0.0,0.0,0.0,0.0,0.0,0.0,0.0,0.0,0.0,0.0,0.0,0.0,0.0,0.0,0.0,0.0,0.0,0.0,0.0,0.0,0.0,0.0,0.0,0.0,0.0,0.0,0.0,0.0,0.0,0.0,0.0,0.0,0.0,0.0,0.0,0.0,0.0,0.0,0.0,0.0,-1.9046,-2.0251,-2.0927,-2.0711,-2.069,-2.0497,-2.003,-1.8595,-1.7635,-1.746,0.0,0.0,0.0,0.0,0.0,0.0,0.0,0.0,0.0,0.0,0.0,0.0,0.0,0.0,0.0,0.0,0.0,0.0,0.0,0.0,0.0,0.0,0.0,0.0,0.0,0.0,0.0,0.0,0.0,0.0,0.0,0.0,0.0,0.0,0.0,0.0,0.0,0.0,0.0,0.0,0.0,0.0,0.0,0.0,0.0,0.0,0.0,0.0,0.0,0.0,0.0,0.0,0.0,0.0,0.0,0.0,0.0,0.0,0.0,0.0,0.0,0.0,0.0,0.0,0.0,0.0,0.0,0.0,0.0,0.0,0.0,0.0,0.0,0.0,0.0,0.0,0.0,0.0,0.0,0.0,0.0,0.0,0.0,0.0,0.0,0.0,0.0,0.0,0.0,0.0,0.0,0.0,0.0,0.0,0.0,0.0,0.0,0.0,0.0,0.0,0.0,0.0,-1.8707,-1.9824,-2.0251,-1.9642,-1.9799,-1.9668,-1.8876,-1.7584,-1.6722,-1.6484,0.0,0.0,0.0,0.0,0.0,0.0,0.0,0.0,0.0,0.0,0.0,0.0,0.0,0.0,0.0,0.0,0.0,0.0,0.0,0.0,0.0,0.0,0.0,0.0,0.0,0.0,0.0,0.0,0.0,0.0,0.0,0.0,0.0,0.0,0.0,0.0,0.0,0.0,0.0,0.0,0.0,0.0,0.0,0.0,0.0,0.0,0.0,0.0,0.0,0.0,0.0,0.0,0.0,0.0,0.0,0.0,0.0,0.0,0.0,0.0,0.0,0.0,0.0,0.0,0.0,0.0,0.0,0.0,0.0,0.0,0.0,0.0,0.0,0.0,0.0,0.0,0.0,0.0,0.0,0.0,0.0,0.0,0.0,0.0,0.0,0.0,0.0,0.0,0.0,0.0,0.0,0.0,0.0,0.0,0.0,0.0,0.0,0.0,0.0,0.0,0.0,0.0,-1.8719,-2.0107,-2.0479,-1.9147,-1.9541,-1.9347,-1.7985,-1.6298,-1.5296,-1.5285,0.0,0.0,0.0,0.0,0.0,0.0,0.0,0.0,0.0,0.0,0.0,0.0,0.0,0.0,0.0,0.0,0.0,0.0,0.0,0.0,0.0,0.0,0.0,0.0,0.0,0.0,0.0,0.0,0.0,0.0,0.0,0.0,0.0,0.0,0.0,0.0,0.0,0.0,0.0,0.0,0.0,0.0,0.0,0.0,0.0,0.0,0.0,0.0,0.0,0.0,0.0,0.0,0.0,0.0,0.0,0.0,0.0,0.0,0.0,0.0,-2.4064,0.0,0.0,0.0,0.0,0.0,0.0,0.0,0.0,0.0,0.0,0.0,0.0,0.0,0.0,0.0,0.0,0.0,0.0,0.0,0.0,0.0,0.0,0.0,0.0,0.0,0.0,0.0,0.0,0.0,0.0,0.0,0.0,0.0,0.0,0.0,0.0,0.0,0.0,0.0,0.0,0.0,-1.864,-1.9193,-1.9486,-1.9744,-1.9372,-1.8915,-1.8311,-1.6928,-1.6056,-1.6,-1.3749,0.0,0.0,0.0,0.0,0.0,0.0,0.0,0.0,0.0,0.0,0.0,0.0,0.0,0.0,0.0,0.0,0.0,0.0,0.0,0.0,0.0,0.0,0.0,0.0,0.0,0.0,0.0,0.0,0.0,0.0,0.0,0.0,0.0,0.0,0.0,0.0,0.0,0.0,0.0,0.0,0.0,0.0,0.0,0.0,0.0,0.0,0.0,0.0,0.0,0.0,0.0,0.0,0.0,0.0,0.0,0.0,0.0,0.0,0.0,0.0,-2.4797,0.0,0.0,0.0,0.0,0.0,0.0,0.0,0.0,0.0,0.0,0.0,0.0,0.0,0.0,0.0,0.0,0.0,0.0,0.0,0.0,0.0,0.0,0.0,0.0,0.0,0.0,0.0,0.0,0.0,0.0,0.0,0.0,0.0,0.0,0.0,0.0,0.0,0.0,0.0,0.0,-1.9113,-1.9439,-1.9575,-1.9968,-1.9993,-1.9626,-1.8714,-1.7517,-1.6594,-1.6047,-1.4497,0.0,0.0,0.0,0.0,0.0,0.0,0.0,0.0,0.0,0.0,0.0,0.0,0.0,0.0,0.0,0.0,0.0,0.0,0.0,0.0,0.0,0.0,0.0,0.0,0.0,0.0,0.0,0.0,0.0,0.0,0.0,0.0,0.0,0.0,0.0,0.0,0.0,0.0,0.0,0.0,0.0,0.0,0.0,0.0,0.0,0.0,0.0,0.0,0.0,0.0,0.0,0.0,0.0,-2.7495,-2.8141,-2.8553,-2.9114,-2.9675,-3.0136,-2.7873,-2.7058,-2.7264,0.0,0.0,0.0,0.0,0.0,0.0,0.0,0.0,0.0,0.0,0.0,0.0,0.0,0.0,0.0,0.0,0.0,0.0,0.0,0.0,0.0,0.0,0.0,0.0,0.0,-2.224,-2.119,0.0,0.0,0.0,0.0,0.0,0.0,0.0,0.0,0.0,0.0,0.0,0.0,-1.9664,-2.0116,-2.0251,-2.0373,-2.0873,-2.0615,-1.9215,-1.8205,-1.7235,-1.6219,-1.5413,-1.427,0.0,0.0,0.0,0.0,0.0,0.0,0.0,0.0,0.0,0.0,0.0,0.0,0.0,0.0,0.0,0.0,0.0,0.0,0.0,0.0,0.0,0.0,0.0,0.0,0.0,0.0,0.0,0.0,0.0,0.0,0.0,0.0,-2.0449,-2.1216,0.0,0.0,0.0,0.0,0.0,0.0,0.0,0.0,0.0,0.0,0.0,0.0,0.0,-2.5877,-2.6223,-2.8448,-2.9398,-2.9147,-3.0363,-3.0966,-3.105,-3.114,-3.12,-3.1261,-3.093,0.0,-2.8663,-2.7898,0.0,0.0,0.0,0.0,0.0,0.0,0.0,0.0,0.0,0.0,0.0,0.0,0.0,0.0,0.0,0.0,0.0,0.0,0.0,0.0,0.0,0.0,-2.4763,-2.4305,-2.4135,-2.3628,0.0,-2.0297,-1.891,-1.855,-1.7501,0.0,0.0,0.0,0.0,0.0,0.0,0.0,-1.9799,-2.0602,-2.1278,-2.1941,-2.1515,-2.0852,-1.9947,-1.9145,-1.8378,-1.7591,-1.662,-1.5704,-1.4818,-1.3897,0.0,0.0,0.0,0.0,0.0,0.0,0.0,0.0,0.0,0.0,0.0,0.0,0.0,0.0,0.0,0.0,0.0,0.0,0.0,0.0,0.0,0.0,0.0,0.0,0.0,0.0,0.0,0.0,0.0,-2.0139,-2.1635,-2.1186,-2.1784,-2.1695,0.0,0.0,0.0,0.0,0.0,0.0,0.0,0.0,0.0,-2.6243,-2.7514,-2.8358,-2.8786,-3.0205,-3.1229,-3.1779,-3.2736,-3.3574,-3.4322,-3.465,-3.4442,-3.3754,-3.3754,-3.2673,-3.0869,-2.9305,-2.8124,-2.7207,0.0,0.0,0.0,0.0,-2.6238,-2.5215,-2.6502,-2.6209,0.0,-2.4668,0.0,0.0,0.0,0.0,0.0,0.0,0.0,0.0,0.0,0.0,0.0,-2.5101,-2.4812,-2.444,-2.4206,-2.3038,-2.1698,0.0,-1.9993,-1.935,-1.7726,0.0,0.0,0.0,0.0,0.0,-2.0467,-2.0987,-2.1495,-2.2212,-2.2023,-2.1515,-2.0737,-1.9807,-1.8847,-1.7917,-1.6887,-1.5994,-1.528,-1.4257,-1.3226,0.0,0.0,0.0,0.0,0.0,0.0,0.0,0.0,0.0,0.0,0.0,0.0,0.0,0.0,0.0,0.0,0.0,0.0,0.0,0.0,0.0,0.0,0.0,0.0,0.0,0.0,0.0,0.0,-2.1605,-2.2742,-2.1585,-2.2772,-2.2853,0.0,0.0,0.0,0.0,0.0,0.0,-2.583,-2.6961,-2.8038,-2.9082,-3.025,-3.121,-3.2018,-3.2527,-3.3305,-3.4262,-3.4592,-3.5282,-3.6237,-3.6716,-3.6297,-3.525,-3.525,-3.4382,-3.2856,-3.0852,-2.9959,-2.973,-2.8498,-2.8099,-2.8271,-2.9058,-2.8511,-2.7604,-2.9148,-2.8864,-2.7627,-2.6795,0.0,-2.6251,-2.4253,0.0,0.0,0.0,0.0,-2.5863,-2.6825,-2.6387,-2.5794,-2.6353,-2.5879,-2.5439,-2.5812,-2.5439,-2.4406,0.0,-2.2057,-2.1718,-1.979,0.0,0.0,0.0,0.0,-2.0141,-2.1089,-2.136,-2.1684,-2.2245,-2.2313,-2.1989,-2.1258,-2.0438,-1.9419,-1.8222,-1.7409,-1.6504,-1.5487,-1.495,-1.4074,-1.2786,0.0,0.0,0.0,0.0,0.0,0.0,0.0,0.0,0.0,0.0,0.0,0.0,0.0,0.0,0.0,0.0,0.0,0.0,0.0,0.0,0.0,0.0,0.0,0.0,0.0,0.0,0.0,0.0,0.0,-2.355,-2.5196,0.0,0.0,0.0,0.0,-2.5345,-2.6632,-2.7974,-2.9292,-2.9953,-3.118,-3.3125,-3.3904,-3.4893,-3.6178,-3.6207,-3.6267,-3.6327,-3.5729,-3.5489,-3.5549,-3.5579,-3.522,-3.4563,-3.4563,-3.4503,-3.4294,-3.2916,-3.2053,-3.1529,-3.1226,-3.13,-3.1531,-3.0592,-3.0728,-3.1325,-3.0748,-3.0045,-2.9489,-3.0116,-2.9311,-2.8213,-2.8726,-2.8307,0.0,0.0,-2.8375,-2.8682,-2.8234,-2.8442,-2.8773,-2.8807,-2.8213,-2.7452,-2.6793,-2.6623,-2.5947,0.0,-2.2767,-2.2057,-2.1224,0.0,-2.1021,-2.1021,-2.1651,-2.1887,-2.1292,-2.182,-2.2245,-2.2313,-2.2313,-2.1989,-2.1258,-2.1143,-2.0487,-1.8942,-1.8783,-1.7873,-1.5847,-1.6657,-1.5877,-1.3233,-1.3357,0.0,0.0,0.0,0.0,0.0,0.0,0.0,0.0,0.0,0.0,0.0,0.0,0.0,0.0,0.0,0.0,0.0,0.0,0.0,0.0,0.0,0.0,0.0,0.0,0.0,0.0,0.0,0.0,-2.6207,-2.7889,0.0,-2.6057,-2.6662,-2.747,-2.8098,-2.9385,-3.0702,-3.2018,-3.3125,-3.4233,-3.537,-3.5639,-3.6031,-3.6477,-3.5642,-3.5672,-3.6477,-3.5818,-3.6202,-3.748,-3.748,-3.69,-3.586,-3.586,-3.5063,-3.3844,-3.3814,-3.3427,-3.2757,-3.1823,-3.1503,-3.1643,-3.1751,-3.1416,-3.0966,-3.115,-3.0763,-3.019,-3.0441,-2.9277,-2.7929,-2.8559,-2.822,-2.7719,-2.8157,-2.8686,-2.9065,-2.8907,-2.8906,-2.901,-2.901,-2.8773,-2.8349,-2.7571,-2.7418,-2.6877,-2.5169,-2.4594,-2.4188,-2.3458,-2.2917,-2.2307,-2.1326,-2.182,-2.2023,-2.1292,-2.1854,-2.2313,-2.2313,-2.2313,-2.2178,-2.1921,-2.1222,-2.0364,-1.9364,-1.8627,-1.7809,-1.6803,-1.6285,-1.5443,-1.4258,-1.3039,-1.1872,0.0,0.0,0.0,0.0,0.0,0.0,0.0,0.0,0.0,0.0,0.0,0.0,0.0,0.0,0.0,0.0,0.0,0.0,0.0,0.0,0.0,0.0,0.0,0.0,0.0,0.0,-2.8094,-2.8543,-3.0103,-3.0492,-2.8753,-2.9774,-3.0761,-3.1239,-3.2467,-3.3574,-3.4472,-3.534,-3.6028,-3.6477,-3.6477,-3.6596,-3.6806,-3.5699,-3.5642,-3.6477,-3.5818,-3.6232,-3.7543,-3.7543,-3.7053,-3.6228,-3.6228,-3.5458,-3.4204,-3.4665,-3.4607,-3.4091,-3.2946,-3.2851,-3.328,-3.3014,-3.2496,-3.1924,-3.1888,-3.1601,-3.1175,-3.0904,-2.997,-2.9093,-2.9906,-3.0014,-2.9913,-3.0,-3.033,-3.0501,-3.0002,-2.9791,-2.9754,-2.9754,-2.9551,-2.9228,-2.8703,-2.8365,-2.7841,-2.6573,-2.5931,-2.5439,-2.4982,-2.4458,-2.3883,-2.3187,-2.3274,-2.3241,-2.2733,-2.2665,-2.2665,-2.2665,-2.2448,-2.2313,-2.2313,-2.1611,-2.085,-2.013,-1.9398,-1.8562,-1.7542,-1.7106,-1.6426,-1.5493,-1.4085,-1.286,-1.1809,0.0,0.0,0.0,0.0,0.0,0.0,0.0,0.0,0.0,0.0,0.0,0.0,0.0,0.0,0.0,0.0,0.0,0.0,0.0,0.0,0.0,0.0,0.0,-2.6482,-2.7859,-2.9175,-3.0432,-3.1779,-3.2078,-3.0791,-3.3006,-3.4533,-3.4533,-3.5729,-3.6477,-3.6477,-3.6477,-3.6507,-3.6507,-3.6507,-3.6776,-3.7375,-3.6776,-3.6447,-3.6447,-3.5818,-3.5489,-3.5522,-3.5522,-3.5522,-3.5522,-3.5522,-3.5522,-3.5524,-3.5585,-3.5609,-3.5549,-3.4818,-3.5457,-3.651,-3.4369,-3.4062,-3.4488,-3.301,-3.2556,-3.2474,-3.1649,-3.1469,-3.1804,-3.3143,-3.3989,-3.4325,-3.358,-3.3347,-3.303,-3.1576,-3.1224,-3.1224,-3.119,-3.0649,-3.0123,-3.0108,-2.9533,-2.8807,-2.7993,-2.6674,-2.566,-2.5642,-2.5642,-2.5845,-2.6556,-2.6048,0.0,-2.5575,-2.4323,-2.3444,-2.3477,-2.2801,-2.2381,-2.2381,-2.2347,-2.2023,-2.1258,-2.119,-2.0217,-1.8041,-1.9233,-1.8946,-1.6792,-1.6558,-1.5586,-1.3752,0.0,0.0,0.0,0.0,0.0,0.0,0.0,0.0,0.0,0.0,0.0,0.0,0.0,0.0,0.0,0.0,0.0,0.0,0.0,0.0,0.0,0.0,-2.7649,-2.8008,-3.0013,-3.1749,-3.2587,-3.3873,-3.4532,-3.4173,-3.4801,-3.522,-3.522,-3.5579,-3.5998,-3.6447,-3.6477,-3.6686,-3.7135,-3.6716,-3.6567,-3.6746,-3.6088,-3.5759,-3.5759,-3.5579,-3.5782,-3.6321,-3.6321,-3.6321,-3.6321,-3.6321,-3.6006,-3.5489,-3.5537,-3.5542,-3.5516,-3.5441,-3.5689,-3.5984,-3.5382,-3.4962,-3.45,-3.3087,-3.2587,-3.248,-3.1718,-3.1162,-3.0964,-3.1871,-3.1923,-3.1745,-3.2043,-3.2406,-3.2519,-3.1589,-3.167,-3.1853,-3.1326,-3.1055,-3.0751,-3.0209,-2.9939,-2.9567,-2.8822,-2.7875,-2.7012,-2.6488,-2.5947,-2.566,-2.5879,-2.527,0.0,-2.4812,-2.444,-2.4391,-2.4932,-2.4323,-2.3898,-2.3898,-2.341,-2.253,-2.1292,-2.119,-2.0672,-1.9456,-1.9271,-1.8225,-1.6111,-1.5839,-1.486,0.0,0.0,0.0,0.0,0.0,0.0,0.0,0.0,0.0,0.0,0.0,0.0,0.0,0.0,0.0,0.0,0.0,0.0,0.0,0.0,0.0,0.0,-2.8517,-3.0223,-3.0223,-3.1539,-3.3066,-3.4562,-3.519,-3.5609,-3.5878,-3.6148,-3.6207,-3.5938,-3.6148,-3.6357,-3.6477,-3.6477,-3.6537,-3.6596,-3.6267,-3.6058,-3.6058,-3.5699,-3.5519,-3.5519,-3.5519,-3.5718,-3.6134,-3.6134,-3.6134,0.0,-3.6134,-3.5879,-3.5522,-3.5846,-3.5943,0.0,0.0,0.0,0.0,0.0,-3.496,-3.4877,-3.3481,-3.2972,-3.2866,-3.2161,-3.1877,-3.1871,-3.2295,-3.2577,-3.27,-3.2793,-3.3071,-3.3151,-3.2417,-3.2249,-3.2192,-3.1752,-3.1427,-3.1089,-3.0649,-3.0548,-3.0345,-2.96,-2.9093,0.0,-2.7774,-2.6759,-2.6184,-2.6471,-2.5879,-2.5523,-2.5845,-2.5338,-2.5135,-2.5559,-2.4948,-2.4372,-2.4068,-2.3661,0.0,0.0,0.0,-2.1448,-2.0995,-2.0077,0.0,0.0,0.0,0.0,0.0,0.0,0.0,0.0,-1.433,-1.4154,0.0,0.0,0.0,0.0,0.0,0.0,0.0,0.0,0.0,0.0,0.0,0.0,0.0,0.0,0.0,0.0,-3.1061,-3.2706,-3.2946,-3.2826,-3.3604,-3.5968,-3.5818,-3.5729,-3.6327,-3.6866,-3.6956,-3.6417,-3.6896,-3.6956,-3.6417,0.0,0.0,0.0,0.0,-3.5549,-3.5609,-3.5609,-3.5639,-3.5729,-3.5729,-3.5699,-3.5609,-3.5609,-3.5579,-3.5489,-3.5587,-3.5619,-3.5683,-3.6415,-3.6722,-3.6599,-3.5431,-3.5001,-3.491,-3.4243,-3.4767,-3.5645,-3.4118,0.0,0.0,-3.2734,-3.2939,-3.3487,-3.3547,-3.4423,-3.5273,-3.4766,-3.4607,-3.4438,-3.3728,-3.3017,-3.253,-3.2429,-3.1853,-3.1326,-3.1326,-3.1258,-3.0987,-3.0345,-3.0176,-2.9905,-2.9247,-2.7841,-2.7063,-2.7689,-2.7165,-2.6928,-2.7587,-2.6539,-2.5778,-2.5829,0.0,0.0,-2.3831,-2.3613,-2.3477,-2.341,-2.2656,-2.2194,-2.2166,-2.1207,-2.0935,-2.1405,-2.1405,-2.0729,-1.9293,-1.9291,-1.8817,-1.7758,-1.5979,-1.5725,0.0,0.0,0.0,0.0,0.0,0.0,0.0,0.0,0.0,0.0,0.0,0.0,0.0,0.0,0.0,-3.145,-3.2617,-3.3873,-3.5489,-3.4771,-3.4324,-3.4833,-3.525,-3.5549,-3.5669,-3.5818,-3.5818,-3.5699,-3.5818,-3.5818,-3.5699,-3.5699,-3.5639,-3.5519,-3.5519,-3.5759,-3.6297,-3.6297,-3.6537,-3.7045,0.0,0.0,-3.6297,-3.6297,-3.5998,-3.5522,-3.6134,-3.6384,-3.6446,-3.7233,-3.7589,-3.7587,-3.7915,-3.8047,-3.795,-3.7242,-3.7145,-3.7107,-3.5,-3.4318,-3.4102,-3.2884,-3.2584,-3.2835,-3.3419,-3.3802,0.0,-3.5125,-3.5363,-3.5194,-3.4472,-3.4167,-3.3931,-3.3322,-3.2611,-3.209,-3.209,-3.1616,-3.1157,-3.1021,-3.0514,-3.0074,-2.9905,-2.8601,-2.7655,-2.779,-2.7165,-2.6759,-2.6894,-2.6657,-2.6725,-2.7317,-2.6725,-2.6218,-2.6048,-2.4982,-2.4034,-2.3444,-2.2326,-2.16,-2.1244,-2.1345,-2.105,-2.0327,-2.0312,-1.9731,-1.8579,-1.8749,-1.8727,-1.8476,-1.7579,-1.728,0.0,0.0,0.0,0.0,0.0,0.0,0.0,0.0,0.0,0.0,0.0,-2.6213,-2.8192,0.0,-3.1958,-3.3275,-3.4322,-3.51,-3.5462,-3.519,-3.4981,-3.4981,-3.531,-3.5519,-3.5519,-3.5519,-3.5519,-3.5519,-3.5519,-3.5519,-3.5519,-3.5818,-3.5998,-3.5998,-3.6297,-3.6626,-3.6956,-3.6956,-3.7105,-3.7404,-3.7404,-3.7255,-3.6956,-3.6956,-3.6596,-3.6031,-3.6394,-3.6374,-3.6102,-3.6874,-3.744,-3.7879,-3.8608,-3.8409,-3.7697,-3.7345,-3.6991,-3.655,-3.579,-3.533,-3.5019,-3.4736,-3.4651,-3.4718,-3.5085,-3.5193,-3.5355,-3.6003,-3.5904,-3.5532,-3.5148,-3.4776,-3.4404,-3.4032,-3.3389,-3.2747,-3.2395,-3.2022,-3.165,-3.1258,-3.0886,-3.0649,-3.0649,-2.9702,-2.8838,-2.845,-2.774,-2.7266,-2.7266,-2.6928,-2.6826,-2.7199,-2.6928,-2.6556,-2.6184,-2.5473,-2.4745,-2.4,-2.3734,-2.3222,-2.2394,-2.2523,-2.2391,-2.1858,-2.1665,-2.1424,-2.115,-2.0753,-2.0556,-2.0538,-1.9966,-1.9522,0.0,0.0,0.0,0.0,0.0,0.0,0.0,0.0,-2.4418,-2.6512,-2.7889,-2.9472,-3.1839,-3.3275,-3.4292,-3.4983,-3.5848,-3.6118,-3.5043,-3.525,-3.5519,-3.5519,-3.5519,-3.5519,-3.5519,-3.5519,-3.5519,-3.5519,-3.5639,-3.5699,-3.5699,-3.6297,-3.6656,-3.6656,-3.7135,-3.7464,-3.7584,-3.7584,-3.7674,-3.7793,-3.7793,-3.7734,-3.7584,-3.7584,-3.7255,-3.669,-3.6824,-3.669,-3.637,-3.6971,-3.755,-3.8043,-3.8637,-3.803,-3.6843,-3.6994,-3.6692,-3.6227,-3.6692,-3.65,-3.6089,-3.6454,-3.6648,-3.677,-3.6612,-3.6671,-3.6801,-3.6783,-3.6332,-3.5802,-3.5633,-3.5182,-3.4709,-3.4709,-3.4167,-3.3457,-3.2869,-3.2496,-3.2124,-3.1549,-3.1292,-3.119,-3.119,-3.0717,-3.0074,-2.9314,-2.8552,-2.8027,-2.8027,-2.7402,-2.6928,-2.6928,-2.6793,-2.6387,-2.5676,-2.5592,-2.5238,-2.4433,-2.4922,-2.4828,-2.377,-2.3637,-2.362,-2.3704,-2.3193,-2.3155,-2.3585,-2.2708,-2.2262,-2.2243,-2.1881,-2.1425,-2.5764,-2.4418,-2.367,-2.3977,-2.4126,-2.5083,0.0,0.0,-2.8667,-3.1182,-3.2317,-3.3275,-3.4801,-3.5669,-3.6357,-3.6985,-3.6746,-3.6447,-3.6297,-3.5818,-3.5519,-3.5519,-3.5519,-3.5519,-3.5519,-3.5519,-3.5519,-3.5519,-3.6058,-3.6387,-3.6387,-3.6956,-3.7315,-3.7315,-3.7375,-3.7704,-3.8272,-3.8272,-3.8601,-3.92,-3.92,-3.8871,-3.8272,-3.8272,-3.7913,-3.7349,-3.806,-3.8746,-3.9341,-3.9403,-3.9143,-3.869,-3.8779,-3.8336,-3.7764,-3.8414,-3.8608,-3.8442,-3.7847,-3.7613,-3.7367,-3.615,-3.6216,-3.6672,-3.6006,-3.6254,-3.6804,-3.6801,-3.6761,-3.6502,-3.5769,-3.5532,-3.5464,-3.5464,-3.4912,-3.4336,-3.4269,-3.3241,-3.2293,-3.2192,-3.165,-3.119,-3.119,-3.1123,-3.0818,-3.0108,-2.933,-2.8874,-2.8874,-2.818,-2.7689,-2.7689,-2.7097,-2.6387,-2.5676,-2.5592,-2.5126,-2.4033,-2.405,-2.4017,-2.3869,-2.3416,-2.3347,-2.3704,-2.2821,-2.2412,-2.2468,-2.2017,-2.1794,-2.1794,-2.1734,-2.1665,-2.8368,-2.6931,-2.5997,0.0,-2.6931,-2.8038,-3.0043,-3.0702,-3.1509,-3.3784,-3.4771,-3.5639,-3.6956,-3.7105,-3.7105,0.0,-3.6896,-3.6357,-3.5968,-3.5669,-3.5519,-3.5519,-3.5519,-3.5519,-3.5519,-3.5519,-3.5519,-3.5519,-3.6118,-3.6477,-3.6477,-3.7434,-3.7973,-3.7973,-3.8362,-3.8721,-3.899,-3.899,-3.914,-3.9373,-3.9373,-3.926,-3.899,-3.899,-3.8631,-3.7978,-3.7929,-3.835,-3.9125,-3.9125,-3.9219,-3.9395,-3.9395,-3.8978,-3.8366,-3.8294,-3.8246,-3.8274,-3.8386,-3.8442,-3.8437,-3.8275,-3.8453,-3.8652,-3.8328,-3.8169,-3.8078,-3.8077,-3.7753,-3.7246,-3.6502,-3.6299,-3.6197,-3.5701,-3.5363,-3.5013,-3.4573,-3.402,-3.3457,-3.3017,-3.2679,-3.2341,-3.1921,-3.1853,-3.1582,-3.0852,-3.0108,-2.9634,-2.9634,-2.8958,-2.8315,-2.7858,-2.7519,-2.7063,-2.6319,-2.6251,-2.605,-2.5547,-2.5547,-2.543,-2.5123,-2.4913,-2.472,-2.458,-2.4175,-2.3999,-2.3999,-2.3493,-2.3264,-2.3264,-2.2968,-2.2802,-2.9175,-2.8334,0.0,-2.8543,-2.9654,-3.0939,-3.1928,-3.2916,-3.4113,-3.5938,-3.6686,-3.7345,-3.8452,-3.8272,-3.7853,-3.7464,-3.7015,-3.6447,-3.5639,-3.5519,-3.5519,-3.5519,-3.5519,-3.5579,-3.5759,-3.5609,-3.5519,-3.5519,-3.6267,-3.6746,-3.6746,-3.7973,-3.8691,-3.8691,-3.917,-3.9373,-3.9373,-3.9373,-3.9373,-3.9373,-3.9373,-3.9373,-3.9373,-3.9373,-3.914,-3.8661,-3.8182,-3.8395,-3.9168,-3.9168,-3.9402,-3.9755,-3.9755,-3.9344,-3.8709,-3.8203,-3.8054,-3.8161,-3.8718,-3.9043,-3.9289,-3.9636,-3.9927,-4.0062,-3.985,-3.9556,-3.9242,-3.9039,-3.8633,-3.8024,-3.728,-3.71,-3.6907,-3.6129,-3.5926,-3.5723,-3.4979,-3.4641,-3.4336,-3.3795,-3.3558,-3.322,-3.2699,-3.2429,-3.2124,-3.1562,-3.0886,-3.0412,-3.0412,-2.977,-2.8991,-2.8196,-2.8128,-2.7909,-2.7368,-2.7131,-2.6996,-2.6996,-2.6793,-2.6556,-2.6192,-2.605,-2.5815,-2.543,-2.5278,-2.5202,-2.5202,-2.5021,-2.4914,-2.4914,-2.4569,-2.4403,-2.723,0.0,-2.9026,-3.0913,-3.2407,-3.3903,-3.5848,-3.6327,-3.6746,-3.8033,-3.8332,-3.8542,-3.926,-3.9343,-3.8895,-3.7614,-3.7404,-3.6956,-3.5699,-3.5519,-3.5519,-3.5519,-3.5519,-3.5759,0.0,-3.5878,-3.5519,-3.5519,-3.6656,-3.7375,-3.7375,-3.8661,-3.9379,-3.9379,-3.9373,-3.9373,-3.9373,-3.9373,-3.9373,-3.9373,-3.9373,-3.9373,-3.9373,-3.9373,-3.9373,-3.9379,-3.9343,-3.9824,-4.0628,-4.0628,-4.0259,-3.9703,-3.9703,-3.9267,-3.858,-3.858,-3.8672,-3.8881,-3.8881,-3.9394,-3.9927,-3.9183,-3.9447,-3.9952,-3.9183,-3.9473,-3.991,-3.9174,-3.8971,-3.8802,-3.8058,-3.7889,-3.7686,-3.6931,-3.6761,-3.6535,-3.5735,-3.5013,-3.4472,-3.4472,-3.3897,-3.3389,-3.3389,-3.2747,-3.2293,-3.2259,-3.165,-3.1157,-3.1157,-3.0514,-2.977,-2.9044,-2.8976,-2.8942,-2.8942,-2.8213,-2.7756,-2.7756,-2.7097,-2.6691,-2.6674,-2.6228,-2.5979,-2.5979,-2.5449,-2.5202,-2.5202,-2.5906,-2.6226,-2.6258,-2.6365,-2.6417,-2.9146,0.0,-3.1689,-3.3664,-3.4831,-3.5878,-3.7404,-3.7734,-3.7853,-3.8302,-3.8033,-3.7674,-3.7494,-3.7105,-3.6656,-3.6207,-3.6148,-3.5998,-3.5579,-3.5519,-3.5519,-3.5519,-3.5519,0.0,0.0,0.0,0.0,-3.6118,-3.6926,-3.7404,-3.7404,-3.8691,-3.9373,-3.9373,-3.9373,-3.9373,-3.9373,-3.9373,-3.9373,-3.9409,-3.999,-3.9955,-3.9409,-3.999,-3.9955,-3.9373,-3.9373,-3.9589,-3.9844,-3.9844,-3.9693,-3.9551,-4.0112,-3.9946,-3.9392,-3.9976,-4.0301,-4.0297,-3.9206,-3.9015,-3.9121,-3.8408,-3.833,-3.8613,-3.8827,-3.9069,-3.9361,-3.9649,-3.974,-3.9571,-3.8802,-3.8633,-3.843,-3.7719,-3.7144,-3.6728,-3.6434,-3.5791,-3.525,-3.525,-3.5025,-3.4687,-3.4201,-3.3931,-3.3444,-3.2462,-3.1684,-3.119,-3.119,-3.0987,-3.0548,-2.9803,-2.9736,-2.9533,-2.9044,-2.8755,-2.8586,-2.8586,-2.8367,-2.8231,-2.8231,-2.8088,-2.7836,-2.7486,-2.7282,-2.703,-2.6659,-2.6916,-2.7013,-2.7045,-2.6659,-2.6501,-3.115,-3.2377,-3.3754,-3.5968,-3.6866,-3.7434,-3.8512,-3.8571,-3.8332,-3.8093,-3.7345,-3.6537,-3.5878,-3.522,-3.4861,-3.51,-3.513,-3.522,-3.5459,-3.5699,-3.5848,-3.5848,-3.6058,-3.6447,0.0,0.0,0.0,-3.6477,-3.7285,-3.7644,-3.7434,-3.8691,-3.9373,-3.9373,-3.9373,-3.9373,-3.9373,-3.9373,-3.9553,-3.9879,-4.0758,-4.069,-3.9884,-4.0758,-4.069,-3.9884,-4.02,-4.0516,-4.0789,-4.0789,-4.0789,-4.0823,-4.1062,-4.0913,-4.0538,-4.0798,-4.1146,-4.1271,-3.973,-3.9379,-3.9427,-3.8488,-3.8319,-3.857,-3.881,-3.9129,-3.942,-3.9952,-4.0113,-4.0011,-3.9537,-3.9402,-3.9208,-3.8464,-3.7922,-3.7438,-3.6931,-3.64,-3.596,-3.5667,-3.56,-3.543,-3.4979,-3.4675,-3.4066,-3.2882,-3.209,-3.1515,-3.1224,-3.119,-3.1021,-3.0548,-3.048,-3.0311,-2.9822,-2.9551,-2.9397,-2.9397,-2.9145,-2.901,-2.901,-2.901,-2.8848,-2.8496,-2.8496,-2.8213,-2.7664,-2.7891,-2.8042,-2.8021,-2.7479,-2.7337,-3.3095,-3.4174,-3.5312,-3.7793,-3.8452,-3.8601,-3.923,-3.8841,-3.8123,-3.7404,-3.6207,-3.51,0.0,0.0,-3.3604,-3.4294,-3.4503,-3.4771,-3.54,-3.6058,-3.6447,0.0,0.0,0.0,0.0,0.0,0.0,-3.6567,0.0,-3.8093,-3.7434,-3.8691,-3.9373,-3.9373,-3.9373,-3.9373,-3.9373,-3.9373,-3.9844,-4.0656,-4.1495,-4.1495,-4.0724,-4.156,-4.1495,-4.0826,-4.1593,-4.2426,-4.3229,-4.3229,-4.3229,-4.3139,-4.2395,-4.2078,-4.1949,-4.1164,-4.1429,-4.1949,-4.0538,-4.0478,-4.0758,-3.9342,-3.9318,-3.9785,-3.9144,-3.9487,-4.0096,-4.0113,-4.0113,-4.0113,-4.0113,-4.0113,-3.991,-3.9208,-3.9005,-3.8599,-3.7235,-3.6897,-3.6603,-3.5802,-3.5633,-3.56,-3.56,-3.5013,-3.4303,-3.3558,-3.2848,-3.2104,-3.1286,-3.1205,-3.119,-3.1151,-3.1171,-3.119,-3.119,-3.0548,-3.0176,-3.0176,-2.9517,-2.9111,-2.9111,-2.9111,-2.9111,-2.9111,-2.9111,-2.8837,-2.8267,-2.8966,-2.9296,-2.9235,-2.8772,-2.8865,-3.519,-3.6537,-3.7674,-3.8871,-3.917,-3.908,-3.8721,-3.8153,-3.7195,-3.5549,-3.3784,-3.2318,0.0,0.0,0.0,-3.2916,-3.4262,0.0,-3.5489,-3.5639,0.0,-3.5759,0.0,-3.6237,-3.6896,-3.6806,0.0,0.0,-3.7913,-3.8093,-3.7434,-3.8691,-3.9373,-3.9373,-3.9373,-3.9373,-3.9373,-3.9373,-3.9517,-3.9737,-4.0588,-4.0927,-4.0724,-4.0927,-4.1264,-4.1626,-4.1198,-4.1528,-4.2332,-4.2332,-4.2332,-4.2395,-4.28,-4.2986,-4.3017,-4.3439,-4.3739,-4.3794,-4.2772,-4.1797,-4.0881,-3.9989,-3.9792,-3.993,-3.9851,-3.9957,-4.0101,-4.0095,-4.0113,-4.0113,-4.0113,-4.0113,-4.0045,-3.9876,-3.9377,-3.8903,-3.8497,-3.799,-3.7415,-3.6637,-3.6028,-3.56,-3.56,-3.543,-3.5081,-3.4336,-3.4066,-3.3296,-3.1565,-3.1254,-3.1052,-3.058,-3.0918,-3.119,-3.119,-3.1021,-3.092,-3.092,-3.0717,-3.0615,-3.0615,-3.0615,-3.0615,-3.0615,-3.0615,-3.0557,-3.0421,-3.0589,-3.0456,-2.9992,-2.9422,-2.8996,-3.7315,-3.8512,-3.9379,-3.9738,-3.9409,-3.8721,-3.7764,-3.6806,-3.54,-3.2886,-3.121,0.0,-2.8577,0.0,0.0,0.0,0.0,0.0,-3.5429,-3.5759,-3.5938,0.0,-3.6417,0.0,-3.7285,-3.7584,-3.7793,0.0,-3.8182,-3.8242,-3.7853,-3.8841,-3.9373,-3.9373,-3.9373,-3.9373,-3.9373,-4.0165,-4.0343,-3.999,-4.1262,-4.1429,-4.0724,-4.1129,-4.1528,-4.1981,0.0,-4.2363,-4.3169,-4.3169,-4.3169,-4.3136,-4.3259,-4.3532,-4.3889,-4.4006,-4.427,-4.4525,-4.4035,-4.3293,-4.2324,-4.0911,-4.0686,-4.0915,-4.0663,-4.0801,-4.0996,-4.0661,-4.0561,-4.0493,-4.018,-4.0113,-4.0113,-4.0113,-3.9774,-3.9402,-3.9073,-3.8667,-3.8159,-3.7415,-3.6671,-3.6129,-3.6129,-3.5836,-3.5464,-3.5047,-3.4709,-3.3994,-3.2552,-3.1964,-3.1564,-3.1224,-3.118,-3.119,-3.119,-3.119,-3.119,-3.119,-3.119,-3.119,-3.119,-3.119,-3.119,-3.119,-3.119,-3.1072,-3.0818,-3.0818,-3.0621,-3.0309,-2.9673,-2.9361,-3.92,-4.0038,-4.0516,-4.0427,-3.9469,-3.8153,-3.6686,-3.519,-3.3216,-3.0011,0.0,-2.744,-2.577,-2.7051,-2.8816,-3.0253,0.0,-3.3873,-3.531,-3.5908,-3.6301,-3.6357,-3.7507,-3.8262,-3.8157,-3.8933,-3.9184,-3.8457,-3.8532,-3.8572,-3.8572,-3.9198,-3.9631,-3.9737,-3.9737,-3.9737,-3.9737,-4.1262,-4.1593,-4.0894,-4.2426,-4.2395,-4.1095,-4.1691,-4.2141,-4.2395,0.0,0.0,-4.4412,-4.4412,-4.4412,-4.4355,-4.3591,-4.3827,-4.4497,-4.3739,-4.3948,-4.4615,-4.4615,-4.4615,-4.4254,-4.2174,-4.1948,-4.2411,-4.1711,-4.196,-4.2286,-4.1542,-4.1271,-4.1068,-4.0417,-4.018,-4.0113,-4.0113,-4.0113,-3.991,-3.9276,-3.9073,-3.8802,-3.8159,-3.7449,-3.6965,-3.6965,-3.6299,-3.5769,-3.5769,-3.5115,-3.4454,-3.3948,-3.3045,-3.2442,-3.2326,-3.1827,-3.1495,-3.1495,-3.1495,-3.1495,-3.1495,-3.1495,-3.1427,-3.1326,-3.1326,-3.1292,-3.119,-3.119,-3.0938,-3.0414,-3.0414,-3.0393,-3.0309,-2.9761,-2.9761,-4.0008,-4.0696,-4.1085,-4.0546,-3.9828,-3.8601,-3.6237,-3.3784,0.0,0.0,-2.6093,-2.4537,-2.4724,-2.5974,-2.7709,-3.0103,0.0,0.0,0.0,0.0,-3.504,0.0,0.0,0.0,0.0,0.0,0.0,0.0,0.0,-3.9468,-3.9468,-4.0115,-4.0792,-4.1526,-4.1559,-4.1559,-4.1559,-4.1853,-4.1917,-4.1756,-4.2109,-4.2458,-4.28,-4.2269,-4.28,-4.4121,-4.3562,0.0,-4.3532,-4.3532,-4.3532,-4.3502,-4.3383,-4.3827,-4.4587,-4.4412,-4.4468,-4.4615,-4.4615,-4.4615,-4.4525,-4.4102,-4.4068,-4.4047,-4.3244,-4.3124,-4.3064,-4.232,-4.1677,-4.117,-4.1035,-4.0561,-4.0113,-4.0113,-4.0113,-4.0079,-3.9943,-3.9436,-3.8937,-3.8836,-3.8193,-3.7719,-3.7719,-3.7077,-3.6569,-3.6569,-3.5926,-3.5374,-3.5284,-3.4069,-3.3018,-3.253,-3.2811,-3.3017,-3.3017,-3.3017,-3.3017,-3.3017,-3.3017,-3.2747,-3.2124,-3.2124,-3.1819,-3.119,-3.119,-3.1151,-3.1052,-3.1052,-3.0797,-3.0309,-3.0204,-2.9935,-4.0816,-4.1145,-4.1294,-4.0995,-3.9379,-3.7195,-3.4562,0.0,0.0,0.0,-2.4021,-2.3011,-2.2631,-2.4507,0.0,-2.8218,0.0,0.0,0.0,0.0,0.0,0.0,0.0,0.0,0.0,0.0,0.0,0.0,0.0,-3.9538,-3.9538,-4.0297,-4.1129,-4.1949,-4.1981,-4.1981,-4.1981,-4.2458,-4.2458,-4.2013,-4.2458,-4.2645,-4.2614,-4.2205,-4.2707,-4.3919,-4.3502,0.0,-4.3977,-4.3977,-4.3977,-4.3977,-4.3977,-4.4241,-4.4615,-4.4615,-4.4615,-4.4615,-4.4615,-4.4615,-4.4615,-4.4615,-4.4615,-4.4547,-4.4147,-4.4012,-4.3842,-4.3098,-4.2625,-4.2252,-4.188,-4.1238,-4.0663,-4.0663,-4.0383,-4.0113,-4.0113,-3.9842,-3.9571,-3.9571,-3.8971,-3.8464,-3.8464,-3.7855,-3.7246,-3.6863,-3.6468,-3.5948,-3.5188,-3.4474,-3.3896,-3.3573,-3.3477,-3.3423,-3.3423,-3.3423,-3.3423,-3.3423,-3.3423,-3.3254,-3.2882,-3.2848,-3.2713,-3.2341,-3.2341,-3.2341,-3.2341,-3.2341,-3.2218,-3.1913,-3.1913,-3.1753,-4.1145,-4.1265,-4.1392,-4.1205,-3.8901,-3.5938,-3.3155,-3.0253,0.0,0.0,-2.2343,-2.1774,-2.0887,0.0,-2.5166,0.0,-2.8427,-3.0731,0.0,0.0,0.0,0.0,0.0,0.0,0.0,0.0,0.0,0.0,0.0,0.0,-3.995,-4.0619,-4.1363,-4.2269,-4.2109,-4.1981,-4.1981,-4.2862,-4.2956,-4.23,-4.3169,-4.3229,-4.2552,-4.2552,-4.2923,-4.3591,-4.3591,0.0,0.0,-4.4327,-4.4327,-4.4327,-4.4327,-4.444,-4.4615,-4.4615,-4.4615,-4.4615,-4.4615,-4.4615,-4.4615,-4.4615,-4.4615,-4.4615,-4.4615,-4.4615,-4.4479,-4.3842,-4.3511,-4.3274,-4.2692,-4.1982,-4.1407,-4.1238,-4.0629,-4.0113,-4.0113,-4.0113,-4.0113,-4.0113,-3.9639,-3.9242,-3.9242,-3.8633,-3.7922,-3.7371,-3.7134,-3.6542,-3.5243,-3.5096,-3.4995,-3.4766,-3.4093,-3.3669,-3.3669,-3.3777,-3.3875,-3.3875,-3.3875,-3.3795,-3.366,-3.366,-3.3558,-3.3423,-3.3423,-3.3423,-3.3423,-3.3241,-3.3262,-3.3368,-3.3113,-3.3036,-4.0337,-4.0935,-4.1235,-4.0636,-3.8901,-3.6477,-3.3245,0.0,0.0,-2.3272,-2.1235,-2.0109,-2.0598,0.0,0.0,0.0,0.0,-2.9202,0.0,0.0,0.0,0.0,0.0,0.0,0.0,0.0,0.0,0.0,0.0,0.0,-4.169,-4.182,-4.23,-4.3139,-4.2426,-4.1981,-4.1981,-4.2862,-4.3229,-4.3169,-4.4064,-4.444,-4.4355,-4.4355,-4.4412,-4.4468,-4.4468,0.0,0.0,-4.3413,-4.3413,-4.3413,-4.3413,-4.3919,-4.4615,-4.4615,-4.4615,-4.4615,-4.4615,-4.4615,-4.4615,-4.4615,-4.4615,-4.4615,-4.4615,-4.4615,-4.4581,-4.4513,-4.3944,-4.3375,-4.3308,-4.276,-4.2016,-4.1373,-4.0629,-4.0113,-4.0113,-4.0113,-4.0113,-4.0113,-4.0045,-4.0011,-4.0011,-3.9402,-3.887,-3.8802,-3.8227,-3.7493,-3.6726,-3.6601,-3.632,-3.5566,-3.4885,-3.449,-3.449,-3.5069,-3.5397,-3.5397,-3.5397,-3.5115,-3.4438,-3.4404,-3.4066,-3.3423,-3.3423,-3.3423,-3.3423,-3.2774,-3.2796,-3.3347,-3.2154,-3.1922,-3.9619,-4.0277,-4.0636,-3.9978,-3.7704,-3.4891,-3.1958,0.0,-2.4777,-2.2532,-2.0816,-1.9798,-2.0049,-2.0647,-2.1784,0.0,0.0,0.0,-2.9502,0.0,0.0,0.0,0.0,0.0,0.0,0.0,0.0,0.0,0.0,0.0,-4.1131,-4.1198,-4.1593,-4.2489,-4.2205,-4.1981,-4.1981,-4.2862,-4.3323,-4.329,-4.4179,-4.4615,-4.4615,-4.4615,-4.4615,-4.4615,-4.4615,0.0,0.0,-4.4064,-4.4064,-4.4035,-4.3502,-4.3827,-4.4468,-4.341,-4.335,-4.3798,-4.3798,-4.3798,-4.3919,-4.4412,-4.4615,-4.4615,-4.4615,-4.4615,-4.4615,-4.4615,-4.4378,-4.4113,-4.4113,-4.3538,-4.2794,-4.2049,-4.1305,-4.0764,-4.0764,-4.0417,-4.0113,-4.0113,-4.0113,-4.0113,-4.0113,-3.9876,-3.9537,-3.9073,-3.8734,-3.814,-3.6944,-3.6819,-3.6348,-3.5202,-3.5153,-3.5191,-3.5191,-3.543,-3.56,-3.56,-3.56,-3.5464,-3.5182,-3.5182,-3.5025,-3.4721,-3.4721,-3.4532,-3.4139,-3.3852,-3.3641,-3.3499,-3.299,-3.2866,-3.8542,-3.917,-3.9439,-3.917,-3.6626,-3.3515,0.0,-2.732,-2.4007,-2.1844,-2.0516,-1.9708,-1.9708,-2.0258,-2.1156,-2.2493,0.0,-2.4896,-2.7794,0.0,0.0,0.0,0.0,0.0,0.0,0.0,0.0,0.0,0.0,0.0,-4.0274,-4.0309,-4.0724,-4.1593,-4.1362,-4.1229,-4.1229,-4.2363,-4.2925,-4.2956,-4.4064,-4.4615,-4.4615,-4.4615,-4.4615,-4.4615,0.0,0.0,0.0,-4.4615,-4.4615,-4.4559,-4.3919,-4.4064,-4.444,-4.3229,-4.3169,-4.368,-4.368,-4.368,-4.3802,-4.4412,-4.4615,-4.4615,-4.4615,-4.4615,-4.4615,-4.4615,-4.4615,-4.4615,-4.4615,-4.4012,-4.3274,-4.276,-4.2049,-4.1474,-4.1271,-4.0798,-4.0383,-4.0146,-4.0113,-4.0113,-4.0113,-3.9901,-3.9623,-3.9352,-3.9101,-3.8598,-3.7578,-3.7453,-3.7011,-3.5778,-3.6028,-3.5935,-3.5062,-3.5362,-3.5532,-3.5316,-3.5476,-3.56,-3.56,-3.56,-3.56,-3.56,-3.56,-3.5293,-3.4616,-3.439,-3.4046,-3.3598,-3.3182,-3.2971,-3.6896,-3.7434,-3.7584,-3.8242,-3.5938,-3.2826,-3.022,-2.7021,-2.3857,-2.1256,-2.0168,-1.9708,-1.9708,-2.0258,-2.1156,-2.2493,-2.3759,0.0,-2.9086,0.0,0.0,0.0,0.0,0.0,0.0,0.0,0.0,0.0,0.0,0.0,-3.9409,-3.9409,-3.9809,-4.069,-3.9884,-3.9409,-3.9409,-4.1162,-4.2013,-4.2013,-4.3768,-4.4615,-4.4615,-4.4615,-4.4615,0.0,0.0,0.0,0.0,-4.4615,-4.4615,-4.4615,-4.4615,-4.4615,-4.4615,-4.4587,-4.4587,-4.4587,-4.4587,-4.4587,-4.4587,-4.4615,-4.4615,-4.4615,-4.4615,-4.4615,-4.4615,-4.4615,-4.4615,-4.4615,-4.4615,-4.4012,-4.3375,-4.3375,-4.2828,-4.2083,-4.1373,-4.1204,-4.0967,-4.0248,-4.0113,-4.0113,-4.0113,-3.942,-3.9183,-3.9978,-3.942,-3.8944,-3.8974,-3.8971,-3.87,-3.7966,-3.7865,-3.671,-3.3848,-3.484,-3.5316,-3.4664,-3.5214,-3.56,-3.56,-3.56,-3.56,-3.56,-3.56,-3.5293,-3.4616,-3.3921,-3.3624,-3.3572,-3.2188,-3.1539,-3.3185,-3.4382,-3.5011,-3.3395,-3.1898,-3.0133,-2.747,-2.5016,-2.2802,-2.1047,-2.0168,-1.9708,-1.9708,-1.9869,-2.0737,-2.2951,-2.364,0.0,0.0,0.0,0.0,0.0,0.0,0.0,0.0,0.0,0.0,0.0,0.0,0.0,-3.9373,-3.9373,-3.9517,-3.9809,-3.9553,-3.9373,-3.9373,-4.055,-4.1098,-4.1129,-4.2268,-4.3139,-4.371,-4.371,0.0,0.0,0.0,0.0,0.0,-4.4615,-4.4615,-4.4559,-4.3948,-4.4064,-4.444,-4.3259,-4.3199,-4.371,-4.371,-4.371,-4.3831,-4.4412,-4.4615,-4.4615,-4.4615,-4.4615,-4.4615,-4.4615,-4.4615,-4.4615,-4.4615,-4.4384,-4.4215,-4.4215,-4.3606,-4.2997,-4.2733,-4.1914,-4.1136,-4.0899,-4.0426,-4.0113,-4.0113,-3.9901,-3.9825,-4.0054,-3.9876,-3.9724,-3.9749,-3.9774,-3.9445,-3.8734,-3.8633,-3.7879,-3.5928,-3.6192,-3.5877,-3.4697,-3.5247,-3.5385,-3.4958,-3.5362,-3.56,-3.56,-3.56,-3.5293,-3.4616,-3.3953,-3.3103,-3.216,-3.171,-3.1511,-3.0644,-3.2048,-3.2647,-3.124,-3.0043,-2.8517,-2.583,-2.3909,-2.2254,-2.0647,-1.9989,-1.9708,-1.9708,-1.9899,-2.0617,-2.2233,-2.2921,0.0,0.0,0.0,0.0,0.0,0.0,0.0,0.0,0.0,0.0,0.0,0.0,0.0,-3.9373,-3.9373,-3.9373,-3.9373,-3.9373,-3.9373,-3.9373,-4.0274,-4.069,-4.0724,-4.156,-4.2458,-4.3323,-4.3323,0.0,0.0,0.0,0.0,0.0,-4.4615,-4.4615,-4.4559,-4.4006,-4.4121,-4.4468,-4.338,-4.332,-4.3768,-4.3768,-4.3768,-4.3889,-4.4412,-4.4384,-4.4093,-4.4093,-4.4355,-4.4615,-4.4615,-4.4615,-4.4615,-4.4615,-4.4615,-4.4615,-4.4615,-4.4215,-4.3775,-4.3443,-4.2692,-4.1948,-4.1677,-4.1001,-4.0519,-4.0519,-4.0019,-3.974,-4.0028,-3.985,-3.9773,-4.0062,-4.0113,-3.991,-3.9469,-3.9436,-3.8903,-3.7743,-3.7347,-3.6683,-3.5489,-3.5813,-3.5837,-3.5416,-3.5274,-3.5333,-3.5603,-3.5091,-3.4736,-3.4616,-3.3675,-3.2625,-3.1511,-3.1511,-3.1511,0.0,-3.0013,-3.0223,-3.0673,-2.9478,-2.75,-2.4903,-2.34,0.0,-2.0097,-1.9708,-1.9738,-1.9828,-2.0258,-2.0718,-2.0987,0.0,0.0,0.0,0.0,0.0,0.0,0.0,0.0,0.0,0.0,0.0,0.0,0.0,0.0,-3.9373,-3.9373,-3.9373,-3.9373,-3.9373,-3.9373,-3.9373,-4.0205,-4.0588,-4.0622,-4.1429,-4.2269,-4.3108,-4.3108,0.0,0.0,0.0,0.0,0.0,-4.4468,-4.453,-4.4497,-4.444,-4.444,-4.4497,-4.444,-4.4412,-4.4412,-4.4412,-4.4412,-4.4412,-4.4412,-4.3889,-4.3199,-4.3199,-4.3768,-4.4412,-4.4468,-4.444,-4.4412,-4.4412,-4.4412,-4.444,-4.4468,-4.453,-4.4328,-4.3612,-4.3443,-4.32,-4.2489,-4.1779,-4.1271,-4.1204,-4.0014,-3.9302,-4.0011,-3.9447,-3.9262,-3.9978,-4.0113,-4.0087,-4.0003,-4.0003,-3.9733,-3.9032,-3.8372,-3.7623,-3.6835,-3.6818,-3.6741,-3.6638,-3.5441,-3.5033,-3.5603,-3.4387,-3.3975,-3.4537,-3.3335,-3.2308,-3.1511,-3.16,-3.163,-2.3961,0.0,-2.5681,-2.4358,-2.4029,-2.3661,0.0,-2.1376,-2.0887,-1.9899,-1.9708,-2.0007,-2.1036,-2.0498,-2.0917,-2.3969,0.0,0.0,0.0,0.0,0.0,0.0,0.0,0.0,0.0,0.0,0.0,0.0,0.0,-3.9373,-3.9373,-3.9373,-3.9373,-3.9373,-3.9373,-3.9373,-3.9373,-3.9595,-3.9702,-3.9702,-3.9915,-4.0481,-4.1297,-4.1297,0.0,0.0,0.0,0.0,-4.2676,-4.332,-4.3621,-4.3532,-4.2862,-4.3047,-4.3532,-4.2862,-4.2614,-4.2614,-4.2614,-4.2614,-4.2614,-4.2614,-4.2489,-4.23,-4.23,-4.2458,-4.2738,-4.3443,-4.3139,-4.2614,-4.2614,-4.2614,-4.2769,-4.3472,-4.3621,-4.3735,-4.4204,-4.3842,-4.3341,-4.32,-4.2557,-4.1847,-4.1305,-4.0905,-4.0516,-4.0155,-3.9927,-3.9901,-4.0087,-4.0113,-3.9876,-3.9262,-3.9183,-3.9116,-3.895,-3.8807,-3.8185,-3.6868,-3.7302,-3.7136,-3.6007,-3.6104,-3.6013,-3.5621,-3.5267,-3.4673,-3.3751,-3.3983,-3.3167,-3.154,-3.2557,-3.2766,-2.1145,-2.2921,-2.4365,-2.3289,-2.331,-2.3221,-2.1904,-2.1156,-2.0509,-1.9857,-1.9708,-2.0037,-2.1066,-2.0887,0.0,0.0,-2.4717,0.0,0.0,0.0,0.0,0.0,0.0,0.0,0.0,0.0,0.0,0.0,0.0,-3.9373,-3.9373,-3.9373,-3.9373,-3.9373,-3.9373,-3.9373,-3.9373,-3.9373,-3.9373,-3.9373,-3.9373,-3.9849,-4.069,-4.069,-4.1164,0.0,0.0,0.0,-4.2046,-4.252,-4.2707,-4.2645,-4.2173,-4.23,-4.2645,-4.2173,-4.1981,-4.1981,-4.1981,-4.1981,-4.1917,-4.1528,-4.1396,-4.1396,-4.1396,-4.1129,-4.1062,-4.2363,-4.2363,-4.1981,-4.1981,-4.1981,-4.2141,-4.2583,-4.2707,-4.2831,-4.332,-4.3049,-4.2785,-4.2785,-4.2162,-4.1535,-4.1111,-4.0781,-4.053,-4.0521,-4.0207,-4.0139,-4.0569,-4.0316,-3.9927,-3.9506,-3.9129,-3.8908,-3.8908,-3.8923,-3.8764,-3.8329,-3.8329,-3.7996,-3.7189,-3.6538,-3.5693,-3.4645,-3.5268,-3.4914,-3.3509,-3.4168,-3.3779,-3.2467,-3.3155,-3.3305,-2.0067,-2.2323,-2.4485,-2.3977,-2.4066,-2.3947,-2.2703,-2.1515,-2.0557,0.0,0.0,0.0,0.0,-2.1605,0.0,0.0,0.0,0.0,0.0,0.0,0.0,0.0,0.0,0.0,0.0,0.0,0.0,0.0,0.0,-3.9373,-3.9373,-3.9373,-3.9373,-3.9373,-3.9373,-3.9373,-3.9373,-3.9373,-3.9373,-3.9373,-3.9373,-3.9809,-4.0485,-4.0485,-4.0894,0.0,0.0,0.0,-4.1593,-4.1723,-4.1788,-4.1788,-4.1657,-4.1658,-4.1788,-4.1626,-4.1593,-4.1593,-4.1593,-4.1593,-4.1462,-4.0724,-4.0485,-4.0485,-4.0485,-3.999,-3.9702,-4.1196,-4.1593,-4.1593,-4.1593,-4.1593,-4.1657,-4.1756,-4.1788,-4.182,-4.1949,-4.1981,-4.1981,-4.1981,-4.1502,-4.1023,-4.0927,-4.0385,-4.0151,-4.0707,-4.03,-4.0188,-4.105,-4.0542,-4.007,-4.0095,-3.9382,-3.8854,-3.8745,-3.8745,-3.9022,-3.9722,-3.9315,-3.8962,-3.8745,-3.6809,-3.5155,-3.3845,-3.4984,-3.4922,-3.3634,-3.4332,-3.4272,-3.3484,-3.3694,-3.3754,-2.1774,-2.34,-2.3947,-2.1156,-2.1744,-2.2622,-2.1306,-2.0838,-2.0658,0.0,0.0,0.0,0.0,-2.3251,-2.4268,0.0,0.0,0.0,0.0,0.0,0.0,0.0,0.0,0.0,0.0,0.0,0.0,0.0,0.0,0.0,-3.9373,-3.9373,-3.9373,-3.9373,-3.9373,-3.9373,-3.9373,-3.9373,-3.9373,-3.9373,-3.9373,-3.9481,-3.9625,-3.9625,-3.9666,0.0,0.0,-4.0481,-3.9879,-4.0588,-4.0927,-4.0826,-4.0095,-4.0239,-4.0826,-4.006,-3.9809,-3.9809,-3.9809,-3.9809,-3.9773,-3.9631,-3.9625,-3.9625,-3.9625,-3.9517,-3.9445,-3.9702,-3.9809,-3.9809,-3.9809,-3.9809,-3.999,-4.0724,-4.0927,-4.1098,-4.182,-4.1981,-4.1981,-4.1981,-4.1917,-4.163,-4.1023,-4.0831,-4.0574,-4.0059,-3.9897,-4.0102,-4.0918,-4.0403,-3.9968,-4.0083,-3.9385,-3.8635,-3.8019,-3.7994,-3.8019,-3.8165,-3.9236,-3.9348,-3.8019,-3.699,-3.6044,-3.519,-3.5415,-3.5145,-3.4354,-3.5018,-3.4718,-3.3514,-3.4651,-3.4891,-2.0816,-2.2313,-2.3221,-2.1714,-2.3092,-2.4537,-2.358,-2.2802,-2.2263,0.0,0.0,0.0,0.0,0.0,-2.6866,-3.0163,0.0,0.0,0.0,0.0,0.0,0.0,0.0,0.0,0.0,0.0,0.0,0.0,0.0,0.0,-3.9373,-3.9373,-3.9373,-3.9373,-3.9373,-3.9373,-3.9373,-3.9373,-3.9373,-3.9373,-3.9373,-3.9373,-3.9373,-3.9373,-3.9373,-3.9409,0.0,-3.9773,-3.9409,-3.9844,-3.999,-3.9955,-3.9553,-3.9631,-3.9955,-3.9553,-3.9373,-3.9373,-3.9373,-3.9373,-3.9373,-3.9373,-3.9373,-3.9373,-3.9373,-3.9373,-3.9373,-3.9373,-3.9373,-3.9373,-3.9373,-3.9373,-3.9517,-3.9884,-3.999,-4.013,-4.0516,-4.0619,-4.0619,-4.0619,-4.0619,-4.0492,-4.0149,-4.0087,-4.0132,-4.0253,-3.9973,-4.0008,-4.0845,-4.0289,-4.0044,-4.0532,-3.9924,-3.913,-3.8456,-3.8395,-3.8235,-3.7854,-3.8859,-3.8772,-3.7203,-3.7203,-3.6692,-3.5522,-3.5519,-3.534,-3.504,-3.534,-3.519,-3.4592,-3.522,-3.534,-2.0546,-2.1744,-2.3002,-2.3302,-2.4769,-2.6123,-2.6063,-2.5046,-2.4208,-2.4657,0.0,0.0,0.0,-2.7769,0.0,0.0,0.0,0.0,0.0,0.0,0.0,0.0,0.0,0.0,0.0,0.0,0.0,0.0,0.0,0.0,-3.896,-3.896,-3.896,-3.896,-3.896,-3.896,-3.896,-3.896,-3.9074,-3.9373,-3.9373,-3.9373,-3.9373,-3.9373,-3.9373,-3.9373,-3.9373,-3.9373,-3.9373,-3.9373,-3.9373,-3.9373,-3.9373,-3.9373,-3.9373,-3.9373,-3.9373,-3.9373,-3.9373,-3.9373,-3.9373,-3.9373,-3.9373,-3.9373,-3.9373,-3.9373,-3.9373,-3.9373,-3.9373,-3.9373,-3.9373,-3.9373,-3.9373,-3.9373,-3.9373,-3.9373,-3.9373,-3.9373,-3.9373,-3.9373,-3.9373,-3.9373,-3.9373,-3.9373,-3.9631,-4.0309,-3.9914,-3.988,-4.0736,-4.023,-4.0096,-4.0909,-4.0331,-3.9586,-3.8893,-3.8521,-3.8083,-3.7548,-3.823,-3.8015,-3.6661,-3.7174,-3.6874,-3.5522,-3.5519,-3.5519,-3.5519,-3.5519,-3.5519,-3.5519,-3.5519,-3.5519,-2.2981,-2.343,-2.3819,-2.5076,-2.5053,-2.5202,-2.7046,-2.6422,-2.6004,-2.7859,0.0,0.0,0.0,-3.0941,0.0,0.0,0.0,0.0,0.0,0.0,0.0,0.0,0.0,0.0,0.0,0.0,0.0,0.0,0.0,0.0,-3.7584,-3.7554,-3.7554,-3.7554,-3.7554,-3.7554,-3.7554,-3.7554,-3.8182,-3.9373,-3.9373,-3.9373,-3.9373,-3.9373,-3.9373,-3.9373,-3.9373,-3.9373,-3.9373,-3.9373,-3.9373,-3.9373,-3.9373,-3.9373,-3.9373,-3.9373,-3.9373,-3.9373,-3.9373,-3.9373,-3.9373,-3.9373,-3.9373,-3.9373,-3.9373,-3.9373,-3.9373,-3.9373,-3.9373,-3.9373,-3.9373,-3.9373,-3.9373,-3.9373,-3.9373,-3.9373,-3.9373,-3.9373,-3.9373,-3.9373,-3.9373,-3.9373,-3.9373,-3.9373,-3.9409,-3.9481,-3.9451,-3.9718,-4.0594,-4.0073,-3.9935,-4.08,-4.0256,-3.9501,-3.8711,-3.744,-3.6646,-3.6616,-3.74,-3.7469,-3.663,-3.6661,-3.6321,-3.5519,-3.5519,-3.5519,-3.5519,-3.5519,-3.5519,-3.5519,-3.5519,-3.5519,-2.1665,-2.2682,-2.3819,-2.4754,-2.5734,-2.6752,-2.7949,-2.8427,-2.9116,-3.0702,-3.0821,0.0,0.0,0.0,0.0,0.0,0.0,0.0,0.0,0.0,0.0,0.0,0.0,0.0,0.0,0.0,0.0,0.0,0.0,0.0,0.0,-3.7404,0.0,-3.7404,-3.7404,-3.7404,-3.7404,-3.7404,-3.7674,-3.8182,-3.8182,-3.8392,-3.8781,-3.8781,-3.902,-3.9373,-3.9373,-3.9373,-3.9373,-3.9373,-3.9373,-3.9373,-3.9373,-3.9373,-3.9373,-3.9373,-3.9373,-3.9373,-3.9373,-3.9373,-3.9373,-3.9373,-3.9373,-3.9373,-3.9373,-3.9373,-3.9373,-3.9373,-3.9373,-3.9373,-3.9373,-3.9373,-3.9373,-3.9373,-3.9373,-3.9373,-3.9373,-3.9373,-3.9373,-3.9373,-3.9373,-3.9373,-3.9373,-3.9373,-3.9373,-3.9373,-3.9373,-3.9517,-3.9849,-3.9637,-3.9803,-4.0687,-4.0159,-3.9591,-3.9296,-3.7946,-3.6896,-3.6507,-3.6847,-3.6722,-3.5943,-3.6353,-3.6259,-3.5489,-3.5519,-3.5519,-3.5519,-3.5519,-3.5519,-3.5519,-3.5519,-3.5519,-2.1126,-2.2143,-2.352,-2.4395,-2.5944,-2.7735,-2.9445,-3.0522,-3.1569,-3.3125,-3.3125,-3.2946,-3.3365,0.0,0.0,0.0,0.0,0.0,0.0,0.0,0.0,0.0,0.0,0.0,0.0,0.0,0.0,0.0,0.0,0.0,0.0,-3.6806,0.0,0.0,-3.6806,-3.6806,-3.6806,-3.6806,-3.6806,-3.6806,-3.6806,-3.7375,-3.8392,-3.8392,-3.8781,-3.9373,-3.9373,-3.9373,-3.9373,-3.9373,-3.9373,-3.9373,-3.9373,-3.9373,-3.9373,-3.9373,-3.9373,-3.9373,-3.9373,-3.9373,-3.9373,-3.9373,-3.9373,-3.9373,-3.9373,-3.9373,-3.9373,-3.9373,-3.9373,-3.9373,-3.9373,-3.9373,-3.9373,-3.9373,-3.9373,-3.9373,-3.9373,-3.9373,-3.9373,-3.9373,-3.9373,-3.9373,-3.9373,-3.9373,-3.9373,-3.9373,-3.9373,-3.9373,-3.9373,-3.9373,-3.9631,-4.0239,-3.991,-3.9634,-3.9634,-3.8443,-3.7554,-3.7105,-3.6947,-3.6464,-3.5552,-3.5975,-3.6038,-3.5489,-3.5519,-3.5519,-3.5519,-3.5519,-3.5519,-3.5519,-3.5519,-3.5519,-2.2024,-2.2173,-2.3032,-2.4276,-2.5644,-2.7679,-3.1629,-3.2497,-3.3095,-3.51,-3.4442,-3.3933,-3.525,0.0,0.0,0.0,0.0,0.0,0.0,0.0,0.0,0.0,0.0,0.0,0.0,0.0,0.0,0.0,0.0,0.0,0.0,0.0,0.0,0.0,-3.5519,-3.5519,-3.5519,-3.5519,-3.5519,-3.5519,-3.5519,-3.6507,-3.8362,-3.8362,-3.8751,-3.9409,-3.9409,-3.9373,-3.9373,-3.9373,-3.9373,-3.9373,-3.9373,-3.9373,-3.9373,-3.9373,-3.9373,-3.9373,-3.9373,-3.9373,-3.9373,-3.9373,-3.9373,-3.9373,-3.9373,-3.9373,-3.9373,-3.9373,-3.9373,-3.9373,-3.9373,-3.9373,-3.9373,-3.9373,-3.9373,-3.9373,-3.9373,-3.9373,-3.9373,-3.9373,-3.9373,-3.9373,-3.9373,-3.9373,-3.9373,-3.9373,-3.9373,-3.9373,-3.9373,-3.9373,-3.9373,-3.9373,-3.9373,-3.9373,-3.9373,-3.8781,-3.8392,-3.8392,-3.7793,-3.6836,-3.5579,-3.5519,-3.5519,-3.5519,-3.5519,-3.5519,-3.5519,-3.5519,-3.5519,-3.5519,-3.5519,-3.5519,-2.1365,-2.2482,0.0,-2.5083,0.0,0.0,0.0,-3.3215,0.0,0.0,-3.5878,-3.5429,-3.4923,0.0,0.0,0.0,0.0,0.0,0.0,0.0,0.0,0.0,0.0,0.0,0.0,0.0,0.0,0.0,0.0,0.0,0.0,0.0,0.0,0.0,-3.5519,-3.5519,-3.5519,-3.5519,-3.5519,-3.5519,-3.5519,-3.6058,-3.7045,-3.7045,-3.7404,-3.8003,-3.8003,-3.8272,-3.8721,-3.923,-3.9373,-3.9373,-3.9373,-3.9373,-3.9373,-3.9373,-3.9373,-3.9373,-3.9373,-3.9373,-3.9373,-3.9373,-3.9373,-3.9373,-3.9373,-3.9373,-3.9373,-3.9373,-3.9373,-3.9373,-3.9373,-3.9373,-3.9373,-3.9373,-3.9373,-3.9373,-3.9373,-3.9373,-3.9373,-3.9373,-3.9373,-3.9373,-3.9373,-3.9373,-3.9373,-3.9373,-3.9373,-3.9373,-3.9373,-3.9373,-3.9373,-3.9373,-3.9373,-3.9373,-3.9373,-3.923,-3.8901,-3.8422,-3.8212,-3.7734,-3.6866,-3.6836,-3.6656,-3.6207,-3.6178,-3.5968,-3.5519,-3.5519,-3.5519,-3.5519,-3.5519,-3.5519,-2.2332,-2.3588,0.0,-2.6811,-2.9175,-3.157,-3.3455,0.0,0.0,0.0,0.0,-3.5642,-3.5372,0.0,0.0,0.0,0.0,0.0,0.0,0.0,0.0,0.0,0.0,0.0,0.0,0.0,0.0,0.0,0.0,0.0,0.0,0.0,0.0,0.0,-3.5519,-3.5519,-3.5519,-3.5519,-3.5519,-3.5519,-3.5519,-3.5699,-3.6118,-3.6357,-3.6836,-3.7404,-3.7404,-3.7644,-3.8063,-3.8721,-3.902,-3.905,-3.932,-3.9373,-3.9373,-3.9373,-3.9373,-3.9373,-3.9373,-3.9373,-3.9373,-3.9373,-3.9373,-3.9373,-3.9373,-3.9373,-3.9373,-3.9373,-3.9373,-3.9373,-3.9373,-3.9373,-3.9373,-3.9373,-3.9373,-3.9373,-3.9373,-3.9373,-3.9373,-3.9373,-3.9373,-3.9373,-3.9373,-3.9373,-3.9373,-3.9373,-3.9373,-3.9373,-3.9373,-3.9373,-3.9373,-3.9373,-3.9373,-3.9373,-3.9373,-3.9373,-3.923,-3.8811,-3.8811,-3.8631,-3.8212,-3.7704,-3.7225,-3.6866,-3.6866,-3.6656,-3.6267,-3.6267,-3.6267,-3.6267,-3.6267,-3.6267,-2.4096,-2.5053,-2.6333,-2.8963,-3.0223,0.0,-3.4024,-3.507,-3.5848,-3.6985,0.0,-3.4983,0.0,0.0,0.0,0.0,0.0,0.0,0.0,0.0,0.0,0.0,0.0,0.0,0.0,0.0,0.0,0.0,0.0,0.0,0.0,0.0,0.0,-3.5519,-3.5519,-3.5519,-3.5519,-3.5519,-3.5519,0.0,-3.5519,-3.5519,-3.5519,-3.6118,-3.6716,-3.7255,-3.7315,-3.7315,-3.7375,-3.8033,-3.8332,-3.8452,-3.908,-3.9379,-3.9373,-3.9373,-3.9373,-3.9373,-3.9373,-3.9373,-3.9373,-3.9373,-3.9373,-3.9373,-3.9373,-3.9373,-3.9373,-3.9373,-3.9373,-3.9373,-3.9373,-3.9373,-3.9373,-3.9373,-3.9373,-3.9373,-3.9373,-3.9373,-3.9373,-3.9373,-3.9373,-3.9373,-3.9373,-3.9373,-3.9373,-3.9373,-3.9373,-3.9373,-3.9373,-3.9373,-3.9373,-3.9373,-3.9373,-3.9373,-3.9373,-3.9373,-3.9373,-3.9373,-3.9373,-3.9373,-3.9373,-3.8242,-3.7554,-3.7494,-3.7494,-3.7464,-3.7404,-3.7404,-3.7404,-3.7404,-3.7404,-3.7404,-2.3032,-2.4717,0.0,0.0,-3.1658,-3.3903,-3.504,-3.54,-3.5579,-3.5848,0.0,0.0,0.0,0.0,0.0,0.0,0.0,0.0,0.0,0.0,0.0,0.0,0.0,0.0,0.0,0.0,0.0,0.0,0.0,0.0,0.0,0.0,0.0,-3.5519,-3.5519,-3.5519,-3.5519,-3.5519,-3.5519,0.0,-3.5519,-3.5519,-3.5519,-3.5639,-3.5789,-3.5938,-3.6477,-3.6686,-3.6716,-3.7375,-3.7913,-3.8392,-3.8542,-3.8931,-3.9373,-3.9373,-3.9373,-3.9373,-3.9373,-3.9373,-3.9373,-3.9373,-3.9373,-3.9373,-3.9373,-3.9373,-3.9373,-3.9373,-3.9373,-3.9373,-3.9373,-3.9373,-3.9373,-3.9373,-3.9373,-3.9373,-3.9373,-3.9373,-3.9373,-3.9373,-3.9373,-3.9373,-3.9373,-3.9373,-3.9373,-3.9373,-3.9373,-3.9373,-3.9373,-3.9373,-3.9373,-3.9373,-3.9373,-3.9373,-3.9373,-3.9373,-3.9373,-3.9373,-3.9373,-3.9373,-3.9373,-3.914,-3.8721,-3.8182,-3.8182,-3.7913,-3.7404,-3.7404,-3.7404,-3.7404,-3.7404,-3.7404,-2.414,0.0,0.0,-3.0791,0.0,-3.4593,-3.4921,-3.528,-3.5519,0.0,0.0,0.0,0.0,0.0,0.0,0.0,0.0,0.0,0.0,0.0,0.0,0.0,0.0,0.0,0.0,0.0,0.0,0.0,0.0,0.0,0.0,-3.5519,-3.5519,-3.5519,-3.5519,-3.5519,-3.5519,-3.5519,-3.5683,-3.6038,-3.5683,-3.5519,-3.5519,-3.5519,-3.5519,-3.5519,-3.5878,-3.6028,-3.6058,-3.6716,-3.7345,-3.7943,-3.8272,-3.8811,-3.9373,-3.9373,-3.9373,-3.9373,-3.9373,-3.9373,-3.9373,-3.9373,-3.9373,-3.9373,-3.9373,-3.9373,-3.9373,-3.9373,-3.9373,-3.9373,-3.9373,-3.9373,-3.9373,-3.9373,-3.9373,-3.9373,-3.9373,-3.9373,-3.9373,-3.9373,-3.9373,-3.9373,-3.9373,-3.9373,-3.9373,-3.9373,-3.9373,-3.9373,-3.9373,-3.9373,-3.9373,-3.9373,-3.9373,-3.9373,-3.9373,-3.9373,-3.9373,-3.9373,-3.9373,-3.9373,-3.9373,-3.9373,-3.926,-3.8901,-3.8871,-3.8721,-3.8362,-3.8362,-3.8362,-3.8362,-3.8362,-3.8362,-2.5129,0.0,-2.9385,-3.2677,-3.3814,0.0,-3.4324,-3.4831,-3.534,0.0,0.0,0.0,0.0,0.0,0.0,0.0,0.0,0.0,0.0,0.0,0.0,0.0,0.0,0.0,0.0,0.0,0.0,0.0,0.0,0.0,-3.5519,-3.5519,-3.5519,-3.5519,-3.5519,-3.5519,-3.5519,-3.5519,-3.5814,-3.6415,-3.5782,-3.5519,-3.5519,-3.5519,-3.5519,-3.5519,-3.5519,-3.5519,-3.5549,-3.6088,-3.6686,-3.7315,-3.7973,-3.8631,-3.926,-3.9379,-3.9373,-3.9373,-3.9373,-3.9373,-3.9373,-3.9373,-3.9373,-3.9373,-3.9373,-3.9373,-3.9373,-3.9373,-3.9373,-3.9373,-3.9373,-3.9373,-3.9373,-3.9373,-3.9373,-3.9373,-3.9373,-3.9373,-3.9373,-3.9373,-3.9373,-3.9373,-3.9373,-3.9373,-3.9373,-3.9373,-3.9373,-3.9373,-3.9373,-3.9373,-3.9373,-3.9373,-3.9373,-3.9373,-3.9373,-3.9373,-3.9373,-3.9373,-3.9373,-3.9373,-3.9373,-3.9373,-3.9373,-3.9373,-3.9373,-3.9373,-3.9373,-3.9373,-3.9373,-3.9373,-3.9373,-3.9373,-2.2793,0.0,-2.9385,0.0,-3.3125,-3.2916,0.0,0.0,0.0,0.0,0.0,0.0,0.0,0.0,0.0,0.0,0.0,0.0,0.0,0.0,0.0,0.0,0.0,0.0,0.0,0.0,0.0,0.0,0.0,0.0,-3.5519,-3.5519,-3.5519,-3.5519,-3.5519,-3.5519,-3.5519,-3.5519,-3.5554,-3.5651,-3.5554,-3.5519,-3.5519,-3.5519,-3.5519,-3.5519,-3.5519,-3.5519,-3.5519,-3.5609,-3.6028,-3.6656,-3.7285,-3.7943,-3.8601,-3.92,-3.9373,-3.9373,-3.9373,-3.9373,-3.9373,-3.9373,-3.9373,-3.9373,-3.9373,-3.9373,-3.9373,-3.9373,-3.9373,-3.9373,-3.9373,-3.9373,-3.9373,-3.9373,-3.9373,-3.9373,-3.9373,-3.9373,-3.9373,-3.9373,-3.9373,-3.9373,-3.9373,-3.9373,-3.9373,-3.9373,-3.9373,-3.9373,-3.9373,-3.9373,-3.9373,-3.9373,-3.9373,-3.9373,-3.9373,-3.9373,-3.9373,-3.9373,-3.9373,-3.9373,-3.9373,-3.9373,-3.9373,-3.9373,-3.9373,-3.9373,-3.9373,-3.9373,-3.9373,-3.9373,-3.9373,-3.9373,-2.459,-2.7016,-2.9295,0.0,-3.2736,-3.2587,-3.2886,0.0,0.0,0.0,0.0,0.0,0.0,0.0,0.0,0.0,0.0,0.0,0.0,0.0,0.0,0.0,0.0,0.0,0.0,0.0,0.0,0.0,0.0,-3.5519,-3.5519,-3.5519,-3.5519,-3.5519,-3.5519,-3.5519,-3.5519,-3.5519,-3.5519,-3.5489,-3.5911,-3.5879,-3.5519,-3.5519,-3.5519,-3.5519,-3.5519,-3.5519,-3.5519,-3.5519,-3.5908,-3.6537,-3.7165,-3.7823,-3.8482,-3.917,-3.9373,-3.9373,-3.9373,-3.9373,-3.9373,-3.9373,-3.9373,-3.9373,-3.9373,-3.9373,-3.9373,-3.9373,-3.9373,-3.9373,-3.9373,-3.9373,-3.9373,-3.9373,-3.9373,-3.9373,-3.9373,-3.9373,-3.9373,-3.9373,-3.9373,-3.9373,-3.9373,-3.9373,-3.9373,-3.9373,-3.9373,-3.9373,-3.9373,-3.9373,-3.9373,-3.9373,-3.9373,-3.9373,-3.9373,-3.9373,-3.9373,-3.9373,-3.9373,-3.9373,-3.9373,-3.9373,-3.9373,-3.9373,-3.9373,-3.9373,-3.9373,-3.9373,-3.9373,-3.9373,-3.9373,-3.9373,0.0,0.0,-2.8218,-3.0851,-3.1659,-3.1869,0.0,0.0,0.0,0.0,0.0,0.0,0.0,0.0,0.0,0.0,0.0,0.0,0.0,0.0,0.0,0.0,0.0,0.0,0.0,0.0,0.0,0.0,0.0,-3.5519,-3.5519,-3.5519,-3.5519,-3.5519,-3.5519,-3.5519,-3.5519,-3.5519,-3.5519,-3.5519,-3.607,-3.6038,-3.5519,-3.5519,-3.5519,-3.5519,-3.5519,-3.5519,-3.5519,-3.5519,-3.5789,-3.6297,-3.6926,-3.7554,-3.8212,-3.8901,-3.926,-3.9373,-3.9373,-3.9373,-3.9373,-3.9373,-3.9373,-3.9373,-3.9373,-3.9373,-3.9373,-3.9373,-3.9373,-3.9373,-3.9373,-3.9373,-3.9373,-3.9373,-3.9373,-3.9373,-3.9373,-3.9373,-3.9373,-3.9373,-3.9373,-3.9373,-3.9373,-3.9373,-3.9373,-3.9373,-3.9373,-3.9373,-3.9373,-3.9373,-3.9373,-3.9373,-3.9373,-3.9373,-3.9373,-3.9373,-3.9373,-3.9373,-3.9373,-3.9373,-3.9373,-3.9373,-3.9373,-3.9373,-3.9373,-3.9373,-3.9373,-3.9373,-3.9373,-3.9373,-3.9373,-3.9373,0.0,-2.3849,0.0,-2.8128,-2.9265,0.0,0.0,0.0,0.0,0.0,0.0,0.0,0.0,0.0,0.0,0.0,0.0,0.0,0.0,0.0,0.0,0.0,0.0,0.0,0.0,0.0,0.0,0.0,0.0,-3.5519,-3.5519,-3.5519,-3.5519,-3.5519,-3.5519,-3.5519,-3.5519,-3.5519,-3.5519,-3.5519,-3.5522,-3.5522,-3.5519,-3.5519,-3.5519,-3.5519,-3.5519,-3.5519,-3.5519,-3.5519,-3.5519,-3.5609,-3.6267,-3.6926,-3.7524,-3.8212,-3.8841,-3.9373,-3.9373,-3.9373,-3.9373,-3.9373,-3.9373,-3.9373,-3.9373,-3.9373,-3.9373,-3.9373,-3.9373,-3.9373,-3.9373,-3.9373,-3.9373,-3.9373,-3.9373,-3.9373,-3.9373,-3.9373,-3.9373,-3.9373,-3.9373,-3.9373,-3.9373,-3.9373,-3.9373,-3.9373,-3.9373,-3.9373,-3.9373,-3.9373,-3.9373,-3.9373,-3.9373,-3.9373,-3.9373,-3.9373,-3.9373,-3.9373,-3.9373,-3.9373,-3.9373,-3.9373,-3.9373,-3.9373,-3.9373,-3.9373,-3.9373,-3.9373,-3.9373,-3.9373,-3.9373,-3.9373,0.0,0.0,0.0,-2.6752,-2.8128,0.0,0.0,0.0,0.0,0.0,0.0,0.0,0.0,0.0,0.0,0.0,0.0,0.0,0.0,0.0,0.0,0.0,0.0,0.0,0.0,0.0,0.0,0.0,0.0,0.0,-3.4863,-3.4831,-3.504,-3.5489,-3.5519,-3.5519,-3.5519,-3.5519,-3.5519,-3.5519,-3.5519,-3.5519,-3.5519,-3.5519,-3.5519,-3.5519,-3.5519,-3.5519,-3.5519,-3.5519,-3.5519,-3.5579,-3.6237,-3.6866,-3.7494,-3.8153,-3.8811,-3.9373,-3.9373,-3.9373,-3.9373,-3.9373,-3.9373,-3.9373,-3.9373,-3.9373,-3.9373,-3.9373,-3.9373,-3.9373,-3.9373,-3.9373,-3.9493,-3.9948,-4.0038,-4.0157,-4.0576,-4.0337,-4.0187,-4.0606,-4.0666,-4.0666,-4.0666,-4.0666,-4.0666,-4.0666,-4.0666,-4.0666,-4.0666,-4.0666,-4.0666,-4.0666,-4.0666,-4.0666,-4.0666,-4.0277,-4.0038,-4.0038,-3.9649,-3.9373,-3.9373,-3.9373,-3.9373,-3.9373,-3.9373,-3.9373,-3.9373,-3.9373,-3.9373,-3.9373,-3.9373,-3.9373,-2.1445,0.0,0.0,0.0,0.0,0.0,0.0,0.0,0.0,0.0,0.0,0.0,0.0,0.0,0.0,0.0,0.0,0.0,0.0,0.0,0.0,0.0,0.0,0.0,0.0,0.0,0.0,0.0,0.0,0.0,-3.4144,-3.4174,-3.4352,-3.4801,-3.504,-3.516,-3.516,-3.54,-3.5519,-3.5519,-3.5519,-3.5519,-3.5519,-3.5519,-3.5519,-3.5519,-3.5519,-3.5519,-3.5519,-3.5519,-3.5519,-3.5549,-3.5998,-3.6656,-3.7464,-3.7913,-3.8631,-3.9373,-3.9373,-3.9373,-3.9373,-3.9373,-3.9373,-3.9373,-3.9373,-3.9373,-3.9373,-3.9373,-3.9373,-3.9373,-3.9373,-3.9589,-3.9858,-4.0307,-4.0576,-4.0905,-4.1602,-4.1205,-4.0846,-4.1294,-4.1422,-4.1422,-4.1422,-4.1422,-4.1422,-4.1422,-4.1422,-4.1422,-4.1422,-4.1422,-4.1422,-4.1422,-4.1422,-4.1422,-4.1422,-4.0965,-4.0726,-4.0726,-4.0127,-3.9738,-3.9738,-3.9493,-3.9373,-3.9373,-3.9373,-3.9373,-3.9373,-3.9373,-3.9373,-3.9373,-3.9373,-3.9373,0.0,0.0,0.0,0.0,0.0,0.0,0.0,0.0,0.0,0.0,0.0,0.0,0.0,0.0,0.0,0.0,0.0,0.0,0.0,0.0,0.0,0.0,0.0,0.0,0.0,0.0,0.0,0.0,0.0,-3.3455,-3.3455,-3.3484,-3.3484,-3.3484,-3.4144,-3.4474,-3.4503,-3.513,-3.5489,-3.5519,-3.5519,-3.5519,-3.5519,-3.5519,-3.5519,-3.5519,-3.5519,-3.5519,-3.5519,-3.5519,-3.5519,-3.5519,-3.5519,-3.6297,-3.7404,-3.7404,-3.8272,-3.9373,-3.9373,-3.9373,-3.9373,-3.9373,-3.9373,-3.9373,-3.9373,-3.9373,-3.9373,-3.9373,-3.9373,-3.9373,-3.9403,-3.9918,-4.0397,-4.0457,-4.0935,-4.1632,-4.2291,-4.1931,-4.1482,-4.1482,-4.1482,-4.1482,-4.1482,-4.1482,-4.1482,-4.1482,-4.1482,-4.1482,-4.1482,-4.1482,-4.1482,-4.1482,-4.1482,-4.1482,-4.1482,-4.1452,-4.1452,-4.1452,-4.0786,-4.0397,-4.0397,-3.9768,-3.9373,-3.9373,-3.9373,-3.9373,-3.9373,-3.9373,-3.9373,-3.9373,-3.9373,-3.9373,-1.9828,0.0,0.0,0.0,0.0,0.0,0.0,0.0,0.0,0.0,0.0,0.0,0.0,0.0,0.0,0.0,0.0,0.0,0.0,0.0,0.0,0.0,0.0,0.0,0.0,0.0,0.0,0.0,-3.2049,-3.2258,-3.2766,-3.3245,-3.3484,-3.3484,-3.3664,-3.3993,-3.4503,-3.4651,-3.5011,-3.5519,-3.5519,-3.5519,-3.5519,-3.5519,-3.5519,-3.5519,-3.5519,-3.5519,-3.5519,-3.5519,-3.5519,-3.5519,-3.5519,-3.6297,-3.7404,-3.7404,-3.8272,-3.9373,-3.9373,-3.9373,-3.9373,-3.9373,-3.9373,-3.9373,-3.9373,-3.9373,-3.9373,-3.9373,-3.9373,-3.9493,-4.0008,-4.0277,-4.0636,-4.1632,-4.1991,-4.2321,-4.291,-4.291,-4.2751,-4.2751,-4.2751,-4.2751,-4.2751,-4.2751,-4.2751,-4.2751,-4.2751,-4.2751,-4.2751,-4.2751,-4.2751,-4.2751,-4.2751,-4.2751,-4.2751,-4.2372,-4.2141,-4.2141,-4.1025,-4.0397,-4.0397,-3.9768,-3.9373,-3.9373,-3.9373,-3.9373,-3.9373,-3.9373,-3.9373,-3.9373,-3.9373,-3.9373,-2.0288,-2.0617,0.0,0.0,0.0,0.0,0.0,-2.5285,0.0,0.0,0.0,0.0,0.0,0.0,0.0,0.0,0.0,0.0,0.0,0.0,0.0,0.0,0.0,0.0,0.0,0.0,0.0,-3.1511,-3.1511,-3.166,-3.2049,-3.2437,-3.2677,-3.2677,-3.2946,-3.3275,-3.3664,-3.4234,-3.4713,-3.507,-3.537,-3.5519,-3.5519,-3.5519,-3.5519,-3.5519,-3.5519,-3.5519,-3.5519,-3.5519,-3.5519,-3.5519,-3.5519,-3.6297,-3.7404,-3.7404,-3.8272,-3.9373,-3.9373,-3.9373,-3.9373,-3.9373,-3.9373,-3.9373,-3.9373,-3.9373,-3.9373,-3.9373,-3.9619,-3.9918,-4.0307,-4.0816,-4.1414,-4.2201,-4.262,-4.288,-4.32,-4.329,-4.329,-4.329,-4.329,-4.329,-4.329,-4.329,-4.329,-4.329,-4.329,-4.329,-4.329,-4.329,-4.329,-4.329,-4.329,-4.329,-4.329,-4.3,-4.2761,-4.2761,-4.1803,-4.1085,-4.0816,-4.0187,-3.9709,-3.9439,-3.9373,-3.9373,-3.9373,-3.9373,-3.9373,-3.9373,-3.9373,-3.9373,-2.1096,-2.1425,0.0,0.0,0.0,0.0,-2.5967,-2.5159,0.0,0.0,0.0,0.0,0.0,0.0,0.0,0.0,0.0,0.0,0.0,0.0,0.0,0.0,0.0,0.0,0.0,-3.1511,-3.1511,-3.1511,-3.1511,-3.1511,-3.1511,-3.1511,-3.1511,-3.1511,-3.2079,-3.2407,-3.2527,-3.3754,-3.4444,-3.4503,-3.519,-3.5519,-3.5519,-3.5519,-3.5519,-3.5519,-3.5519,-3.5519,-3.5519,-3.5519,-3.5519,-3.5519,-3.5519,-3.6297,-3.7404,-3.7404,-3.8272,-3.9373,-3.9373,-3.9373,-3.9373,-3.9373,-3.9373,-3.9373,-3.9373,-3.9373,-3.9373,-3.9373,-3.9888,-4.0427,-4.0487,-4.1482,-4.241,-4.25,-4.291,-4.329,-4.329,-4.329,-4.329,-4.329,-4.329,-4.329,-4.329,-4.329,-4.329,-4.329,-4.329,-4.329,-4.329,-4.329,-4.329,-4.329,-4.329,-4.329,-4.329,-4.329,-4.329,-4.329,-4.2731,-4.2141,-4.1542,-4.0786,-4.0127,-3.9493,-3.9469,-3.9373,-3.9373,-3.9373,-3.9373,-3.9373,-3.9373,-3.9373,-2.2493,-2.2742,-2.3041,-2.2263,0.0,0.0,0.0,-2.2862,0.0,0.0,0.0,0.0,0.0,0.0,0.0,0.0,0.0,0.0,0.0,0.0,0.0,0.0,0.0,0.0,0.0,-3.1511,-3.1511,-3.1511,-3.1511,-3.1511,-3.1511,-3.1511,-3.1511,-3.1511,-3.163,-3.1959,-3.2467,-3.3305,-3.3994,-3.4503,-3.519,-3.5519,-3.5519,-3.5519,-3.5519,-3.5519,-3.5519,-3.5519,-3.5519,-3.5519,-3.5519,-3.5519,-3.5519,-3.6297,-3.7404,-3.7404,-3.8272,-3.9373,-3.9373,-3.9373,-3.9373,-3.9373,-3.9373,-3.9373,-3.9373,-3.9373,-3.9373,-3.9373,-3.9888,-4.0516,-4.1055,-4.1811,-4.253,-4.303,-4.32,-4.329,-4.329,-4.329,-4.329,-4.329,-4.329,-4.329,-4.329,-4.329,-4.329,-4.329,-4.329,-4.329,-4.329,-4.329,-4.329,-4.329,-4.329,-4.329,-4.329,-4.329,-4.329,-4.329,-4.2731,-4.2351,-4.2201,-4.1025,-4.0337,-4.0217,-3.9679,-3.9373,-3.9373,-3.9373,-3.9373,-3.9373,-3.9373,-3.9373,-2.34,-2.361,-2.4029,-2.3729,0.0,0.0,0.0,0.0,0.0,0.0,0.0,0.0,0.0,0.0,0.0,0.0,0.0,0.0,0.0,0.0,0.0,0.0,0.0,0.0,0.0,-3.1002,-3.1122,-3.1481,-3.1511,-3.1511,-3.1511,-3.1511,-3.1511,-3.1511,-3.1511,-3.166,-3.1989,-3.2677,-3.3335,-3.3993,-3.4681,-3.519,-3.5519,-3.5519,-3.5519,-3.5519,-3.5519,-3.5519,-3.5519,-3.5519,-3.5519,-3.5549,-3.5878,-3.6567,-3.7434,-3.7793,-3.8542,-3.9373,-3.9373,-3.9373,-3.9373,-3.9373,-3.9373,-3.9373,-3.9373,-3.9373,-3.9373,-3.9373,-4.0127,-4.0965,-4.1294,-4.2102,-4.294,-4.323,-4.329,-4.329,-4.329,-4.329,-4.329,-4.329,-4.329,-4.329,-4.329,-4.329,-4.329,-4.329,-4.329,-4.329,-4.329,-4.329,-4.329,-4.329,-4.329,-4.329,-4.329,-4.329,-4.329,-4.329,-4.303,-4.2701,-4.241,-4.1414,-4.0576,-3.9918,-3.9553,-3.9373,-3.9373,-3.9373,-3.9373,-3.9373,-3.9373,-3.9373,0.0,0.0,0.0,0.0,0.0,-2.4777,0.0,0.0,0.0,0.0,0.0,0.0,0.0,0.0,0.0,0.0,0.0,0.0,0.0,0.0,0.0,0.0,0.0,0.0,0.0,-3.0103,-3.0283,-3.1062,-3.1002,-3.1062,-3.1301,-3.1421,-3.1511,-3.1511,-3.1511,-3.1511,-3.1511,-3.2138,-3.2856,-3.3514,-3.4204,-3.4831,-3.5519,-3.5519,-3.5519,-3.5519,-3.5519,-3.5519,-3.5519,-3.5519,-3.5519,-3.5549,-3.6088,-3.6746,-3.7464,-3.8003,-3.8721,-3.9373,-3.9373,-3.9373,-3.9373,-3.9373,-3.9373,-3.9373,-3.9373,-3.9373,-3.9373,-3.9373,-4.0367,-4.1422,-4.1422,-4.2372,-4.329,-4.329,-4.329,-4.329,-4.329,-4.329,-4.329,-4.329,-4.329,-4.329,-4.329,-4.329,-4.329,-4.329,-4.329,-4.329,-4.329,-4.329,-4.329,-4.329,-4.329,-4.329,-4.329,-4.329,-4.329,-4.329,-4.329,-4.309,-4.262,-4.1841,-4.0756,-3.9439,-3.9373,-3.9373,-3.9373,-3.9373,-3.9373,-3.9373,-3.9373,-3.9373,0.0,0.0,0.0,0.0,-2.726,0.0,0.0,0.0,0.0,0.0,0.0,0.0,0.0,0.0,0.0,0.0,0.0,0.0,0.0,0.0,0.0,0.0,0.0,0.0,0.0,0.0,-2.8453,-2.9741,-2.9265,-2.9415,-3.0552,-3.1182,-3.1511,-3.1511,-3.1511,-3.1511,-3.1511,-3.2138,-3.2856,-3.3514,-3.4204,-3.4831,-3.5519,-3.5519,-3.5519,-3.5519,-3.5519,-3.5519,-3.5519,-3.5519,-3.5519,-3.5519,-3.5579,-3.6357,-3.7434,-3.7494,-3.8332,-3.9373,-3.9373,-3.9373,-3.9373,-3.9373,-3.9373,-3.9373,-3.9373,-3.9373,-3.9373,-3.9373,-4.0367,-4.1422,-4.1422,-4.2372,-4.329,-4.329,-4.329,-4.329,-4.329,-4.329,-4.329,-4.329,-4.329,-4.329,-4.329,-4.329,-4.329,-4.329,-4.329,-4.329,-4.329,-4.329,-4.329,-4.329,-4.329,-4.329,-4.329,-4.329,-4.329,-4.329,-4.329,-4.326,-4.32,-4.2043,-4.0756,-3.9439,-3.9373,-3.9373,-3.9373,-3.9373,-3.9373,-3.9373,-3.9373,-3.9373,0.0,0.0,0.0,0.0,0.0,0.0,0.0,0.0,-2.355,0.0,0.0,0.0,0.0,0.0,0.0,0.0,0.0,0.0,0.0,0.0,0.0,0.0,0.0,0.0,0.0,0.0,0.0,0.0,0.0,-2.8727,-3.0402,-3.0791,-3.1092,-3.1481,-3.1511,-3.1511,-3.1511,-3.178,-3.2437,-3.3484,-3.3784,-3.4472,-3.5519,-3.5519,-3.5519,-3.5519,-3.5519,-3.5519,-3.5519,-3.5519,-3.5519,-3.5549,-3.5938,-3.6626,-3.7494,-3.8272,-3.8931,-3.9373,-3.9373,-3.9373,-3.9373,-3.9373,-3.9373,-3.9373,-3.9373,-3.9373,-3.9499,-3.9888,-4.0666,-4.1512,-4.1901,-4.2641,-4.329,-4.329,-4.329,-4.329,-4.329,-4.329,-4.329,-4.329,-4.329,-4.329,-4.329,-4.329,-4.329,-4.329,-4.329,-4.329,-4.329,-4.329,-4.329,-4.329,-4.329,-4.329,-4.329,-4.329,-4.329,-4.329,-4.329,-4.311,-4.2791,-4.1863,-4.0935,-4.0008,-3.9619,-3.9373,-3.9373,-3.9373,-3.9373,-3.9373,-3.9373,-3.9373,-2.9864,0.0,0.0,0.0,0.0,0.0,0.0,0.0,0.0,0.0,0.0,0.0,0.0,0.0,0.0,0.0,0.0,0.0,0.0,0.0,0.0,0.0,0.0,0.0,0.0,0.0,0.0,0.0,0.0,0.0,-2.9864,-3.0313,-3.0731,-3.1212,-3.1391,-3.1511,-3.1511,-3.169,-3.2348,-3.3484,-3.3694,-3.4382,-3.5519,-3.5519,-3.5519,-3.5519,-3.5519,-3.5519,-3.5519,-3.5519,-3.5519,-3.5579,-3.6417,-3.7015,-3.7554,-3.8721,-3.926,-3.9373,-3.9373,-3.9373,-3.9373,-3.9373,-3.9373,-3.9373,-3.9373,-3.9559,-3.9798,-4.0277,-4.0995,-4.1811,-4.2261,-4.2851,-4.329,-4.329,-4.329,-4.329,-4.329,-4.329,-4.329,-4.329,-4.329,-4.329,-4.329,-4.329,-4.329,-4.329,-4.329,-4.329,-4.329,-4.329,-4.329,-4.329,-4.329,-4.329,-4.329,-4.329,-4.329,-4.329,-4.329,-4.303,-4.241,-4.1931,-4.1265,-4.0427,-3.9918,-3.9553,-3.9373,-3.9373,-3.9373,-3.9373,-3.9373,-3.9373,0.0,0.0,0.0,-2.8603,0.0,0.0,0.0,0.0,-2.5525,0.0,0.0,0.0,0.0,0.0,0.0,0.0,0.0,0.0,0.0,0.0,0.0,0.0,0.0,0.0,0.0,0.0,0.0,0.0,0.0,0.0,-2.8517,-2.9834,-3.0522,-3.0522,-3.1152,-3.1511,-3.1511,-3.2138,-3.2826,-3.3514,-3.4174,-3.4831,-3.5519,-3.5519,-3.5519,-3.5519,-3.5519,-3.5519,-3.5519,-3.5519,-3.5519,-3.5639,-3.6896,-3.7375,-3.7494,-3.8182,-3.8841,-3.9373,-3.9373,-3.9373,-3.9373,-3.9373,-3.9373,-3.9373,-3.9373,-3.9858,-4.0367,-4.0397,-4.1324,-4.2381,-4.2381,-4.2851,-4.329,-4.329,-4.329,-4.329,-4.329,-4.329,-4.329,-4.329,-4.329,-4.329,-4.329,-4.329,-4.329,-4.329,-4.329,-4.329,-4.329,-4.329,-4.329,-4.329,-4.329,-4.329,-4.329,-4.329,-4.329,-4.329,-4.329,-4.303,-4.241,-4.2381,-4.1752,-4.0427,-4.0367,-4.0068,-3.9373,-3.9373,-3.9373,-3.9373,-3.9373,-3.9373,0.0,0.0,-3.3395,-3.0283,0.0,0.0,0.0,0.0,0.0,0.0,0.0,0.0,0.0,0.0,0.0,0.0,0.0,0.0,0.0,0.0,0.0,0.0,0.0,0.0,0.0,0.0,0.0,0.0,-2.5764,0.0,0.0,-2.9804,-3.0492,-3.0492,-3.1152,-3.1511,-3.1511,-3.2138,-3.2856,-3.3514,-3.4204,-3.4831,-3.5519,-3.5519,-3.5519,-3.5519,-3.5519,-3.5519,-3.5519,-3.5519,-3.5759,-3.6237,-3.7075,-3.7674,-3.8153,-3.8811,-3.923,-3.9373,-3.9373,-3.9373,-3.9373,-3.9373,-3.9373,-3.9463,-3.9948,-4.0217,-4.0576,-4.1444,-4.2051,-4.25,-4.288,-4.314,-4.329,-4.329,-4.329,-4.329,-4.329,-4.329,-4.329,-4.329,-4.329,-4.329,-4.329,-4.329,-4.329,-4.329,-4.329,-4.329,-4.329,-4.329,-4.329,-4.329,-4.329,-4.329,-4.329,-4.329,-4.329,-4.329,-4.329,-4.32,-4.3,-4.262,-4.2201,-4.1752,-4.0846,-4.0277,-4.0068,-3.9619,-3.9373,-3.9373,-3.9373,-3.9373,-3.3874,-3.4174,0.0,-3.148,-3.0582,0.0,-2.723,0.0,0.0,0.0,0.0,0.0,0.0,0.0,0.0,0.0,0.0,0.0,0.0,0.0,0.0,0.0,0.0,0.0,0.0,0.0,-2.4156,-2.6422,-2.5345,0.0,0.0,0.0,-3.0283,-3.0492,-3.1152,-3.1511,-3.1511,-3.2378,-3.3066,-3.3514,-3.4412,-3.507,-3.5519,-3.5519,-3.5519,-3.5519,-3.5519,-3.5519,-3.5519,-3.5519,-3.5908,-3.6537,-3.7165,-3.7823,-3.8482,-3.917,-3.9373,-3.9373,-3.9373,-3.9373,-3.9373,-3.9373,-3.9373,-3.9559,-4.0217,-4.0576,-4.0965,-4.2081,-4.256,-4.2791,-4.32,-4.329,-4.329,-4.329,-4.329,-4.329,-4.329,-4.329,-4.329,-4.329,-4.329,-4.329,-4.329,-4.329,-4.329,-4.329,-4.329,-4.329,-4.329,-4.329,-4.329,-4.329,-4.329,-4.329,-4.329,-4.329,-4.329,-4.329,-4.329,-4.329,-4.329,-4.294,-4.265,-4.241,-4.1572,-4.0876,-4.0397,-3.9978,-3.9649,-3.9373,-3.9373,-3.9373]},{"header":{"parameterUnit":"m.s-1","parameterCategory":1,"la1":30.6,"la2":29.2853,"lo1":-89.7004,"lo2":-87.6739,"dy":0.0162,"dx":0.0183,"nx":112,"ny":82,"refTime":"2026-03-04T12:00:00:Z","depth":0,"parameterNumber":3,"parameterNumberName":"V-component_of_WINDS"},"data":[0.0,0.0,0.0,0.0,0.0,0.0,0.0,0.0,0.0,0.0,0.0,0.0,0.0,0.0,0.0,0.0,0.0,0.0,0.0,0.0,0.0,0.0,0.0,0.0,0.0,0.0,0.0,0.0,0.0,0.0,0.0,0.0,0.0,0.0,0.0,0.0,0.0,0.0,0.0,0.0,0.0,0.0,0.0,0.0,0.0,0.0,0.0,0.0,0.0,0.0,0.0,0.0,0.0,0.0,0.0,0.0,0.0,0.0,0.0,0.0,0.0,0.0,0.0,0.0,0.0,0.0,0.0,0.0,0.0,0.0,0.0,0.0,0.0,0.0,0.0,0.0,0.0,0.0,0.0,0.0,0.0,0.0,0.0,0.0,0.0,0.0,0.0,0.0,0.0,0.0,0.0,1.2418,1.3529,1.4172,1.4114,1.3782,1.3027,1.1685,0.0,0.0,0.0,0.0,0.0,0.0,0.0,0.0,0.0,0.0,0.0,0.0,0.0,0.0,0.0,0.0,0.0,0.0,0.0,0.0,0.0,0.0,0.0,0.0,0.0,0.0,0.0,0.0,0.0,0.0,0.0,0.0,0.0,0.0,0.0,0.0,0.0,0.0,0.0,0.0,0.0,0.0,0.0,0.0,0.0,0.0,0.0,0.0,0.0,0.0,0.0,0.0,0.0,0.0,0.0,0.0,0.0,0.0,0.0,0.0,0.0,0.0,0.0,0.0,0.0,0.0,0.0,0.0,0.0,0.0,0.0,0.0,0.0,0.0,0.0,0.0,0.0,0.0,0.0,0.0,0.0,0.0,0.0,0.0,0.0,0.0,0.0,0.0,0.0,0.0,0.0,0.0,0.0,0.0,0.0,0.0,0.0,0.0,0.0,0.0,0.0,0.0,0.0,0.0,1.1348,1.3568,1.4355,1.4531,1.4133,1.4055,1.332,1.1704,0.0,0.0,0.0,0.0,0.0,0.0,0.0,0.0,0.0,0.0,0.0,0.0,0.0,0.0,0.0,0.0,0.0,0.0,0.0,0.0,0.0,0.0,0.0,0.0,0.0,0.0,0.0,0.0,0.0,0.0,0.0,0.0,0.0,0.0,0.0,0.0,0.0,0.0,0.0,0.0,0.0,0.0,0.0,0.0,0.0,0.0,0.0,0.0,0.0,0.0,0.0,0.0,0.0,0.0,0.0,0.0,0.0,0.0,0.0,0.0,0.0,0.0,0.0,0.0,0.0,0.0,0.0,0.0,0.0,0.0,0.0,0.0,0.0,0.0,0.0,0.0,0.0,0.0,0.0,0.0,0.0,0.0,0.0,0.0,0.0,0.0,0.0,0.0,0.0,0.0,0.0,0.0,0.0,0.0,0.0,0.0,0.0,0.0,0.0,0.0,0.0,0.0,0.0,1.1465,1.2578,1.3958,1.4531,1.4609,1.4133,1.3899,1.3164,1.1704,1.0782,0.0,0.0,0.0,0.0,0.0,0.0,0.0,0.0,0.0,0.0,0.0,0.0,0.0,0.0,0.0,0.0,0.0,0.0,0.0,0.0,0.0,0.0,0.0,0.0,0.0,0.0,0.0,0.0,0.0,0.0,0.0,0.0,0.0,0.0,0.0,0.0,0.0,0.0,0.0,0.0,0.0,0.0,0.0,0.0,0.0,0.0,0.0,0.0,0.0,0.0,0.0,0.0,0.0,0.0,0.0,0.0,0.0,0.0,0.0,0.0,0.0,0.0,0.0,0.0,0.0,0.0,0.0,0.0,0.0,0.0,0.0,0.0,0.0,0.0,0.0,0.0,0.0,0.0,0.0,0.0,0.0,0.0,0.0,0.0,0.0,0.0,0.0,0.0,0.0,0.0,0.0,0.0,0.0,0.0,0.0,0.0,0.0,0.0,0.0,0.0,0.0,0.0,1.2715,1.3763,1.4075,1.4531,1.4609,1.4133,1.3755,1.2953,1.1685,1.0805,0.0,0.0,0.0,0.0,0.0,0.0,0.0,0.0,0.0,0.0,0.0,0.0,0.0,0.0,0.0,0.0,0.0,0.0,0.0,0.0,0.0,0.0,0.0,0.0,0.0,0.0,0.0,0.0,0.0,0.0,0.0,0.0,0.0,0.0,0.0,0.0,0.0,0.0,0.0,0.0,0.0,0.0,0.0,0.0,0.0,0.0,0.0,0.0,0.0,0.0,0.0,0.0,0.0,0.0,0.0,0.0,0.0,0.0,0.0,0.0,0.0,0.0,0.0,0.0,0.0,0.0,0.0,0.0,0.0,0.0,0.0,0.0,0.0,0.0,0.0,0.0,0.0,0.0,0.0,0.0,0.0,0.0,0.0,0.0,0.0,0.0,0.0,0.0,0.0,0.0,0.0,0.0,0.0,0.0,0.0,0.0,0.0,0.0,0.0,0.0,0.0,0.0,1.2769,1.4075,1.4094,1.4531,1.4609,1.4133,1.3806,1.3036,1.1687,1.0838,0.0,0.0,0.0,0.0,0.0,0.0,0.0,0.0,0.0,0.0,0.0,0.0,0.0,0.0,0.0,0.0,0.0,0.0,0.0,0.0,0.0,0.0,0.0,0.0,0.0,0.0,0.0,0.0,0.0,0.0,0.0,0.0,0.0,0.0,0.0,0.0,0.0,0.0,0.0,0.0,0.0,0.0,0.0,0.0,0.0,0.0,0.0,0.0,0.0,0.0,0.0,0.0,0.0,0.0,0.0,0.0,0.0,0.0,0.0,0.0,0.0,0.0,0.0,0.0,0.0,0.0,0.0,0.0,0.0,0.0,0.0,0.0,0.0,0.0,0.0,0.0,0.0,0.0,0.0,0.0,0.0,0.0,0.0,0.0,0.0,0.0,0.0,0.0,0.0,0.0,0.0,0.0,0.0,0.0,0.0,0.0,0.0,0.0,0.0,0.0,0.0,0.0,1.2344,1.3457,0.0,1.3887,1.3926,1.3724,1.3728,1.3114,1.1709,0.0,0.0,0.0,0.0,0.0,0.0,0.0,0.0,0.0,0.0,0.0,0.0,0.0,0.0,0.0,0.0,0.0,0.0,0.0,0.0,0.0,0.0,0.0,0.0,0.0,0.0,0.0,0.0,0.0,0.0,0.0,0.0,0.0,0.0,0.0,0.0,0.0,0.0,0.0,0.0,0.0,0.0,0.0,0.0,0.0,0.0,0.0,0.0,0.0,0.0,0.0,0.0,0.0,0.0,0.0,0.0,0.0,0.0,0.0,0.0,0.0,0.0,0.0,0.0,0.0,0.0,0.0,0.0,0.0,0.0,0.0,0.0,0.0,0.0,0.0,0.0,0.0,0.0,0.0,0.0,0.0,0.0,0.0,0.0,0.0,0.0,0.0,0.0,0.0,0.0,0.0,0.0,0.0,0.0,0.0,0.0,0.0,0.0,0.0,0.0,0.0,0.0,1.0996,1.2266,1.3145,0.0,1.3301,1.3262,1.3081,1.2981,1.2418,1.1255,0.0,0.0,0.0,0.0,0.0,0.0,0.0,0.0,0.0,0.0,0.0,0.0,0.0,0.0,0.0,0.0,0.0,0.0,0.0,0.0,0.0,0.0,0.0,0.0,0.0,0.0,0.0,0.0,0.0,0.0,0.0,0.0,0.0,0.0,0.0,0.0,0.0,0.0,0.0,0.0,0.0,0.0,0.0,0.0,0.0,0.0,0.0,0.0,0.0,0.0,0.0,0.0,0.0,0.0,0.0,0.0,0.0,0.0,0.0,0.0,0.0,0.0,0.0,0.0,0.0,0.0,0.0,0.0,0.0,0.0,0.0,0.0,0.0,0.0,0.0,0.0,0.0,0.0,0.0,0.0,0.0,0.0,0.0,0.0,0.0,0.0,0.0,0.0,0.0,0.0,0.0,0.0,0.0,0.0,0.0,0.0,0.0,0.0,0.0,0.0,0.0,0.0,1.1489,1.27,1.332,1.2935,1.2895,1.2695,1.2242,1.147,1.0791,0.0,0.0,0.0,0.0,0.0,0.0,0.0,0.0,0.0,0.0,0.0,0.0,0.0,0.0,0.0,0.0,0.0,0.0,0.0,0.0,0.0,0.0,0.0,0.0,0.0,0.0,0.0,0.0,0.0,0.0,0.0,0.0,0.0,0.0,0.0,0.0,0.0,0.0,0.0,0.0,0.0,0.0,0.0,0.0,0.0,0.0,0.0,0.0,0.0,0.0,0.0,0.0,0.0,0.0,0.0,0.0,0.0,0.0,0.0,0.0,0.0,0.0,0.0,0.0,0.0,0.0,0.0,0.0,0.0,0.0,0.0,0.0,0.0,0.0,0.0,0.0,0.0,0.0,0.0,0.0,0.0,0.0,0.0,0.0,0.0,0.0,0.0,0.0,0.0,0.0,0.0,0.0,0.0,0.0,0.0,0.0,0.0,0.0,0.0,0.0,0.0,0.0,0.0,1.0996,1.1721,1.2113,1.2018,1.1976,1.2074,1.2245,1.2104,1.1645,1.0831,0.0,0.0,0.0,0.0,0.0,0.0,0.0,0.0,0.0,0.0,0.0,0.0,0.0,0.0,0.0,0.0,0.0,0.0,0.0,0.0,0.0,0.0,0.0,0.0,0.0,0.0,0.0,0.0,0.0,0.0,0.0,0.0,0.0,0.0,0.0,0.0,0.0,0.0,0.0,0.0,0.0,0.0,0.0,0.0,0.0,0.0,0.0,0.0,0.0,0.0,0.0,0.0,0.0,0.0,0.0,0.0,0.0,0.0,0.0,0.0,0.0,0.0,0.0,0.0,0.0,0.0,0.0,0.0,0.0,0.0,0.0,0.0,0.0,0.0,0.0,0.0,0.0,0.0,0.0,0.0,0.0,0.0,0.0,0.0,0.0,0.0,0.0,0.0,0.0,0.0,0.0,0.0,0.0,0.0,0.0,0.0,0.0,0.0,0.0,0.0,0.0,0.0,1.0801,1.1445,1.1721,1.1369,1.1489,1.1557,1.1511,1.1365,1.1042,1.0476,0.0,0.0,0.0,0.0,0.0,0.0,0.0,0.0,0.0,0.0,0.0,0.0,0.0,0.0,0.0,0.0,0.0,0.0,0.0,0.0,0.0,0.0,0.0,0.0,0.0,0.0,0.0,0.0,0.0,0.0,0.0,0.0,0.0,0.0,0.0,0.0,0.0,0.0,0.0,0.0,0.0,0.0,0.0,0.0,0.0,0.0,0.0,0.0,0.0,0.0,0.0,0.0,0.0,0.0,0.0,0.0,0.0,0.0,0.0,0.0,0.0,0.0,0.0,0.0,0.0,0.0,0.0,0.0,0.0,0.0,0.0,0.0,0.0,0.0,0.0,0.0,0.0,0.0,0.0,0.0,0.0,0.0,0.0,0.0,0.0,0.0,0.0,0.0,0.0,0.0,0.0,0.0,0.0,0.0,0.0,0.0,0.0,0.0,0.0,0.0,0.0,0.0,1.078,1.158,1.1794,1.1055,1.131,1.1255,1.0489,0.9963,0.9651,0.9668,0.0,0.0,0.0,0.0,0.0,0.0,0.0,0.0,0.0,0.0,0.0,0.0,0.0,0.0,0.0,0.0,0.0,0.0,0.0,0.0,0.0,0.0,0.0,0.0,0.0,0.0,0.0,0.0,0.0,0.0,0.0,0.0,0.0,0.0,0.0,0.0,0.0,0.0,0.0,0.0,0.0,0.0,0.0,0.0,0.0,0.0,0.0,0.0,0.0,0.0,0.0,0.0,0.0,0.0,0.0,0.0,0.0,0.0,0.0,0.0,1.4783,0.0,0.0,0.0,0.0,0.0,0.0,0.0,0.0,0.0,0.0,0.0,0.0,0.0,0.0,0.0,0.0,0.0,0.0,0.0,0.0,0.0,0.0,0.0,0.0,0.0,0.0,0.0,0.0,0.0,0.0,0.0,0.0,0.0,0.0,0.0,0.0,0.0,0.0,0.0,0.0,0.0,1.0762,1.1053,1.125,1.1428,1.1213,1.1142,1.1386,1.0578,1.013,1.0218,0.9165,0.0,0.0,0.0,0.0,0.0,0.0,0.0,0.0,0.0,0.0,0.0,0.0,0.0,0.0,0.0,0.0,0.0,0.0,0.0,0.0,0.0,0.0,0.0,0.0,0.0,0.0,0.0,0.0,0.0,0.0,0.0,0.0,0.0,0.0,0.0,0.0,0.0,0.0,0.0,0.0,0.0,0.0,0.0,0.0,0.0,0.0,0.0,0.0,0.0,0.0,0.0,0.0,0.0,0.0,0.0,0.0,0.0,0.0,0.0,0.0,1.6181,0.0,0.0,0.0,0.0,0.0,0.0,0.0,0.0,0.0,0.0,0.0,0.0,0.0,0.0,0.0,0.0,0.0,0.0,0.0,0.0,0.0,0.0,0.0,0.0,0.0,0.0,0.0,0.0,0.0,0.0,0.0,0.0,0.0,0.0,0.0,0.0,0.0,0.0,0.0,0.0,1.1035,1.1252,1.133,1.1587,1.1543,1.1474,1.1328,1.0813,1.0521,1.0647,0.9941,0.0,0.0,0.0,0.0,0.0,0.0,0.0,0.0,0.0,0.0,0.0,0.0,0.0,0.0,0.0,0.0,0.0,0.0,0.0,0.0,0.0,0.0,0.0,0.0,0.0,0.0,0.0,0.0,0.0,0.0,0.0,0.0,0.0,0.0,0.0,0.0,0.0,0.0,0.0,0.0,0.0,0.0,0.0,0.0,0.0,0.0,0.0,0.0,0.0,0.0,0.0,0.0,0.0,2.153,2.2036,2.1565,2.1989,2.2412,2.2709,2.0909,1.9976,1.9627,0.0,0.0,0.0,0.0,0.0,0.0,0.0,0.0,0.0,0.0,0.0,0.0,0.0,0.0,0.0,0.0,0.0,0.0,0.0,0.0,0.0,0.0,0.0,0.0,0.0,1.2808,1.2203,0.0,0.0,0.0,0.0,0.0,0.0,0.0,0.0,0.0,0.0,0.0,0.0,1.141,1.1643,1.1721,1.1822,1.2051,1.1872,1.1094,1.0885,1.0822,1.0812,1.047,1.0062,0.0,0.0,0.0,0.0,0.0,0.0,0.0,0.0,0.0,0.0,0.0,0.0,0.0,0.0,0.0,0.0,0.0,0.0,0.0,0.0,0.0,0.0,0.0,0.0,0.0,0.0,0.0,0.0,0.0,0.0,0.0,0.0,1.7197,1.7802,0.0,0.0,0.0,0.0,0.0,0.0,0.0,0.0,0.0,0.0,0.0,0.0,0.0,2.0491,2.1617,2.2781,2.3594,2.4027,2.5253,2.5811,2.571,2.5784,2.5834,2.5884,2.561,0.0,2.0825,2.0084,0.0,0.0,0.0,0.0,0.0,0.0,0.0,0.0,0.0,0.0,0.0,0.0,0.0,0.0,0.0,0.0,0.0,0.0,0.0,0.0,0.0,0.0,1.4297,1.3997,1.3899,1.3607,0.0,1.1719,1.0918,1.0683,1.0079,0.0,0.0,0.0,0.0,0.0,0.0,0.0,1.1489,1.1895,1.2285,1.27,1.2422,1.2008,1.1545,1.1137,1.0745,1.0388,1.0259,1.0029,0.96,0.9573,0.0,0.0,0.0,0.0,0.0,0.0,0.0,0.0,0.0,0.0,0.0,0.0,0.0,0.0,0.0,0.0,0.0,0.0,0.0,0.0,0.0,0.0,0.0,0.0,0.0,0.0,0.0,0.0,0.0,1.6898,1.8154,1.7777,1.8279,1.8204,0.0,0.0,0.0,0.0,0.0,0.0,0.0,0.0,0.0,2.202,2.263,2.3325,2.4155,2.4954,2.58,2.6666,2.7469,2.8172,2.88,2.9139,2.89,2.8323,2.8323,2.6934,2.4444,2.2639,2.1483,2.0689,0.0,0.0,0.0,0.0,1.7823,1.8194,1.8947,1.9218,0.0,1.8929,0.0,0.0,0.0,0.0,0.0,0.0,0.0,0.0,0.0,0.0,0.0,1.4492,1.4289,1.4075,1.4011,1.3301,1.2496,0.0,1.1543,1.1172,1.0234,0.0,0.0,0.0,0.0,0.0,1.1816,1.2086,1.2379,1.2856,1.2715,1.2422,1.1973,1.1784,1.1634,1.1497,1.1498,1.1277,1.0799,1.0743,1.0034,0.0,0.0,0.0,0.0,0.0,0.0,0.0,0.0,0.0,0.0,0.0,0.0,0.0,0.0,0.0,0.0,0.0,0.0,0.0,0.0,0.0,0.0,0.0,0.0,0.0,0.0,0.0,0.0,1.8129,1.9083,1.8152,1.9108,1.9133,0.0,0.0,0.0,0.0,0.0,0.0,2.1722,2.2623,2.3527,2.4349,2.5327,2.6189,2.6866,2.7293,2.7946,2.875,2.9026,2.954,3.0407,3.0809,3.0457,2.9578,2.9578,2.885,2.7509,2.5151,2.3831,2.3175,2.1572,2.0603,2.0166,2.0065,1.9825,1.9689,2.0887,2.1212,2.1104,2.084,0.0,2.0648,1.7987,0.0,0.0,0.0,0.0,1.497,1.5801,1.5389,1.4855,1.5215,1.4941,1.4687,1.4902,1.4687,1.4055,0.0,1.2734,1.2539,1.1426,0.0,0.0,0.0,0.0,1.1599,1.2145,1.2301,1.252,1.2876,1.2915,1.2695,1.2242,1.225,1.2193,1.2032,1.2049,1.1908,1.1512,1.1446,1.0726,0.9183,0.0,0.0,0.0,0.0,0.0,0.0,0.0,0.0,0.0,0.0,0.0,0.0,0.0,0.0,0.0,0.0,0.0,0.0,0.0,0.0,0.0,0.0,0.0,0.0,0.0,0.0,0.0,0.0,0.0,1.9761,2.1142,0.0,0.0,0.0,0.0,2.1267,2.2347,2.3421,2.4525,2.5134,2.6163,2.7795,2.8386,2.9214,3.0357,3.0382,3.0432,3.0482,2.998,2.9779,2.9829,2.9854,2.9553,2.8938,2.8938,2.8888,2.8712,2.7559,2.584,2.3975,2.4178,2.3108,2.157,2.2948,2.2634,2.1731,2.2804,2.198,2.0744,2.254,2.2695,2.1944,2.0871,1.9364,0.0,0.0,1.7092,1.6727,1.7472,1.7132,1.657,1.659,1.6289,1.5889,1.5469,1.5371,1.498,0.0,1.3145,1.2734,1.2223,0.0,1.2106,1.2106,1.25,1.2637,1.2262,1.2598,1.2876,1.2915,1.2915,1.2695,1.2242,1.2207,1.1858,1.1019,1.0981,1.098,1.0942,1.0999,1.076,1.0154,0.9727,0.0,0.0,0.0,0.0,0.0,0.0,0.0,0.0,0.0,0.0,0.0,0.0,0.0,0.0,0.0,0.0,0.0,0.0,0.0,0.0,0.0,0.0,0.0,0.0,0.0,0.0,0.0,0.0,2.1942,2.3401,0.0,2.1816,2.2372,2.305,2.3577,2.4657,2.5762,2.6866,2.7795,2.8725,2.9679,2.9905,3.0167,3.0608,2.9841,2.9866,3.0608,3.0055,2.9777,2.9813,2.9813,2.9286,2.8397,2.8397,2.8393,2.8398,2.8373,2.7678,2.6585,2.6,2.534,2.4723,2.4584,2.4379,2.4194,2.3956,2.3819,2.3853,2.4541,2.3867,2.2616,2.1815,2.0834,1.9863,1.9307,1.8584,1.7986,1.8239,1.7497,1.6707,1.6707,1.657,1.6367,1.5918,1.587,1.5557,1.4531,1.4199,1.3965,1.351,1.3198,1.2847,1.2281,1.2598,1.2715,1.2262,1.2617,1.2915,1.2915,1.2915,1.2837,1.2656,1.2689,1.2448,1.1837,1.1838,1.1593,1.099,1.1271,1.1041,1.0147,0.9893,0.9359,0.0,0.0,0.0,0.0,0.0,0.0,0.0,0.0,0.0,0.0,0.0,0.0,0.0,0.0,0.0,0.0,0.0,0.0,0.0,0.0,0.0,0.0,0.0,0.0,0.0,0.0,2.3521,2.3898,2.5259,2.5586,2.4073,2.4983,2.5812,2.6154,2.7243,2.8172,2.8925,2.9654,3.0231,3.0608,3.0608,3.0708,3.0884,2.9955,2.9841,3.0608,3.0055,2.9801,2.9796,2.9796,2.9407,2.8688,2.8688,2.8649,2.8637,2.8449,2.8149,2.7792,2.7462,2.684,2.6118,2.5505,2.5218,2.4998,2.4084,2.4139,2.4687,2.5025,2.4378,2.335,2.269,2.1957,2.1092,1.9998,1.9276,1.8783,1.8475,1.7768,1.7135,1.7135,1.7019,1.6875,1.6613,1.6418,1.6074,1.5381,1.5009,1.4687,1.4387,1.4121,1.3789,1.3354,1.3437,1.3418,1.3125,1.3086,1.3086,1.3086,1.2993,1.2915,1.2915,1.2953,1.2777,1.2306,1.2299,1.2083,1.1501,1.1593,1.1342,1.0698,1.0187,0.9934,0.9931,0.0,0.0,0.0,0.0,0.0,0.0,0.0,0.0,0.0,0.0,0.0,0.0,0.0,0.0,0.0,0.0,0.0,0.0,0.0,0.0,0.0,0.0,0.0,2.2221,2.3376,2.4481,2.5536,2.6666,2.6917,2.5837,2.7695,2.8913,2.8913,2.998,3.0608,3.0608,3.0608,3.0633,3.0633,3.0633,3.0859,3.1361,3.0859,3.0583,3.0583,3.0055,2.9779,2.974,2.974,2.974,2.974,2.974,2.974,2.9677,2.8053,2.7386,2.7463,2.8384,2.7454,2.5564,2.5723,2.5089,2.4093,2.3275,2.2902,2.295,2.4012,2.4311,2.413,2.3695,2.2818,2.1657,1.9879,1.935,1.9118,1.8277,1.8027,1.8027,1.8008,1.7695,1.7435,1.7383,1.7051,1.659,1.6202,1.5439,1.4852,1.4805,1.4805,1.4922,1.5332,1.5039,0.0,1.4766,1.4043,1.3535,1.3555,1.3164,1.2954,1.2954,1.2935,1.2715,1.2242,1.2203,1.2238,1.237,1.1901,1.1696,1.184,1.065,1.0563,1.1565,0.0,0.0,0.0,0.0,0.0,0.0,0.0,0.0,0.0,0.0,0.0,0.0,0.0,0.0,0.0,0.0,0.0,0.0,0.0,0.0,0.0,0.0,2.3201,2.3502,2.5184,2.664,2.7344,2.8423,2.8976,2.8674,2.9202,2.9553,2.9553,2.9854,3.0206,3.0583,3.0608,3.0783,3.116,3.0809,3.0683,3.0834,3.0281,3.0005,3.0005,2.9854,2.9365,2.8569,2.8569,2.8569,2.8569,2.8569,2.9028,2.9779,2.9294,2.9104,2.8889,2.6768,2.5574,2.5021,2.5063,2.4709,2.4213,2.4371,2.4389,2.4531,2.5571,2.5574,2.5074,2.4235,2.3514,2.2696,2.1511,2.0744,2.0124,1.9548,1.8888,1.8344,1.8086,1.793,1.7754,1.7441,1.7285,1.707,1.6641,1.6094,1.5635,1.5293,1.498,1.4852,1.4941,1.459,0.0,1.4289,1.4075,1.4082,1.4394,1.4043,1.3763,1.3763,1.3516,1.3008,1.2262,1.2203,1.2086,1.1835,1.2425,1.2791,1.2815,1.1693,1.1046,0.0,0.0,0.0,0.0,0.0,0.0,0.0,0.0,0.0,0.0,0.0,0.0,0.0,0.0,0.0,0.0,0.0,0.0,0.0,0.0,0.0,0.0,2.3929,2.536,2.536,2.6465,2.7745,2.9001,2.9528,2.988,3.0105,3.0331,3.0382,3.0156,3.0331,3.0507,3.0608,3.0608,3.0658,3.0708,3.0432,3.0256,3.0256,2.9955,2.9804,2.9804,2.9804,2.9443,2.8806,2.8806,2.8806,0.0,2.8806,2.9184,2.974,2.9287,2.9106,0.0,0.0,0.0,0.0,0.0,2.5516,2.4763,2.5924,2.5877,2.5505,2.6511,2.5871,2.4621,2.4061,2.3076,2.2004,2.1296,2.0715,2.0215,1.9768,1.9138,1.8539,1.8286,1.8144,1.7949,1.7695,1.7637,1.7519,1.709,1.6797,0.0,1.6035,1.5449,1.5117,1.5322,1.4941,1.4699,1.4922,1.4629,1.4512,1.4793,1.4367,1.4036,1.386,1.3627,0.0,0.0,0.0,1.2383,1.2152,1.276,0.0,0.0,0.0,0.0,0.0,0.0,0.0,0.0,1.1787,1.1693,0.0,0.0,0.0,0.0,0.0,0.0,0.0,0.0,0.0,0.0,0.0,0.0,0.0,0.0,0.0,0.0,2.6063,2.7444,2.7645,2.7544,2.8197,3.0181,3.0055,2.998,3.0482,3.0934,3.1009,3.0557,3.0959,3.1009,3.0557,0.0,0.0,0.0,0.0,2.9829,2.988,2.988,2.9905,2.998,2.998,2.9955,2.988,2.988,2.9854,2.9779,2.9663,2.9624,2.9546,2.8386,2.7924,2.7956,2.8309,2.847,2.8396,2.7853,2.6557,2.5367,2.7261,0.0,0.0,2.6984,2.5793,2.3886,2.3599,2.2301,2.0777,2.0174,1.998,1.9883,1.9473,1.9062,1.8734,1.8676,1.8344,1.8086,1.8086,1.8047,1.7891,1.7519,1.7422,1.7266,1.6843,1.6074,1.5625,1.6026,1.5684,1.5547,1.5968,1.5361,1.4883,1.495,0.0,0.0,1.3724,1.3633,1.3555,1.3516,1.318,1.3041,1.3089,1.3091,1.3305,1.3801,1.3801,1.4114,1.4704,1.4836,1.4934,1.4934,1.3408,1.3224,0.0,0.0,0.0,0.0,0.0,0.0,0.0,0.0,0.0,0.0,0.0,0.0,0.0,0.0,0.0,2.6389,2.7369,2.8423,2.9779,2.9176,2.8737,2.9164,2.9578,2.9829,2.993,3.0055,3.0055,2.9955,3.0055,3.0055,2.9955,2.9955,2.9905,2.9804,2.9804,3.0005,3.0457,3.0457,3.0658,3.1085,0.0,0.0,3.0457,3.0457,3.0206,2.974,2.8806,2.8426,2.8347,2.7238,2.6812,2.6748,2.5937,2.5603,2.5537,2.512,2.4703,2.4619,2.6315,2.6692,2.6524,2.7108,2.698,2.6177,2.4114,2.3231,0.0,2.0949,2.0468,2.037,1.9902,1.9727,1.959,1.9238,1.8828,1.8481,1.8481,1.8208,1.7988,1.791,1.7617,1.7363,1.7266,1.6555,1.6007,1.6085,1.5684,1.5449,1.5527,1.5391,1.543,1.5811,1.543,1.5137,1.5039,1.4387,1.3841,1.3535,1.3581,1.386,1.4329,1.3895,1.3703,1.3872,1.3895,1.3977,1.416,1.5082,1.5541,1.5537,1.4783,1.4532,0.0,0.0,0.0,0.0,0.0,0.0,0.0,0.0,0.0,0.0,0.0,2.1995,2.3708,0.0,2.6816,2.7921,2.88,2.9453,2.969,2.9528,2.9352,2.9352,2.9628,2.9804,2.9804,2.9804,2.9804,2.9804,2.9804,2.9804,2.9804,3.0055,3.0206,3.0206,3.0457,3.0733,3.1009,3.1009,3.1135,3.1386,3.1386,3.126,3.1009,3.1009,3.0708,3.0167,2.9603,2.9193,2.8846,2.7787,2.6953,2.64,2.5252,2.5483,2.6457,2.621,2.6507,2.7046,2.7277,2.7171,2.6871,2.6534,2.5934,2.5051,2.3777,2.2909,2.2146,2.1154,2.0781,2.0566,2.0293,2.0078,1.9863,1.9648,1.9277,1.8906,1.8656,1.8442,1.8227,1.8047,1.7832,1.7695,1.7695,1.7148,1.6692,1.6426,1.6016,1.5742,1.5742,1.5547,1.5488,1.5703,1.5547,1.5332,1.5117,1.4707,1.425,1.3821,1.412,1.4511,1.4928,1.4662,1.4506,1.4536,1.489,1.4897,1.4536,1.5817,1.6388,1.641,1.6495,1.6417,0.0,0.0,0.0,0.0,0.0,0.0,0.0,0.0,2.0489,2.2246,2.3401,2.4675,2.6776,2.7921,2.8775,2.9289,3.008,3.0306,2.9339,2.9578,2.9804,2.9804,2.9804,2.9804,2.9804,2.9804,2.9804,2.9804,2.9905,2.9955,2.9955,3.0457,3.0758,3.0758,3.116,3.1436,3.1537,3.1537,3.1612,3.1712,3.1712,3.1662,3.1537,3.1537,3.126,3.0718,3.0558,3.0044,2.9386,2.8497,2.7533,2.6576,2.5634,2.6321,2.7763,2.7562,2.8028,2.8752,2.8028,2.7505,2.7011,2.6183,2.4952,2.3708,2.3663,2.2693,2.1569,2.129,2.0977,2.0723,2.0625,2.0312,2.0039,2.0039,1.9727,1.9316,1.8929,1.8715,1.85,1.8169,1.8066,1.8008,1.8008,1.7734,1.7363,1.6882,1.6484,1.6222,1.6222,1.582,1.5547,1.5547,1.5469,1.5234,1.4824,1.4813,1.4645,1.432,1.4644,1.4955,1.5179,1.5313,1.5339,1.521,1.5978,1.6101,1.5536,1.6726,1.7315,1.7339,1.7918,1.7978,2.1619,2.0489,1.9861,2.0163,2.0289,2.1094,0.0,0.0,2.4054,2.6223,2.7118,2.7921,2.9202,2.993,3.0507,3.1035,3.0834,3.0583,3.0457,3.0055,2.9804,2.9804,2.9804,2.9804,2.9804,2.9804,2.9804,2.9804,3.0256,3.0532,3.0532,3.1009,3.1311,3.1311,3.1361,3.1637,3.2114,3.2114,3.239,3.2893,3.2893,3.2616,3.2114,3.2114,3.1813,3.127,3.0275,2.9263,2.8257,2.8171,2.7728,2.7217,2.7091,2.6906,2.6565,2.5546,2.5252,2.5504,2.6378,2.6644,2.6653,2.6995,2.6313,2.5263,2.492,2.3996,2.2775,2.1569,2.1171,2.1074,2.0703,2.0566,2.0527,2.0527,2.0156,1.9824,1.9785,1.9143,1.8598,1.8539,1.8227,1.8008,1.8008,1.7969,1.7793,1.7383,1.6934,1.6629,1.6629,1.6269,1.6026,1.6026,1.5644,1.5234,1.4824,1.4813,1.4837,1.4981,1.5028,1.5081,1.5096,1.572,1.5822,1.521,1.6505,1.712,1.7047,1.775,1.8085,1.8085,1.8157,1.8179,2.3803,2.2598,2.1766,0.0,2.2598,2.3527,2.5209,2.5762,2.644,2.8348,2.9176,2.9905,3.1009,3.1135,3.1135,0.0,3.0959,3.0507,3.0181,2.993,2.9804,2.9804,2.9804,2.9804,2.9804,2.9804,2.9804,2.9804,3.0306,3.0608,3.0608,3.1411,3.1863,3.1863,3.219,3.2491,3.2717,3.2717,3.2842,3.3111,3.3111,3.2943,3.2717,3.2717,3.2416,3.1797,3.1059,3.0097,2.9083,2.9083,2.856,2.7777,2.7777,2.742,2.6864,2.6074,2.5797,2.5755,2.5588,2.5504,2.5441,2.4975,2.4556,2.4094,2.395,2.339,2.271,2.2095,2.1797,2.1504,2.1074,2.0957,2.0898,2.0664,2.0468,2.0215,1.9961,1.9592,1.9316,1.9062,1.8867,1.8672,1.8383,1.8344,1.8188,1.7812,1.7383,1.7109,1.7109,1.6719,1.6348,1.6124,1.5928,1.5625,1.5195,1.5156,1.5192,1.5275,1.5275,1.5469,1.589,1.6217,1.644,1.6579,1.7164,1.7476,1.7476,1.815,1.8505,1.8505,1.8933,1.9133,2.4481,2.3722,0.0,2.3898,2.4883,2.5904,2.6791,2.762,2.8624,3.0156,3.0783,3.1336,3.2265,3.2114,3.1763,3.1436,3.106,3.0583,2.9905,2.9804,2.9804,2.9804,2.9804,2.9854,3.0005,2.988,2.9804,2.9804,3.0432,3.0834,3.0834,3.1863,3.2466,3.2466,3.2867,3.3111,3.3111,3.3111,3.3111,3.3111,3.3111,3.3111,3.3111,3.3111,3.2842,3.2441,3.2039,3.123,3.0191,3.0191,2.9625,2.8751,2.8751,2.8454,2.7931,2.7565,2.6832,2.5922,2.5083,2.4575,2.4253,2.3757,2.3343,2.3188,2.3474,2.3126,2.2656,2.2539,2.2305,2.1953,2.1523,2.1366,2.1309,2.0859,2.0742,2.0625,2.0195,2.0,1.9824,1.9512,1.9375,1.918,1.8831,1.8676,1.85,1.8223,1.7832,1.7559,1.7559,1.7187,1.6738,1.632,1.6281,1.6113,1.5801,1.5664,1.5586,1.5586,1.5469,1.5642,1.6169,1.6397,1.6765,1.7274,1.7495,1.7605,1.7605,1.8262,1.8604,1.8604,1.95,1.9894,2.2849,0.0,2.4356,2.5996,2.7193,2.8448,3.008,3.0482,3.0834,3.1913,3.2164,3.234,3.2943,3.3086,3.2709,3.1562,3.1386,3.1009,2.9955,2.9804,2.9804,2.9804,2.9804,3.0005,0.0,3.0105,2.9804,2.9804,3.0758,3.1361,3.1361,3.2441,3.3043,3.3043,3.3111,3.3111,3.3111,3.3111,3.3111,3.3111,3.3111,3.3111,3.3111,3.3111,3.3111,3.3043,3.3086,3.2321,3.1175,3.1175,3.0822,3.0328,3.0328,3.0062,2.9738,2.9738,2.7648,2.483,2.483,2.4082,2.3343,2.4425,2.3996,2.3299,2.4425,2.3953,2.2984,2.2617,2.25,2.2402,2.1973,2.1875,2.1758,2.1268,2.1171,2.1094,2.0683,2.0215,1.9902,1.9902,1.957,1.9277,1.9277,1.8906,1.8598,1.8578,1.8227,1.7988,1.7988,1.7617,1.7187,1.6726,1.6687,1.6668,1.6668,1.6289,1.6065,1.6065,1.5644,1.541,1.5439,1.6112,1.651,1.651,1.7246,1.7605,1.7605,1.8098,1.8321,1.8344,1.9598,2.0179,2.4456,0.0,2.659,2.8247,2.9227,3.0105,3.1386,3.1662,3.1763,3.2139,3.1913,3.1612,3.1461,3.1135,3.0758,3.0382,3.0331,3.0206,2.9854,2.9804,2.9804,2.9804,2.9804,0.0,0.0,0.0,0.0,3.0306,3.0984,3.1386,3.1386,3.2466,3.3111,3.3111,3.3111,3.3111,3.3111,3.3111,3.3111,3.3068,3.2239,3.2283,3.3068,3.2239,3.2283,3.3111,3.3111,3.2853,3.2481,3.2481,3.2358,3.2099,3.1268,3.0652,3.0091,2.9311,2.7569,2.5734,2.6259,2.6193,2.5894,2.5906,2.5672,2.5316,2.4914,2.4532,2.4061,2.3122,2.2886,2.2789,2.2402,2.2305,2.2187,2.1777,2.1445,2.1151,2.1035,2.0664,2.0352,2.0352,2.0273,2.0077,1.9746,1.959,1.926,1.8695,1.8247,1.8008,1.8008,1.7891,1.7637,1.7207,1.7168,1.7051,1.6726,1.6602,1.6504,1.6504,1.6336,1.6258,1.6258,1.6504,1.685,1.7342,1.759,1.7975,1.8451,1.8629,1.8696,1.8718,1.9727,2.0197,2.6138,2.7168,2.8323,3.0181,3.0934,3.1411,3.2315,3.2365,3.2164,3.1964,3.1336,3.0658,3.0105,2.9553,2.9252,2.9453,2.9478,2.9553,2.9754,2.9955,3.008,3.008,3.0256,3.0583,0.0,0.0,0.0,3.0608,3.1286,3.1587,3.1411,3.2466,3.3111,3.3111,3.3111,3.3111,3.3111,3.3111,3.2896,3.2438,3.1134,3.1223,3.237,3.1134,3.1223,3.237,3.1977,3.1512,3.1158,3.1158,3.1158,3.1113,3.0732,3.0343,2.9997,2.9642,2.8544,2.7317,2.7433,2.7255,2.6908,2.6825,2.6521,2.6016,2.5084,2.451,2.4039,2.3299,2.3101,2.3042,2.2769,2.2691,2.2637,2.2207,2.1894,2.1561,2.1268,2.1016,2.0762,2.0644,2.0605,2.0507,2.0195,2.0019,1.9668,1.8984,1.8481,1.8149,1.8027,1.8008,1.791,1.7637,1.7598,1.75,1.7174,1.7019,1.6973,1.6973,1.6785,1.6707,1.6707,1.6707,1.6908,1.742,1.742,1.7801,1.8572,1.8725,1.8781,1.8812,2.0195,2.0647,2.777,2.8612,2.9565,3.1712,3.2265,3.239,3.2918,3.2591,3.1989,3.1386,3.0382,2.9453,0.0,0.0,2.8197,2.8712,2.8888,2.9176,2.9704,3.0256,3.0583,0.0,0.0,0.0,0.0,0.0,0.0,3.0683,0.0,3.1964,3.1411,3.2466,3.3111,3.3111,3.3111,3.3111,3.3111,3.3111,3.2481,3.1267,3.0079,3.0079,3.1178,2.9988,3.0079,3.1045,2.9943,2.8819,2.7673,2.7673,2.7673,2.7814,2.8866,2.9326,2.9442,3.053,3.0169,2.9101,2.8188,2.7238,2.6532,2.7102,2.6583,2.5591,2.4998,2.4079,2.3208,2.3101,2.3101,2.3101,2.3101,2.3101,2.2984,2.2637,2.2519,2.2285,2.1444,2.1249,2.1133,2.0723,2.0625,2.0605,2.0605,2.0215,1.9805,1.9375,1.8965,1.8535,1.8154,1.8061,1.8008,1.8076,1.8042,1.8008,1.8008,1.7637,1.7422,1.7422,1.6999,1.6765,1.6765,1.6765,1.6765,1.6765,1.6765,1.7156,1.8008,1.8365,1.8574,1.8669,2.0808,2.1408,2.9528,3.0658,3.1612,3.2616,3.2867,3.2792,3.2491,3.2014,3.121,2.9829,2.8348,2.7178,0.0,0.0,0.0,2.762,2.875,0.0,2.9779,2.9905,0.0,3.0005,0.0,3.0407,3.0959,3.0884,0.0,0.0,3.1813,3.1964,3.1411,3.2466,3.3111,3.3111,3.3111,3.3111,3.3111,3.3111,3.2939,3.2612,3.1356,3.0911,3.1178,3.0911,3.0395,2.9897,3.0485,3.0033,2.8958,2.8958,2.8958,2.8866,2.8262,2.8049,2.8002,2.7342,2.6935,2.6771,2.7446,2.7796,2.7966,2.7677,2.7412,2.6933,2.5633,2.5028,2.4574,2.3442,2.3101,2.3101,2.3101,2.3101,2.3062,2.2964,2.2734,2.2461,2.2227,2.1934,2.1602,2.1152,2.0801,2.0605,2.0605,2.0507,2.0254,1.9824,1.9668,1.9515,1.9438,1.8594,1.8245,1.8877,1.8395,1.8008,1.8008,1.791,1.7852,1.7852,1.7734,1.7676,1.7676,1.7676,1.7676,1.7676,1.7676,1.7776,1.8009,1.8108,1.8481,1.9153,2.0363,2.1164,3.1311,3.2315,3.3043,3.3345,3.3068,3.2491,3.1687,3.0884,2.9704,2.7534,2.6189,0.0,2.3979,0.0,0.0,0.0,0.0,0.0,2.9729,3.0005,3.0156,0.0,3.0557,0.0,3.1286,3.1537,3.1712,0.0,3.2039,3.2089,3.1763,3.2591,3.3111,3.3111,3.3111,3.3111,3.3111,3.2021,3.1733,3.2239,3.0463,3.0169,3.1178,3.0643,3.0033,2.9396,0.0,2.8912,2.7767,2.7767,2.7767,2.7746,2.7626,2.7268,2.6764,2.6572,2.6207,2.5771,2.6524,2.6987,2.742,2.7921,2.7767,2.7146,2.603,2.5372,2.4755,2.3713,2.3418,2.3379,2.314,2.3101,2.3101,2.3101,2.2906,2.2691,2.2559,2.2324,2.2031,2.1602,2.1172,2.0859,2.0859,2.0742,2.0527,2.0234,2.0039,2.0024,2.044,1.9158,1.8454,1.8947,1.8412,1.8008,1.8008,1.8008,1.8008,1.8008,1.8008,1.8008,1.8008,1.8008,1.8008,1.8008,1.8008,1.8212,1.8563,1.8563,1.8811,1.9309,2.0204,2.0655,3.2893,3.3596,3.3997,3.3922,3.3119,3.2014,3.0783,2.9528,2.7809,2.5126,0.0,2.3025,2.1672,2.2698,2.418,2.5385,0.0,2.8423,2.9628,3.0131,3.0392,3.0507,3.1263,3.1822,3.1947,3.2237,3.2301,3.2198,3.2047,3.1938,3.1938,3.2529,3.2742,3.2612,3.2612,3.2612,3.2612,3.0463,2.9943,3.0956,2.8819,2.8866,3.0687,2.9806,2.9235,2.8866,0.0,0.0,2.5965,2.5965,2.5965,2.6062,2.7173,2.6791,2.582,2.6935,2.6668,2.5693,2.5693,2.5693,2.6003,2.765,2.7567,2.663,2.6127,2.5275,2.4414,2.3984,2.3828,2.3711,2.3276,2.314,2.3101,2.3101,2.3101,2.2984,2.2676,2.2559,2.2402,2.2031,2.1621,2.1288,2.1288,2.0957,2.0703,2.0703,2.0273,2.0244,2.1007,1.9709,1.873,1.8852,1.8468,1.8184,1.8184,1.8184,1.8184,1.8184,1.8184,1.8144,1.8086,1.8086,1.8066,1.8008,1.8008,1.8361,1.9144,1.9144,1.9177,1.9309,2.0074,2.0074,3.3571,3.4148,3.4474,3.4022,3.342,3.239,3.0407,2.8348,0.0,0.0,2.1895,2.0589,2.0792,2.1794,2.3251,2.5259,0.0,0.0,0.0,0.0,2.9402,0.0,0.0,0.0,0.0,0.0,0.0,0.0,0.0,3.0697,3.0697,3.1201,3.1089,3.0102,3.0056,3.0056,3.0056,2.9579,2.9487,2.9715,2.928,2.8773,2.8262,2.905,2.8262,2.638,2.722,0.0,2.7268,2.7268,2.7268,2.7315,2.7505,2.6791,2.5742,2.5965,2.5868,2.5693,2.5693,2.5693,2.5771,2.6108,2.6088,2.5816,2.5409,2.5149,2.4863,2.4434,2.4062,2.3769,2.3691,2.3418,2.3101,2.3101,2.3101,2.3081,2.3003,2.2711,2.248,2.2422,2.2051,2.1777,2.1777,2.1406,2.1113,2.1113,2.0742,2.0526,2.0681,1.9819,1.9449,2.018,1.9569,1.9062,1.9062,1.9062,1.9062,1.9062,1.9062,1.8906,1.85,1.85,1.8325,1.8008,1.8008,1.8076,1.8245,1.8245,1.8596,1.9309,1.9474,1.9814,3.4248,3.4525,3.465,3.4399,3.3043,3.121,2.9001,0.0,0.0,0.0,2.0111,1.9309,1.9032,2.0564,0.0,2.3678,0.0,0.0,0.0,0.0,0.0,0.0,0.0,0.0,0.0,0.0,0.0,0.0,0.0,3.1804,3.1804,3.1412,3.0643,2.9442,2.9396,2.9396,2.9396,2.8773,2.8773,2.9418,2.8773,2.8495,2.8541,2.9143,2.8402,2.6716,2.7315,0.0,2.662,2.662,2.662,2.662,2.662,2.6255,2.5693,2.5693,2.5693,2.5693,2.5693,2.5693,2.5693,2.5693,2.5693,2.5654,2.5488,2.541,2.5312,2.4883,2.4609,2.4394,2.418,2.3809,2.3477,2.3477,2.3257,2.3101,2.3101,2.2945,2.2789,2.2789,2.25,2.2207,2.2207,2.1855,2.1504,2.1229,2.1055,2.1017,2.13,2.0971,2.0569,2.0272,1.967,1.9297,1.9297,1.9297,1.9297,1.9297,1.9297,1.9199,1.8984,1.8965,1.8887,1.8672,1.8672,1.8672,1.8672,1.8672,1.8883,1.9318,1.9318,1.9506,3.4525,3.4625,3.4655,3.4575,3.2641,3.0156,2.7821,2.5385,0.0,0.0,1.8707,1.823,1.7526,0.0,2.1117,0.0,2.3853,2.5787,0.0,0.0,0.0,0.0,0.0,0.0,0.0,0.0,0.0,0.0,0.0,0.0,3.2351,3.138,3.0259,2.905,2.928,2.9396,2.9396,2.8168,2.8096,2.9004,2.7767,2.7673,2.8634,2.8634,2.8075,2.7173,2.7173,0.0,0.0,2.611,2.611,2.611,2.611,2.5917,2.5693,2.5693,2.5693,2.5693,2.5693,2.5693,2.5693,2.5693,2.5693,2.5693,2.5693,2.5693,2.5615,2.5312,2.5184,2.5047,2.4648,2.4238,2.3906,2.3809,2.3457,2.3101,2.3101,2.3101,2.3101,2.3101,2.2828,2.2656,2.2656,2.2305,2.1894,2.1522,2.1385,2.1471,2.1809,2.1824,2.1392,2.0174,1.9932,1.9882,1.9882,1.9698,1.9607,1.9607,1.9607,1.9512,1.9434,1.9434,1.9375,1.9297,1.9297,1.9297,1.9297,1.9532,1.9495,1.9314,1.9749,1.9801,3.3847,3.4349,3.46,3.4098,3.2641,3.0608,2.7896,0.0,0.0,1.9484,1.7779,1.6873,1.7322,0.0,0.0,0.0,0.0,2.4449,0.0,0.0,0.0,0.0,0.0,0.0,0.0,0.0,0.0,0.0,0.0,0.0,2.9875,2.9624,2.9004,2.7814,2.8819,2.9396,2.9396,2.8168,2.7673,2.7767,2.6476,2.5917,2.6062,2.6062,2.5965,2.5868,2.5868,0.0,0.0,2.7458,2.7458,2.7458,2.7458,2.6716,2.5693,2.5693,2.5693,2.5693,2.5693,2.5693,2.5693,2.5693,2.5693,2.5693,2.5693,2.5693,2.5674,2.5635,2.5371,2.5106,2.5067,2.4687,2.4258,2.3887,2.3457,2.3101,2.3101,2.3101,2.3101,2.3101,2.3062,2.3042,2.3042,2.2691,2.2441,2.2402,2.207,2.1701,2.1311,2.1292,2.1075,2.0586,2.1273,2.1761,2.1761,2.0968,2.0488,2.0488,2.0488,2.0273,1.9883,1.9863,1.9668,1.9297,1.9297,1.9297,1.9297,2.0232,2.0196,1.935,2.1131,2.1481,3.3244,3.3796,3.4098,3.3545,3.1637,2.9277,2.6816,0.0,2.079,1.8907,1.7428,1.6575,1.6823,1.7325,1.8279,0.0,0.0,0.0,2.47,0.0,0.0,0.0,0.0,0.0,0.0,0.0,0.0,0.0,0.0,0.0,3.0574,3.0485,2.9943,2.8727,2.9143,2.9396,2.9396,2.8168,2.76,2.7579,2.6284,2.5693,2.5693,2.5693,2.5693,2.5693,2.5693,0.0,0.0,2.6476,2.6476,2.6524,2.7315,2.6791,2.5868,2.7389,2.7484,2.6839,2.6839,2.6839,2.6716,2.5965,2.5693,2.5693,2.5693,2.5693,2.5693,2.5693,2.5557,2.5469,2.5469,2.5137,2.4707,2.4277,2.3848,2.3535,2.3535,2.3276,2.3101,2.3101,2.3101,2.3101,2.3101,2.2964,2.2769,2.2559,2.2363,2.2298,2.2473,2.2452,2.2548,2.2751,2.1806,2.1145,2.1145,2.0818,2.0605,2.0605,2.0605,2.0527,2.0312,2.0312,2.0273,2.0096,2.0096,2.0341,2.092,2.1308,2.1639,2.1859,2.262,2.28,3.234,3.2867,3.3093,3.2867,3.0733,2.806,0.0,2.2924,2.0189,1.8329,1.7177,1.65,1.65,1.6999,1.7752,1.8832,0.0,2.0891,2.3271,0.0,0.0,0.0,0.0,0.0,0.0,0.0,0.0,0.0,0.0,0.0,3.1821,3.1777,3.1178,2.9943,3.0328,3.0508,3.0508,2.8912,2.8143,2.8096,2.6476,2.5693,2.5693,2.5693,2.5693,2.5693,0.0,0.0,0.0,2.5693,2.5693,2.5791,2.6716,2.6476,2.5917,2.7673,2.7767,2.703,2.703,2.703,2.6907,2.5965,2.5693,2.5693,2.5693,2.5693,2.5693,2.5693,2.5693,2.5693,2.5693,2.541,2.5047,2.4687,2.4277,2.3945,2.3828,2.3555,2.3257,2.312,2.3101,2.3101,2.3101,2.3387,2.3398,2.2777,2.2975,2.3135,2.3084,2.3063,2.3183,2.3513,2.2024,2.1115,2.1433,2.0934,2.0722,2.1011,2.0741,2.0605,2.0605,2.0605,2.0605,2.0605,2.0605,2.1049,2.2,2.228,2.2802,2.3526,2.4108,2.4397,3.0959,3.1411,3.1537,3.2089,3.0156,2.7544,2.5302,2.2673,2.0063,1.7876,1.6923,1.65,1.65,1.6999,1.7752,1.8832,1.9936,0.0,2.4406,0.0,0.0,0.0,0.0,0.0,0.0,0.0,0.0,0.0,0.0,0.0,3.3068,3.3068,3.2525,3.1223,3.237,3.3068,3.3068,3.0598,2.935,2.935,2.6887,2.5693,2.5693,2.5693,2.5693,0.0,0.0,0.0,0.0,2.5693,2.5693,2.5693,2.5693,2.5693,2.5693,2.5742,2.5742,2.5742,2.5742,2.5742,2.5742,2.5693,2.5693,2.5693,2.5693,2.5693,2.5693,2.5693,2.5693,2.5693,2.5693,2.541,2.5106,2.5106,2.4727,2.4297,2.3887,2.3789,2.3652,2.3179,2.3101,2.3101,2.3101,2.4039,2.4425,2.3256,2.4039,2.4217,2.2729,2.25,2.2344,2.1975,2.1916,2.2331,2.3372,2.1718,2.1011,2.1924,2.1106,2.0605,2.0605,2.0605,2.0605,2.0605,2.0605,2.1049,2.2,2.2988,2.3489,2.3562,2.5546,2.6465,2.7907,2.885,2.9377,2.8021,2.6766,2.5285,2.305,2.0991,1.9133,1.77,1.6923,1.65,1.65,1.6672,1.74,1.9258,1.9836,0.0,0.0,0.0,0.0,0.0,0.0,0.0,0.0,0.0,0.0,0.0,0.0,0.0,3.3111,3.3111,3.2939,3.2525,3.2896,3.3111,3.3111,3.1468,3.0619,3.0643,2.8982,2.7814,2.6982,2.6982,0.0,0.0,0.0,0.0,0.0,2.5693,2.5693,2.5791,2.6668,2.6476,2.5917,2.7626,2.772,2.6982,2.6982,2.6982,2.686,2.5965,2.5693,2.5693,2.5693,2.5693,2.5693,2.5693,2.5693,2.5693,2.5693,2.5625,2.5527,2.5527,2.5176,2.4824,2.4734,2.4199,2.375,2.3613,2.334,2.3101,2.3101,2.3387,2.3517,2.3125,2.343,2.3457,2.2949,2.2906,2.2773,2.2363,2.2305,2.2201,2.1963,2.1372,2.1291,2.1945,2.1126,2.0895,2.1527,2.0934,2.0605,2.0605,2.0605,2.1049,2.2,2.301,2.4217,2.5581,2.6198,2.6499,2.577,2.6892,2.7394,2.6214,2.5209,2.3929,2.1722,2.0062,1.8632,1.7325,1.6773,1.65,1.65,1.6697,1.73,1.8656,1.9233,0.0,0.0,0.0,0.0,0.0,0.0,0.0,0.0,0.0,0.0,0.0,0.0,0.0,3.3111,3.3111,3.3111,3.3111,3.3111,3.3111,3.3111,3.1821,3.1223,3.1178,2.9988,2.8773,2.76,2.76,0.0,0.0,0.0,0.0,0.0,2.5693,2.5693,2.5791,2.6572,2.638,2.5868,2.7437,2.7531,2.6887,2.6887,2.6887,2.6764,2.5965,2.6014,2.6428,2.6428,2.6062,2.5693,2.5693,2.5693,2.5693,2.5693,2.5693,2.5693,2.5693,2.5527,2.5273,2.5145,2.4648,2.4219,2.4062,2.3672,2.3335,2.3335,2.3573,2.3584,2.3169,2.3474,2.3604,2.3188,2.3101,2.2984,2.273,2.2711,2.2461,2.1736,2.1562,2.177,2.2446,2.2,2.1961,2.2562,2.2202,2.1812,2.1445,2.1609,2.1811,2.2,2.3415,2.4921,2.6499,2.6499,2.6499,0.0,2.5184,2.536,2.5795,2.4789,2.3075,2.0943,1.9635,0.0,1.6826,1.65,1.6525,1.66,1.6999,1.7423,1.7649,0.0,0.0,0.0,0.0,0.0,0.0,0.0,0.0,0.0,0.0,0.0,0.0,0.0,0.0,3.3111,3.3111,3.3111,3.3111,3.3111,3.3111,3.3111,3.1909,3.1356,3.1311,3.0169,2.905,2.7861,2.7861,0.0,0.0,0.0,0.0,0.0,2.5868,2.5839,2.582,2.5917,2.5917,2.582,2.5917,2.5965,2.5965,2.5965,2.5965,2.5965,2.5965,2.6764,2.772,2.772,2.6887,2.5965,2.5868,2.5917,2.5965,2.5965,2.5965,2.5917,2.5868,2.5839,2.5722,2.5243,2.5145,2.4941,2.4531,2.4121,2.3828,2.3789,2.4341,2.438,2.3276,2.3996,2.4296,2.3256,2.3101,2.3144,2.3212,2.3212,2.3055,2.2706,2.221,2.2328,2.3241,2.3343,2.3463,2.3623,2.4018,2.3853,2.3066,2.3414,2.3187,2.2268,2.4164,2.5584,2.6499,2.6575,2.66,2.0061,0.0,2.1597,2.0439,2.0162,1.981,0.0,1.7976,1.7526,1.6697,1.65,1.6751,1.7652,1.72,1.7551,2.0112,0.0,0.0,0.0,0.0,0.0,0.0,0.0,0.0,0.0,0.0,0.0,0.0,0.0,3.3111,3.3111,3.3111,3.3111,3.3111,3.3111,3.3111,3.3111,3.2785,3.2655,3.2655,3.2394,3.1557,3.035,3.035,0.0,0.0,0.0,0.0,2.8448,2.7531,2.7125,2.7268,2.8168,2.7955,2.7268,2.8168,2.8541,2.8541,2.8541,2.8541,2.8541,2.8541,2.8727,2.9004,2.9004,2.8773,2.8355,2.741,2.7814,2.8541,2.8541,2.8541,2.8308,2.7363,2.7125,2.6867,2.5779,2.5312,2.5086,2.4941,2.457,2.416,2.3848,2.3915,2.3806,2.3184,2.3343,2.3387,2.3144,2.3101,2.343,2.4296,2.4425,2.4383,2.428,2.3088,2.2605,2.3262,2.2635,2.2981,2.4574,2.401,2.4006,2.4654,2.4752,2.4846,2.4918,2.5782,2.6323,2.6524,2.7318,2.7494,1.7704,1.9233,2.049,1.9585,1.956,1.9484,1.838,1.7752,1.7247,1.6626,1.65,1.6776,1.7677,1.7526,0.0,0.0,2.074,0.0,0.0,0.0,0.0,0.0,0.0,0.0,0.0,0.0,0.0,0.0,0.0,3.3111,3.3111,3.3111,3.3111,3.3111,3.3111,3.3111,3.3111,3.3111,3.3111,3.3111,3.3111,3.2413,3.1223,3.1223,3.053,0.0,0.0,0.0,2.9372,2.868,2.8402,2.8495,2.912,2.9004,2.8495,2.9189,2.9396,2.9396,2.9396,2.9396,2.9487,3.0033,3.0214,3.0214,3.0214,3.0643,3.0732,2.8912,2.8912,2.9396,2.9396,2.9396,2.9235,2.8588,2.8402,2.8215,2.7531,2.7228,2.7061,2.7061,2.6731,2.6334,2.6127,2.5918,2.5511,2.471,2.4398,2.4058,2.3482,2.3218,2.3343,2.3973,2.451,2.4787,2.4787,2.4028,2.3465,2.3202,2.3202,2.3743,2.4849,2.5112,2.5636,2.6524,2.5624,2.5776,2.6834,2.6695,2.6809,2.7243,2.7821,2.7946,1.6801,1.8731,2.0591,2.0163,2.0239,2.0138,1.9008,1.8053,1.725,0.0,0.0,0.0,0.0,1.8129,0.0,0.0,0.0,0.0,0.0,0.0,0.0,0.0,0.0,0.0,0.0,0.0,0.0,0.0,0.0,3.3111,3.3111,3.3111,3.3111,3.3111,3.3111,3.3111,3.3111,3.3111,3.3111,3.3111,3.3111,3.2525,3.1488,3.1488,3.0956,0.0,0.0,0.0,2.9943,2.9761,2.967,2.967,2.992,2.9852,2.967,2.9897,2.9943,2.9943,2.9943,2.9943,3.0124,3.1178,3.1488,3.1488,3.1488,3.2239,3.2655,3.0553,2.9943,2.9943,2.9943,2.9943,2.992,2.9715,2.967,2.9624,2.9442,2.9396,2.9396,2.9396,2.9127,2.8858,2.8791,2.8475,2.7854,2.6752,2.6233,2.5541,2.4361,2.3762,2.3485,2.3442,2.4251,2.4872,2.5041,2.5041,2.4681,2.3691,2.4211,2.4702,2.5041,2.656,2.7714,2.8336,2.6723,2.6676,2.8222,2.7432,2.7445,2.8097,2.8273,2.8323,1.823,1.9635,2.0138,1.7752,1.8205,1.8982,1.7877,1.7524,1.7373,0.0,0.0,0.0,0.0,1.951,2.0363,0.0,0.0,0.0,0.0,0.0,0.0,0.0,0.0,0.0,0.0,0.0,0.0,0.0,0.0,0.0,3.3111,3.3111,3.3111,3.3111,3.3111,3.3111,3.3111,3.3111,3.3111,3.3111,3.3111,3.2982,3.281,3.281,3.2698,0.0,0.0,3.1557,3.2438,3.1356,3.0911,3.1045,3.2108,3.1865,3.1045,3.2152,3.2525,3.2525,3.2525,3.2525,3.2568,3.2742,3.281,3.281,3.281,3.2939,3.3025,3.2655,3.2525,3.2525,3.2525,3.2525,3.2239,3.1178,3.0911,3.0619,2.9624,2.9396,2.9396,2.9396,2.9351,2.9217,2.8858,2.8723,2.8477,2.7919,2.7742,2.7305,2.6067,2.5493,2.5157,2.5047,2.491,2.521,2.613,2.6235,2.613,2.5986,2.4339,2.4231,2.613,2.7371,2.8479,2.9528,2.9258,2.8971,2.8762,2.9124,2.8875,2.8122,2.9076,2.9277,1.7428,1.8682,1.9484,1.818,1.9334,2.0589,1.9786,1.9133,1.8681,0.0,0.0,0.0,0.0,0.0,2.2493,2.531,0.0,0.0,0.0,0.0,0.0,0.0,0.0,0.0,0.0,0.0,0.0,0.0,0.0,0.0,3.3111,3.3111,3.3111,3.3111,3.3111,3.3111,3.3111,3.3111,3.3111,3.3111,3.3111,3.3111,3.3111,3.3111,3.3111,3.3068,0.0,3.2568,3.3068,3.2481,3.2239,3.2283,3.2896,3.2742,3.2283,3.2896,3.3111,3.3111,3.3111,3.3111,3.3111,3.3111,3.3111,3.3111,3.3111,3.3111,3.3111,3.3111,3.3111,3.3111,3.3111,3.3111,3.2939,3.237,3.2239,3.2064,3.1512,3.138,3.138,3.138,3.138,3.1352,3.1157,3.1109,3.0795,2.9922,2.9578,2.9001,2.781,2.7239,2.6693,2.5946,2.6237,2.6581,2.6802,2.6822,2.671,2.6505,2.4935,2.4999,2.7279,2.7279,2.8028,2.974,2.9804,2.9654,2.9402,2.9654,2.9528,2.9026,2.9553,2.9654,1.7202,1.8205,1.9259,1.9509,2.0738,2.192,2.187,2.1016,2.0313,2.069,0.0,0.0,0.0,2.3301,0.0,0.0,0.0,0.0,0.0,0.0,0.0,0.0,0.0,0.0,0.0,0.0,0.0,0.0,0.0,0.0,3.2692,3.2692,3.2692,3.2692,3.2692,3.2692,3.2692,3.2692,3.286,3.3111,3.3111,3.3111,3.3111,3.3111,3.3111,3.3111,3.3111,3.3111,3.3111,3.3111,3.3111,3.3111,3.3111,3.3111,3.3111,3.3111,3.3111,3.3111,3.3111,3.3111,3.3111,3.3111,3.3111,3.3111,3.3111,3.3111,3.3111,3.3111,3.3111,3.3111,3.3111,3.3111,3.3111,3.3111,3.3111,3.3111,3.3111,3.3111,3.3111,3.3111,3.3111,3.3111,3.3111,3.3111,3.2742,3.1777,3.1395,3.0739,2.9528,2.8961,2.8206,2.7013,2.7525,2.7912,2.7742,2.7859,2.7796,2.7469,2.603,2.6066,2.8004,2.7319,2.7787,2.974,2.9804,2.9804,2.9804,2.9804,2.9804,2.9804,2.9804,2.9804,1.9284,1.966,1.9987,2.1041,2.1069,2.1194,2.2644,2.2171,2.182,2.3376,0.0,0.0,0.0,2.5963,0.0,0.0,0.0,0.0,0.0,0.0,0.0,0.0,0.0,0.0,0.0,0.0,0.0,0.0,0.0,0.0,3.1537,3.1512,3.1512,3.1512,3.1512,3.1512,3.1512,3.1512,3.2039,3.3111,3.3111,3.3111,3.3111,3.3111,3.3111,3.3111,3.3111,3.3111,3.3111,3.3111,3.3111,3.3111,3.3111,3.3111,3.3111,3.3111,3.3111,3.3111,3.3111,3.3111,3.3111,3.3111,3.3111,3.3111,3.3111,3.3111,3.3111,3.3111,3.3111,3.3111,3.3111,3.3111,3.3111,3.3111,3.3111,3.3111,3.3111,3.3111,3.3111,3.3111,3.3111,3.3111,3.3111,3.3111,3.3068,3.2982,3.2957,3.2451,3.1219,3.068,2.9957,2.8768,2.8319,2.8502,2.9503,3.0049,3.0343,3.0318,2.7801,2.6912,2.8044,2.8004,2.8569,2.9804,2.9804,2.9804,2.9804,2.9804,2.9804,2.9804,2.9804,2.9804,1.8179,1.9032,1.9987,2.0817,2.1594,2.2447,2.3452,2.3853,2.4431,2.5762,2.5862,0.0,0.0,0.0,0.0,0.0,0.0,0.0,0.0,0.0,0.0,0.0,0.0,0.0,0.0,0.0,0.0,0.0,0.0,0.0,0.0,3.1386,0.0,3.1386,3.1386,3.1386,3.1386,3.1386,3.1612,3.2039,3.2039,3.2215,3.2541,3.2541,3.2742,3.3111,3.3111,3.3111,3.3111,3.3111,3.3111,3.3111,3.3111,3.3111,3.3111,3.3111,3.3111,3.3111,3.3111,3.3111,3.3111,3.3111,3.3111,3.3111,3.3111,3.3111,3.3111,3.3111,3.3111,3.3111,3.3111,3.3111,3.3111,3.3111,3.3111,3.3111,3.3111,3.3111,3.3111,3.3111,3.3111,3.3111,3.3111,3.3111,3.3111,3.3111,3.3111,3.2939,3.2413,3.2241,3.1661,3.0451,2.9852,2.9699,3.0153,3.0728,3.0959,3.0633,2.8659,2.7988,2.9106,2.8466,2.8648,2.9779,2.9804,2.9804,2.9804,2.9804,2.9804,2.9804,2.9804,2.9804,1.7727,1.8581,1.9736,2.0515,2.1769,2.3221,2.4707,2.5611,2.649,2.7795,2.7795,2.7645,2.7996,0.0,0.0,0.0,0.0,0.0,0.0,0.0,0.0,0.0,0.0,0.0,0.0,0.0,0.0,0.0,0.0,0.0,0.0,3.0884,0.0,0.0,3.0884,3.0884,3.0884,3.0884,3.0884,3.0884,3.0884,3.1361,3.2215,3.2215,3.2541,3.3111,3.3111,3.3111,3.3111,3.3111,3.3111,3.3111,3.3111,3.3111,3.3111,3.3111,3.3111,3.3111,3.3111,3.3111,3.3111,3.3111,3.3111,3.3111,3.3111,3.3111,3.3111,3.3111,3.3111,3.3111,3.3111,3.3111,3.3111,3.3111,3.3111,3.3111,3.3111,3.3111,3.3111,3.3111,3.3111,3.3111,3.3111,3.3111,3.3111,3.3111,3.3111,3.3111,3.3111,3.3111,3.2742,3.1865,3.1462,3.1245,3.1245,3.1479,3.1512,3.1135,2.9852,2.9331,2.9765,2.9067,2.8988,2.9779,2.9804,2.9804,2.9804,2.9804,2.9804,2.9804,2.9804,2.9804,1.848,1.8606,1.9284,2.0415,2.1518,2.3226,2.654,2.7329,2.777,2.9453,2.89,2.8473,2.9578,0.0,0.0,0.0,0.0,0.0,0.0,0.0,0.0,0.0,0.0,0.0,0.0,0.0,0.0,0.0,0.0,0.0,0.0,0.0,0.0,0.0,2.9804,2.9804,2.9804,2.9804,2.9804,2.9804,2.9804,3.0633,3.219,3.219,3.2516,3.3068,3.3068,3.3111,3.3111,3.3111,3.3111,3.3111,3.3111,3.3111,3.3111,3.3111,3.3111,3.3111,3.3111,3.3111,3.3111,3.3111,3.3111,3.3111,3.3111,3.3111,3.3111,3.3111,3.3111,3.3111,3.3111,3.3111,3.3111,3.3111,3.3111,3.3111,3.3111,3.3111,3.3111,3.3111,3.3111,3.3111,3.3111,3.3111,3.3111,3.3111,3.3111,3.3111,3.3111,3.3111,3.3111,3.3111,3.3111,3.3111,3.3111,3.2541,3.2215,3.2215,3.1712,3.0909,2.9854,2.9804,2.9804,2.9804,2.9804,2.9804,2.9804,2.9804,2.9804,2.9804,2.9804,2.9804,1.7928,1.8906,0.0,2.1094,0.0,0.0,0.0,2.7871,0.0,0.0,3.0105,2.9729,2.9239,0.0,0.0,0.0,0.0,0.0,0.0,0.0,0.0,0.0,0.0,0.0,0.0,0.0,0.0,0.0,0.0,0.0,0.0,0.0,0.0,0.0,2.9804,2.9804,2.9804,2.9804,2.9804,2.9804,2.9804,3.0256,3.1085,3.1085,3.1386,3.1888,3.1888,3.2114,3.2491,3.2918,3.3111,3.3111,3.3111,3.3111,3.3111,3.3111,3.3111,3.3111,3.3111,3.3111,3.3111,3.3111,3.3111,3.3111,3.3111,3.3111,3.3111,3.3111,3.3111,3.3111,3.3111,3.3111,3.3111,3.3111,3.3111,3.3111,3.3111,3.3111,3.3111,3.3111,3.3111,3.3111,3.3111,3.3111,3.3111,3.3111,3.3111,3.3111,3.3111,3.3111,3.3111,3.3111,3.3111,3.3111,3.3111,3.2918,3.2641,3.224,3.2064,3.1662,3.0934,3.0909,3.0758,3.0382,3.0357,3.0181,2.9804,2.9804,2.9804,2.9804,2.9804,2.9804,1.8781,1.9837,0.0,2.2498,2.4481,2.6549,2.8072,0.0,0.0,0.0,0.0,2.9841,2.9615,0.0,0.0,0.0,0.0,0.0,0.0,0.0,0.0,0.0,0.0,0.0,0.0,0.0,0.0,0.0,0.0,0.0,0.0,0.0,0.0,0.0,2.9804,2.9804,2.9804,2.9804,2.9804,2.9804,2.9804,2.9955,3.0306,3.0507,3.0909,3.1386,3.1386,3.1587,3.1938,3.2491,3.2742,3.2767,3.2993,3.3111,3.3111,3.3111,3.3111,3.3111,3.3111,3.3111,3.3111,3.3111,3.3111,3.3111,3.3111,3.3111,3.3111,3.3111,3.3111,3.3111,3.3111,3.3111,3.3111,3.3111,3.3111,3.3111,3.3111,3.3111,3.3111,3.3111,3.3111,3.3111,3.3111,3.3111,3.3111,3.3111,3.3111,3.3111,3.3111,3.3111,3.3111,3.3111,3.3111,3.3111,3.3111,3.3111,3.2918,3.2566,3.2566,3.2416,3.2064,3.1637,3.1235,3.0934,3.0934,3.0758,3.0432,3.0432,3.0432,3.0432,3.0432,3.0432,2.0264,2.1069,2.2096,2.4249,2.536,0.0,2.8487,2.9428,3.008,3.1035,0.0,2.9289,0.0,0.0,0.0,0.0,0.0,0.0,0.0,0.0,0.0,0.0,0.0,0.0,0.0,0.0,0.0,0.0,0.0,0.0,0.0,0.0,0.0,2.9804,2.9804,2.9804,2.9804,2.9804,2.9804,0.0,2.9804,2.9804,2.9804,3.0306,3.0809,3.126,3.1311,3.1311,3.1361,3.1913,3.2164,3.2265,3.2792,3.3043,3.3111,3.3111,3.3111,3.3111,3.3111,3.3111,3.3111,3.3111,3.3111,3.3111,3.3111,3.3111,3.3111,3.3111,3.3111,3.3111,3.3111,3.3111,3.3111,3.3111,3.3111,3.3111,3.3111,3.3111,3.3111,3.3111,3.3111,3.3111,3.3111,3.3111,3.3111,3.3111,3.3111,3.3111,3.3111,3.3111,3.3111,3.3111,3.3111,3.3111,3.3111,3.3111,3.3111,3.3111,3.3111,3.3111,3.3111,3.2089,3.1512,3.1461,3.1461,3.1436,3.1386,3.1386,3.1386,3.1386,3.1386,3.1386,1.9284,2.074,0.0,0.0,2.6506,2.8448,2.9402,2.9704,2.9854,3.008,0.0,0.0,0.0,0.0,0.0,0.0,0.0,0.0,0.0,0.0,0.0,0.0,0.0,0.0,0.0,0.0,0.0,0.0,0.0,0.0,0.0,0.0,0.0,2.9804,2.9804,2.9804,2.9804,2.9804,2.9804,0.0,2.9804,2.9804,2.9804,2.9905,3.003,3.0156,3.0608,3.0783,3.0809,3.1361,3.1813,3.2215,3.234,3.2667,3.3111,3.3111,3.3111,3.3111,3.3111,3.3111,3.3111,3.3111,3.3111,3.3111,3.3111,3.3111,3.3111,3.3111,3.3111,3.3111,3.3111,3.3111,3.3111,3.3111,3.3111,3.3111,3.3111,3.3111,3.3111,3.3111,3.3111,3.3111,3.3111,3.3111,3.3111,3.3111,3.3111,3.3111,3.3111,3.3111,3.3111,3.3111,3.3111,3.3111,3.3111,3.3111,3.3111,3.3111,3.3111,3.3111,3.3111,3.2842,3.2491,3.2039,3.2039,3.1813,3.1386,3.1386,3.1386,3.1386,3.1386,3.1386,2.0211,0.0,0.0,2.5837,0.0,2.8963,2.9302,2.9603,2.9804,0.0,0.0,0.0,0.0,0.0,0.0,0.0,0.0,0.0,0.0,0.0,0.0,0.0,0.0,0.0,0.0,0.0,0.0,0.0,0.0,0.0,0.0,2.9804,2.9804,2.9804,2.9804,2.9804,2.9804,2.9804,2.9546,2.8988,2.9546,2.9804,2.9804,2.9804,2.9804,2.9804,3.0105,3.0231,3.0256,3.0809,3.1336,3.1838,3.2114,3.2566,3.3111,3.3111,3.3111,3.3111,3.3111,3.3111,3.3111,3.3111,3.3111,3.3111,3.3111,3.3111,3.3111,3.3111,3.3111,3.3111,3.3111,3.3111,3.3111,3.3111,3.3111,3.3111,3.3111,3.3111,3.3111,3.3111,3.3111,3.3111,3.3111,3.3111,3.3111,3.3111,3.3111,3.3111,3.3111,3.3111,3.3111,3.3111,3.3111,3.3111,3.3111,3.3111,3.3111,3.3111,3.3111,3.3111,3.3111,3.3111,3.2943,3.2641,3.2616,3.2491,3.219,3.219,3.219,3.219,3.219,3.219,2.1039,0.0,2.4657,2.7419,2.8373,0.0,2.8737,2.9227,2.9654,0.0,0.0,0.0,0.0,0.0,0.0,0.0,0.0,0.0,0.0,0.0,0.0,0.0,0.0,0.0,0.0,0.0,0.0,0.0,0.0,0.0,2.9804,2.9804,2.9804,2.9804,2.9804,2.9804,2.9804,2.9804,2.9326,2.8386,2.9365,2.9804,2.9804,2.9804,2.9804,2.9804,2.9804,2.9804,2.9829,3.0281,3.0783,3.1311,3.1863,3.2416,3.2943,3.3043,3.3111,3.3111,3.3111,3.3111,3.3111,3.3111,3.3111,3.3111,3.3111,3.3111,3.3111,3.3111,3.3111,3.3111,3.3111,3.3111,3.3111,3.3111,3.3111,3.3111,3.3111,3.3111,3.3111,3.3111,3.3111,3.3111,3.3111,3.3111,3.3111,3.3111,3.3111,3.3111,3.3111,3.3111,3.3111,3.3111,3.3111,3.3111,3.3111,3.3111,3.3111,3.3111,3.3111,3.3111,3.3111,3.3111,3.3111,3.3111,3.3111,3.3111,3.3111,3.3111,3.3111,3.3111,3.3111,3.3111,1.9083,0.0,2.4657,0.0,2.7795,2.762,0.0,0.0,0.0,0.0,0.0,0.0,0.0,0.0,0.0,0.0,0.0,0.0,0.0,0.0,0.0,0.0,0.0,0.0,0.0,0.0,0.0,0.0,0.0,0.0,2.9804,2.9804,2.9804,2.9804,2.9804,2.9804,2.9804,2.9804,2.9702,2.9585,2.9702,2.9804,2.9804,2.9804,2.9804,2.9804,2.9804,2.9804,2.9804,2.988,3.0231,3.0758,3.1286,3.1838,3.239,3.2893,3.3111,3.3111,3.3111,3.3111,3.3111,3.3111,3.3111,3.3111,3.3111,3.3111,3.3111,3.3111,3.3111,3.3111,3.3111,3.3111,3.3111,3.3111,3.3111,3.3111,3.3111,3.3111,3.3111,3.3111,3.3111,3.3111,3.3111,3.3111,3.3111,3.3111,3.3111,3.3111,3.3111,3.3111,3.3111,3.3111,3.3111,3.3111,3.3111,3.3111,3.3111,3.3111,3.3111,3.3111,3.3111,3.3111,3.3111,3.3111,3.3111,3.3111,3.3111,3.3111,3.3111,3.3111,3.3111,3.3111,2.0588,2.2619,2.4582,0.0,2.7469,2.7344,2.7595,0.0,0.0,0.0,0.0,0.0,0.0,0.0,0.0,0.0,0.0,0.0,0.0,0.0,0.0,0.0,0.0,0.0,0.0,0.0,0.0,0.0,0.0,2.9804,2.9804,2.9804,2.9804,2.9804,2.9804,2.9804,2.9804,2.9804,2.9804,2.9779,2.9145,2.9184,2.9804,2.9804,2.9804,2.9804,2.9804,2.9804,2.9804,2.9804,3.0131,3.0658,3.1185,3.1738,3.229,3.2867,3.3111,3.3111,3.3111,3.3111,3.3111,3.3111,3.3111,3.3111,3.3111,3.3111,3.3111,3.3111,3.3111,3.3111,3.3111,3.3111,3.3111,3.3111,3.3111,3.3111,3.3111,3.3111,3.3111,3.3111,3.3111,3.3111,3.3111,3.3111,3.3111,3.3111,3.3111,3.3111,3.3111,3.3111,3.3111,3.3111,3.3111,3.3111,3.3111,3.3111,3.3111,3.3111,3.3111,3.3111,3.3111,3.3111,3.3111,3.3111,3.3111,3.3111,3.3111,3.3111,3.3111,3.3111,3.3111,3.3111,0.0,0.0,2.3678,2.5887,2.6565,2.6741,0.0,0.0,0.0,0.0,0.0,0.0,0.0,0.0,0.0,0.0,0.0,0.0,0.0,0.0,0.0,0.0,0.0,0.0,0.0,0.0,0.0,0.0,0.0,2.9804,2.9804,2.9804,2.9804,2.9804,2.9804,2.9804,2.9804,2.9804,2.9804,2.9804,2.8949,2.8988,2.9804,2.9804,2.9804,2.9804,2.9804,2.9804,2.9804,2.9804,3.003,3.0457,3.0984,3.1512,3.2064,3.2641,3.2943,3.3111,3.3111,3.3111,3.3111,3.3111,3.3111,3.3111,3.3111,3.3111,3.3111,3.3111,3.3111,3.3111,3.3111,3.3111,3.3111,3.3111,3.3111,3.3111,3.3111,3.3111,3.3111,3.3111,3.3111,3.3111,3.3111,3.3111,3.3111,3.3111,3.3111,3.3111,3.3111,3.3111,3.3111,3.3111,3.3111,3.3111,3.3111,3.3111,3.3111,3.3111,3.3111,3.3111,3.3111,3.3111,3.3111,3.3111,3.3111,3.3111,3.3111,3.3111,3.3111,3.3111,3.3111,3.3111,0.0,2.0012,0.0,2.3602,2.4556,0.0,0.0,0.0,0.0,0.0,0.0,0.0,0.0,0.0,0.0,0.0,0.0,0.0,0.0,0.0,0.0,0.0,0.0,0.0,0.0,0.0,0.0,0.0,0.0,2.9804,2.9804,2.9804,2.9804,2.9804,2.9804,2.9804,2.9804,2.9804,2.9804,2.9804,2.974,2.974,2.9804,2.9804,2.9804,2.9804,2.9804,2.9804,2.9804,2.9804,2.9804,2.988,3.0432,3.0984,3.1486,3.2064,3.2591,3.3111,3.3111,3.3111,3.3111,3.3111,3.3111,3.3111,3.3111,3.3111,3.3111,3.3111,3.3111,3.3111,3.3111,3.3111,3.3111,3.3111,3.3111,3.3111,3.3111,3.3111,3.3111,3.3111,3.3111,3.3111,3.3111,3.3111,3.3111,3.3111,3.3111,3.3111,3.3111,3.3111,3.3111,3.3111,3.3111,3.3111,3.3111,3.3111,3.3111,3.3111,3.3111,3.3111,3.3111,3.3111,3.3111,3.3111,3.3111,3.3111,3.3111,3.3111,3.3111,3.3111,3.3111,3.3111,0.0,0.0,0.0,2.2447,2.3602,0.0,0.0,0.0,0.0,0.0,0.0,0.0,0.0,0.0,0.0,0.0,0.0,0.0,0.0,0.0,0.0,0.0,0.0,0.0,0.0,0.0,0.0,0.0,0.0,0.0,2.9189,2.9227,2.9402,2.9779,2.9804,2.9804,2.9804,2.9804,2.9804,2.9804,2.9804,2.9804,2.9804,2.9804,2.9804,2.9804,2.9804,2.9804,2.9804,2.9804,2.9804,2.9854,3.0407,3.0934,3.1461,3.2014,3.2566,3.3111,3.3111,3.3111,3.3111,3.3111,3.3111,3.3111,3.3111,3.3111,3.3111,3.3111,3.3111,3.3111,3.3111,3.3111,3.3212,3.352,3.3596,3.3696,3.4048,3.3847,3.3721,3.4073,3.4123,3.4123,3.4123,3.4123,3.4123,3.4123,3.4123,3.4123,3.4123,3.4123,3.4123,3.4123,3.4123,3.4123,3.4123,3.3796,3.3596,3.3596,3.3269,3.3111,3.3111,3.3111,3.3111,3.3111,3.3111,3.3111,3.3111,3.3111,3.3111,3.3111,3.3111,3.3111,1.7955,0.0,0.0,0.0,0.0,0.0,0.0,0.0,0.0,0.0,0.0,0.0,0.0,0.0,0.0,0.0,0.0,0.0,0.0,0.0,0.0,0.0,0.0,0.0,0.0,0.0,0.0,0.0,0.0,0.0,2.8587,2.8612,2.8825,2.9202,2.9402,2.9503,2.9503,2.9704,2.9804,2.9804,2.9804,2.9804,2.9804,2.9804,2.9804,2.9804,2.9804,2.9804,2.9804,2.9804,2.9804,2.9829,3.0206,3.0758,3.1436,3.1813,3.2416,3.3111,3.3111,3.3111,3.3111,3.3111,3.3111,3.3111,3.3111,3.3111,3.3111,3.3111,3.3111,3.3111,3.3111,3.3219,3.3445,3.3822,3.4048,3.4324,3.4831,3.4575,3.4274,3.465,3.468,3.468,3.468,3.468,3.468,3.468,3.468,3.468,3.468,3.468,3.468,3.468,3.468,3.468,3.468,3.4374,3.4173,3.4173,3.3671,3.3345,3.3345,3.3212,3.3111,3.3111,3.3111,3.3111,3.3111,3.3111,3.3111,3.3111,3.3111,3.3111,0.0,0.0,0.0,0.0,0.0,0.0,0.0,0.0,0.0,0.0,0.0,0.0,0.0,0.0,0.0,0.0,0.0,0.0,0.0,0.0,0.0,0.0,0.0,0.0,0.0,0.0,0.0,0.0,0.0,2.8072,2.8072,2.8097,2.8097,2.8097,2.8587,2.8863,2.8888,2.9478,2.9779,2.9804,2.9804,2.9804,2.9804,2.9804,2.9804,2.9804,2.9804,2.9804,2.9804,2.9804,2.9804,2.9804,2.9804,3.0457,3.1386,3.1386,3.2114,3.3111,3.3111,3.3111,3.3111,3.3111,3.3111,3.3111,3.3111,3.3111,3.3111,3.3111,3.3111,3.3111,3.3136,3.3495,3.3897,3.3947,3.4349,3.4856,3.5408,3.5107,3.4731,3.4731,3.4731,3.4731,3.4731,3.4731,3.4731,3.4731,3.4731,3.4731,3.4731,3.4731,3.4731,3.4731,3.4731,3.4731,3.4731,3.4705,3.4705,3.4705,3.4223,3.3897,3.3897,3.337,3.3111,3.3111,3.3111,3.3111,3.3111,3.3111,3.3111,3.3111,3.3111,3.3111,1.66,0.0,0.0,0.0,0.0,0.0,0.0,0.0,0.0,0.0,0.0,0.0,0.0,0.0,0.0,0.0,0.0,0.0,0.0,0.0,0.0,0.0,0.0,0.0,0.0,0.0,0.0,0.0,2.6952,2.7128,2.7494,2.7896,2.8097,2.8097,2.8247,2.8524,2.8888,2.9076,2.9377,2.9804,2.9804,2.9804,2.9804,2.9804,2.9804,2.9804,2.9804,2.9804,2.9804,2.9804,2.9804,2.9804,2.9804,3.0457,3.1386,3.1386,3.2114,3.3111,3.3111,3.3111,3.3111,3.3111,3.3111,3.3111,3.3111,3.3111,3.3111,3.3111,3.3111,3.3212,3.3571,3.3796,3.4098,3.4856,3.5157,3.5433,3.6006,3.6006,3.5952,3.5952,3.5952,3.5952,3.5952,3.5952,3.5952,3.5952,3.5952,3.5952,3.5952,3.5952,3.5952,3.5952,3.5952,3.5952,3.5952,3.5554,3.5282,3.5282,3.4424,3.3897,3.3897,3.337,3.3111,3.3111,3.3111,3.3111,3.3111,3.3111,3.3111,3.3111,3.3111,3.3111,1.7024,1.73,0.0,0.0,0.0,0.0,0.0,2.1217,0.0,0.0,0.0,0.0,0.0,0.0,0.0,0.0,0.0,0.0,0.0,0.0,0.0,0.0,0.0,0.0,0.0,0.0,0.0,2.6499,2.6499,2.6625,2.6952,2.7278,2.7419,2.7419,2.7645,2.7921,2.8247,2.8662,2.9063,2.9428,2.9679,2.9804,2.9804,2.9804,2.9804,2.9804,2.9804,2.9804,2.9804,2.9804,2.9804,2.9804,2.9804,3.0457,3.1386,3.1386,3.2114,3.3111,3.3111,3.3111,3.3111,3.3111,3.3111,3.3111,3.3111,3.3111,3.3111,3.3111,3.3244,3.3495,3.3822,3.4248,3.4751,3.5332,3.5683,3.5981,3.6329,3.6405,3.6405,3.6405,3.6405,3.6405,3.6405,3.6405,3.6405,3.6405,3.6405,3.6405,3.6405,3.6405,3.6405,3.6405,3.6405,3.6405,3.6405,3.6081,3.5881,3.5881,3.5077,3.4474,3.4248,3.3721,3.3319,3.3093,3.3111,3.3111,3.3111,3.3111,3.3111,3.3111,3.3111,3.3111,1.7702,1.7978,0.0,0.0,0.0,0.0,2.1741,2.1064,0.0,0.0,0.0,0.0,0.0,0.0,0.0,0.0,0.0,0.0,0.0,0.0,0.0,0.0,0.0,0.0,0.0,2.6499,2.6499,2.6499,2.6499,2.6499,2.6499,2.6499,2.6499,2.6499,2.6977,2.7253,2.7293,2.8323,2.8838,2.8888,2.9528,2.9804,2.9804,2.9804,2.9804,2.9804,2.9804,2.9804,2.9804,2.9804,2.9804,2.9804,2.9804,3.0457,3.1386,3.1386,3.2114,3.3111,3.3111,3.3111,3.3111,3.3111,3.3111,3.3111,3.3111,3.3111,3.3111,3.3111,3.347,3.3922,3.3972,3.4731,3.5508,3.5583,3.6006,3.6405,3.6405,3.6405,3.6405,3.6405,3.6405,3.6405,3.6405,3.6405,3.6405,3.6405,3.6405,3.6405,3.6405,3.6405,3.6405,3.6405,3.6405,3.6405,3.6405,3.6405,3.6405,3.6405,3.5855,3.5282,3.4781,3.4223,3.3671,3.3212,3.3119,3.3111,3.3111,3.3111,3.3111,3.3111,3.3111,3.3111,1.8832,1.9083,1.9334,1.8681,0.0,0.0,0.0,1.9183,0.0,0.0,0.0,0.0,0.0,0.0,0.0,0.0,0.0,0.0,0.0,0.0,0.0,0.0,0.0,0.0,0.0,2.6499,2.6499,2.6499,2.6499,2.6499,2.6499,2.6499,2.6499,2.6499,2.66,2.6876,2.7304,2.7946,2.8461,2.8888,2.9528,2.9804,2.9804,2.9804,2.9804,2.9804,2.9804,2.9804,2.9804,2.9804,2.9804,2.9804,2.9804,3.0457,3.1386,3.1386,3.2114,3.3111,3.3111,3.3111,3.3111,3.3111,3.3111,3.3111,3.3111,3.3111,3.3111,3.3111,3.347,3.3997,3.4449,3.5006,3.5608,3.6107,3.6329,3.6405,3.6405,3.6405,3.6405,3.6405,3.6405,3.6405,3.6405,3.6405,3.6405,3.6405,3.6405,3.6405,3.6405,3.6405,3.6405,3.6405,3.6405,3.6405,3.6405,3.6405,3.6405,3.6405,3.5855,3.5458,3.5332,3.4424,3.3847,3.3746,3.3294,3.3111,3.3111,3.3111,3.3111,3.3111,3.3111,3.3111,1.9635,1.9811,2.0162,1.9911,0.0,0.0,0.0,0.0,0.0,0.0,0.0,0.0,0.0,0.0,0.0,0.0,0.0,0.0,0.0,0.0,0.0,0.0,0.0,0.0,0.0,2.6072,2.6172,2.6474,2.6499,2.6499,2.6499,2.6499,2.6499,2.6499,2.6499,2.6625,2.6901,2.7419,2.7971,2.8524,2.9101,2.9528,2.9804,2.9804,2.9804,2.9804,2.9804,2.9804,2.9804,2.9804,2.9804,2.9829,3.0105,3.0683,3.1411,3.1712,3.234,3.3111,3.3111,3.3111,3.3111,3.3111,3.3111,3.3111,3.3111,3.3111,3.3111,3.3111,3.3671,3.4374,3.465,3.5328,3.6031,3.6355,3.6405,3.6405,3.6405,3.6405,3.6405,3.6405,3.6405,3.6405,3.6405,3.6405,3.6405,3.6405,3.6405,3.6405,3.6405,3.6405,3.6405,3.6405,3.6405,3.6405,3.6405,3.6405,3.6405,3.6405,3.6107,3.583,3.5508,3.4751,3.4048,3.3495,3.3262,3.3111,3.3111,3.3111,3.3111,3.3111,3.3111,3.3111,0.0,0.0,0.0,0.0,0.0,2.079,0.0,0.0,0.0,0.0,0.0,0.0,0.0,0.0,0.0,0.0,0.0,0.0,0.0,0.0,0.0,0.0,0.0,0.0,0.0,2.5259,2.541,2.6122,2.6072,2.6122,2.6323,2.6424,2.6499,2.6499,2.6499,2.6499,2.6499,2.7027,2.757,2.8122,2.8637,2.9227,2.9804,2.9804,2.9804,2.9804,2.9804,2.9804,2.9804,2.9804,2.9804,2.9829,3.0281,3.0834,3.1436,3.1888,3.2491,3.3111,3.3111,3.3111,3.3111,3.3111,3.3111,3.3111,3.3111,3.3111,3.3111,3.3111,3.3872,3.468,3.468,3.5554,3.6405,3.6405,3.6405,3.6405,3.6405,3.6405,3.6405,3.6405,3.6405,3.6405,3.6405,3.6405,3.6405,3.6405,3.6405,3.6405,3.6405,3.6405,3.6405,3.6405,3.6405,3.6405,3.6405,3.6405,3.6405,3.6405,3.6405,3.6157,3.5683,3.5031,3.4198,3.3093,3.3111,3.3111,3.3111,3.3111,3.3111,3.3111,3.3111,3.3111,0.0,0.0,0.0,0.0,2.2874,0.0,0.0,0.0,0.0,0.0,0.0,0.0,0.0,0.0,0.0,0.0,0.0,0.0,0.0,0.0,0.0,0.0,0.0,0.0,0.0,0.0,2.3822,2.4901,2.4556,2.4682,2.5636,2.6223,2.6499,2.6499,2.6499,2.6499,2.6499,2.7027,2.757,2.8122,2.8637,2.9227,2.9804,2.9804,2.9804,2.9804,2.9804,2.9804,2.9804,2.9804,2.9804,2.9804,2.9854,3.0507,3.1411,3.1461,3.2164,3.3111,3.3111,3.3111,3.3111,3.3111,3.3111,3.3111,3.3111,3.3111,3.3111,3.3111,3.3872,3.468,3.468,3.5554,3.6405,3.6405,3.6405,3.6405,3.6405,3.6405,3.6405,3.6405,3.6405,3.6405,3.6405,3.6405,3.6405,3.6405,3.6405,3.6405,3.6405,3.6405,3.6405,3.6405,3.6405,3.6405,3.6405,3.6405,3.6405,3.6405,3.6405,3.638,3.6329,3.5278,3.4198,3.3093,3.3111,3.3111,3.3111,3.3111,3.3111,3.3111,3.3111,3.3111,0.0,0.0,0.0,0.0,0.0,0.0,0.0,0.0,1.9761,0.0,0.0,0.0,0.0,0.0,0.0,0.0,0.0,0.0,0.0,0.0,0.0,0.0,0.0,0.0,0.0,0.0,0.0,0.0,0.0,2.4104,2.5511,2.5837,2.6147,2.6474,2.6499,2.6499,2.6499,2.6725,2.7278,2.8097,2.8348,2.8925,2.9804,2.9804,2.9804,2.9804,2.9804,2.9804,2.9804,2.9804,2.9804,2.9829,3.0156,3.0733,3.1461,3.2114,3.2667,3.3111,3.3111,3.3111,3.3111,3.3111,3.3111,3.3111,3.3111,3.3111,3.3144,3.347,3.4123,3.4756,3.5082,3.578,3.6405,3.6405,3.6405,3.6405,3.6405,3.6405,3.6405,3.6405,3.6405,3.6405,3.6405,3.6405,3.6405,3.6405,3.6405,3.6405,3.6405,3.6405,3.6405,3.6405,3.6405,3.6405,3.6405,3.6405,3.6405,3.6405,3.6405,3.6254,3.5906,3.5127,3.4349,3.3571,3.3244,3.3111,3.3111,3.3111,3.3111,3.3111,3.3111,3.3111,2.5059,0.0,0.0,0.0,0.0,0.0,0.0,0.0,0.0,0.0,0.0,0.0,0.0,0.0,0.0,0.0,0.0,0.0,0.0,0.0,0.0,0.0,0.0,0.0,0.0,0.0,0.0,0.0,0.0,0.0,2.5059,2.5435,2.5787,2.6248,2.6399,2.6499,2.6499,2.665,2.7203,2.8097,2.8273,2.885,2.9804,2.9804,2.9804,2.9804,2.9804,2.9804,2.9804,2.9804,2.9804,2.9854,3.0557,3.106,3.1512,3.2491,3.2943,3.3111,3.3111,3.3111,3.3111,3.3111,3.3111,3.3111,3.3111,3.3194,3.3395,3.3796,3.4399,3.5006,3.5382,3.5956,3.6405,3.6405,3.6405,3.6405,3.6405,3.6405,3.6405,3.6405,3.6405,3.6405,3.6405,3.6405,3.6405,3.6405,3.6405,3.6405,3.6405,3.6405,3.6405,3.6405,3.6405,3.6405,3.6405,3.6405,3.6405,3.6405,3.6405,3.6107,3.5508,3.5107,3.4625,3.3922,3.3495,3.3262,3.3111,3.3111,3.3111,3.3111,3.3111,3.3111,0.0,0.0,0.0,2.3948,0.0,0.0,0.0,0.0,2.1418,0.0,0.0,0.0,0.0,0.0,0.0,0.0,0.0,0.0,0.0,0.0,0.0,0.0,0.0,0.0,0.0,0.0,0.0,0.0,0.0,0.0,2.3929,2.5034,2.5611,2.5611,2.6197,2.6499,2.6499,2.7027,2.7544,2.8122,2.8612,2.9227,2.9804,2.9804,2.9804,2.9804,2.9804,2.9804,2.9804,2.9804,2.9804,2.9905,3.0959,3.1361,3.1461,3.2039,3.2591,3.3111,3.3111,3.3111,3.3111,3.3111,3.3111,3.3111,3.3111,3.3445,3.3872,3.3897,3.4675,3.5483,3.5483,3.5956,3.6405,3.6405,3.6405,3.6405,3.6405,3.6405,3.6405,3.6405,3.6405,3.6405,3.6405,3.6405,3.6405,3.6405,3.6405,3.6405,3.6405,3.6405,3.6405,3.6405,3.6405,3.6405,3.6405,3.6405,3.6405,3.6405,3.6405,3.6107,3.5508,3.5483,3.4956,3.3922,3.3872,3.3621,3.3111,3.3111,3.3111,3.3111,3.3111,3.3111,0.0,0.0,2.8021,2.541,0.0,0.0,0.0,0.0,0.0,0.0,0.0,0.0,0.0,0.0,0.0,0.0,0.0,0.0,0.0,0.0,0.0,0.0,0.0,0.0,0.0,0.0,0.0,0.0,2.1619,0.0,0.0,2.5008,2.5586,2.5586,2.6197,2.6499,2.6499,2.7027,2.757,2.8122,2.8637,2.9227,2.9804,2.9804,2.9804,2.9804,2.9804,2.9804,2.9804,2.9804,3.0005,3.0407,3.111,3.1612,3.2014,3.2566,3.2918,3.3111,3.3111,3.3111,3.3111,3.3111,3.3111,3.3187,3.352,3.3746,3.4048,3.4776,3.5207,3.5583,3.5981,3.6279,3.6405,3.6405,3.6405,3.6405,3.6405,3.6405,3.6405,3.6405,3.6405,3.6405,3.6405,3.6405,3.6405,3.6405,3.6405,3.6405,3.6405,3.6405,3.6405,3.6405,3.6405,3.6405,3.6405,3.6405,3.6405,3.6405,3.6405,3.6329,3.6081,3.5683,3.5332,3.4956,3.4274,3.3796,3.3621,3.3244,3.3111,3.3111,3.3111,3.3111,2.8361,2.8612,0.0,2.6414,2.5661,0.0,2.2849,0.0,0.0,0.0,0.0,0.0,0.0,0.0,0.0,0.0,0.0,0.0,0.0,0.0,0.0,0.0,0.0,0.0,0.0,0.0,2.0314,2.2171,2.1267,0.0,0.0,0.0,2.541,2.5586,2.6197,2.6499,2.6499,2.7228,2.7745,2.8122,2.8875,2.9428,2.9804,2.9804,2.9804,2.9804,2.9804,2.9804,2.9804,2.9804,3.0131,3.0658,3.1185,3.1738,3.229,3.2867,3.3111,3.3111,3.3111,3.3111,3.3111,3.3111,3.3111,3.3194,3.3746,3.4048,3.4374,3.5232,3.5633,3.5906,3.6329,3.6405,3.6405,3.6405,3.6405,3.6405,3.6405,3.6405,3.6405,3.6405,3.6405,3.6405,3.6405,3.6405,3.6405,3.6405,3.6405,3.6405,3.6405,3.6405,3.6405,3.6405,3.6405,3.6405,3.6405,3.6405,3.6405,3.6405,3.6405,3.6405,3.6405,3.6031,3.5708,3.5508,3.4806,3.4299,3.3897,3.3545,3.3269,3.3111,3.3111,3.3111]}]]